Darstellungsparameter: Aktuell verwendete Einstellungen:
Skalierung der Graphiken ... ?
xyx+y,   Skalierungsfaktor:      Skalierung: Modus: x, Faktor: 1
Darstellungszeitraum ... ?
Vom - - bis: - -   Zeitraum: 20.02.2019 - 19.08.2019
Min/Max/Avg-Anzeige ... ?
Zeige MMA aktuell
Zeige MMA Monat
Zeige MMA alles
Zeige --A aktuell
Zeige --A Monat
Zeige --A alles
Keine MMA-Anzeige
MMA:
Minimum Maximum Average (ber die Originaldaten)
MMA-Basis: 23.02.2003 - 16.08.2019
Quicknavigation für Darstellung... ?
Tage:      1T, 2T, 3T, 5T -1T -2T -3T -5T +1T +2T +3T +5T
Wochen: 1W, 2W, 3W -1W -2W -3W +1W +2W +3W
Monate: 1M, 3M, 6M -1M -3M -6M +1M +3M +6M
Jahre:    1J, 3J, 5J, 10J -1J -3J -5J -10J +1J +3J +5J +10J
Nutze für die Darstellung ... ?
Originaldaten oder Mittelwerte auf ...
Stundenbasis Tagesbasis Wochenbasis
Monatsbasis Jahresbasis      Datenbasis: Original-Daten
Darstellen als:
Statistik (Auto) Statistik J:M      Darstellung:
Zur Graphik,    zurück zur Übersicht aller Sensoren.
 
Tabellarische Datenbersicht: ?
 
Sensor: Nr:Datum:Temp:Feuchte:Taupunkt:
Aussen-T/F 1 20-02-2019 00:00:00 2.8 C 93 % 1.78 C
2 20-02-2019 00:05:00 2.8 C 93 % 1.78 C
3 20-02-2019 00:10:00 2.8 C 93 % 1.78 C
4 20-02-2019 00:15:00 2.8 C 93 % 1.78 C
5 20-02-2019 00:20:00 2.8 C 94 % 1.93 C
6 20-02-2019 00:25:00 2.8 C 94 % 1.93 C
7 20-02-2019 00:30:00 2.7 C 93 % 1.68 C
8 20-02-2019 00:35:00 2.5 C 93 % 1.49 C
9 20-02-2019 00:40:00 2.3 C 93 % 1.29 C
10 20-02-2019 00:45:00 2.3 C 93 % 1.29 C
11 20-02-2019 00:50:00 2.3 C 94 % 1.44 C
12 20-02-2019 00:55:00 2.3 C 93 % 1.29 C
13 20-02-2019 01:00:00 2.2 C 93 % 1.19 C
14 20-02-2019 01:05:00 2.2 C 93 % 1.19 C
15 20-02-2019 01:10:00 2.1 C 93 % 1.09 C
16 20-02-2019 01:15:00 2 C 93 % 0.99 C
17 20-02-2019 01:20:00 1.9 C 93 % 0.89 C
18 20-02-2019 01:25:00 1.8 C 94 % 0.94 C
19 20-02-2019 01:30:00 1.7 C 93 % 0.69 C
20 20-02-2019 01:35:00 1.6 C 93 % 0.59 C
21 20-02-2019 01:40:00 1.5 C 93 % 0.49 C
22 20-02-2019 01:45:00 1.5 C 94 % 0.64 C
23 20-02-2019 01:50:00 1.5 C 94 % 0.64 C
24 20-02-2019 01:55:00 1.4 C 94 % 0.54 C
25 20-02-2019 02:00:00 1.4 C 94 % 0.54 C
Sensor: Nr:Datum:Temp:Feuchte:Taupunkt:
Aussen-T/F 26 20-02-2019 02:05:00 1.3 C 94 % 0.44 C
27 20-02-2019 02:10:00 1.3 C 94 % 0.44 C
28 20-02-2019 02:15:00 1.2 C 94 % 0.34 C
29 20-02-2019 02:20:00 1.1 C 94 % 0.24 C
30 20-02-2019 02:25:00 1 C 94 % 0.15 C
31 20-02-2019 02:30:00 1.1 C 94 % 0.24 C
32 20-02-2019 02:35:00 1.1 C 94 % 0.24 C
33 20-02-2019 02:40:00 1.2 C 95 % 0.49 C
34 20-02-2019 02:45:00 1.3 C 95 % 0.59 C
35 20-02-2019 02:50:00 1.2 C 95 % 0.49 C
36 20-02-2019 02:55:00 1.1 C 94 % 0.24 C
37 20-02-2019 03:00:00 1.1 C 94 % 0.24 C
38 20-02-2019 03:05:00 1 C 95 % 0.29 C
39 20-02-2019 03:10:00 1 C 95 % 0.29 C
40 20-02-2019 03:15:00 1 C 95 % 0.29 C
41 20-02-2019 03:20:00 1.1 C 95 % 0.39 C
42 20-02-2019 03:25:00 1.2 C 95 % 0.49 C
43 20-02-2019 03:30:00 1.1 C 95 % 0.39 C
44 20-02-2019 03:35:00 1.1 C 95 % 0.39 C
45 20-02-2019 03:40:00 1.1 C 95 % 0.39 C
46 20-02-2019 03:45:00 1.1 C 95 % 0.39 C
47 20-02-2019 03:50:00 1.2 C 95 % 0.49 C
48 20-02-2019 03:55:00 1.2 C 95 % 0.49 C
49 20-02-2019 04:00:00 1.2 C 95 % 0.49 C
50 20-02-2019 04:05:00 1.1 C 95 % 0.39 C
Sensor: Nr:Datum:Temp:Feuchte:Taupunkt:
Aussen-T/F 51 20-02-2019 04:10:00 1.1 C 95 % 0.39 C
52 20-02-2019 04:15:00 1 C 95 % 0.29 C
53 20-02-2019 04:20:00 0.8 C 95 % 0.09 C
54 20-02-2019 04:25:00 0.7 C 95 % -0.01 C
55 20-02-2019 04:30:00 0.7 C 95 % -0.01 C
56 20-02-2019 04:35:00 0.7 C 95 % -0.01 C
57 20-02-2019 04:40:00 0.8 C 95 % 0.09 C
58 20-02-2019 04:45:00 0.8 C 95 % 0.09 C
59 20-02-2019 04:50:00 0.8 C 95 % 0.09 C
60 20-02-2019 04:55:00 0.8 C 95 % 0.09 C
61 20-02-2019 05:00:00 1 C 96 % 0.44 C
62 20-02-2019 05:05:00 1.1 C 96 % 0.54 C
63 20-02-2019 05:10:00 1.1 C 96 % 0.54 C
64 20-02-2019 05:15:00 1.1 C 95 % 0.39 C
65 20-02-2019 05:20:00 1.1 C 95 % 0.39 C
66 20-02-2019 05:25:00 1 C 95 % 0.29 C
67 20-02-2019 05:30:00 0.9 C 95 % 0.19 C
68 20-02-2019 05:35:00 0.9 C 95 % 0.19 C
69 20-02-2019 05:40:00 0.9 C 95 % 0.19 C
70 20-02-2019 05:45:00 0.9 C 96 % 0.34 C
71 20-02-2019 05:50:00 1 C 96 % 0.44 C
72 20-02-2019 05:55:00 1 C 96 % 0.44 C
73 20-02-2019 06:00:00 0.9 C 96 % 0.34 C
74 20-02-2019 06:05:00 1 C 96 % 0.44 C
75 20-02-2019 06:10:00 1.1 C 96 % 0.54 C
Sensor: Nr:Datum:Temp:Feuchte:Taupunkt:
Aussen-T/F 76 20-02-2019 06:15:00 1 C 96 % 0.44 C
77 20-02-2019 06:20:00 0.9 C 96 % 0.34 C
78 20-02-2019 06:25:00 0.9 C 96 % 0.34 C
79 20-02-2019 06:30:00 0.9 C 96 % 0.34 C
80 20-02-2019 06:35:00 0.9 C 95 % 0.19 C
81 20-02-2019 06:40:00 0.8 C 95 % 0.09 C
82 20-02-2019 06:45:00 0.7 C 95 % -0.01 C
83 20-02-2019 06:50:00 0.6 C 95 % -0.11 C
84 20-02-2019 06:55:00 0.7 C 96 % 0.14 C
85 20-02-2019 07:00:00 0.8 C 96 % 0.24 C
86 20-02-2019 07:05:00 0.8 C 96 % 0.24 C
87 20-02-2019 07:10:00 0.8 C 96 % 0.24 C
88 20-02-2019 07:15:00 0.9 C 96 % 0.34 C
89 20-02-2019 07:20:00 0.8 C 96 % 0.24 C
90 20-02-2019 07:25:00 0.7 C 96 % 0.14 C
91 20-02-2019 07:30:00 0.8 C 96 % 0.24 C
92 20-02-2019 07:35:00 0.7 C 96 % 0.14 C
93 20-02-2019 07:40:00 0.7 C 96 % 0.14 C
94 20-02-2019 07:45:00 0.6 C 96 % 0.04 C
95 20-02-2019 07:50:00 0.6 C 96 % 0.04 C
96 20-02-2019 07:55:00 0.6 C 96 % 0.04 C
97 20-02-2019 08:00:00 0.6 C 96 % 0.04 C
98 20-02-2019 08:05:00 0.7 C 96 % 0.14 C
99 20-02-2019 08:10:00 0.8 C 96 % 0.24 C
100 20-02-2019 08:15:00 0.9 C 96 % 0.34 C
Sensor: Nr:Datum:Temp:Feuchte:Taupunkt:
Aussen-T/F 101 20-02-2019 08:20:00 1.1 C 96 % 0.54 C
102 20-02-2019 08:25:00 1.2 C 96 % 0.63 C
103 20-02-2019 08:30:00 1.3 C 96 % 0.73 C
104 20-02-2019 08:35:00 1.4 C 96 % 0.83 C
105 20-02-2019 08:40:00 1.6 C 97 % 1.18 C
106 20-02-2019 08:45:00 1.8 C 97 % 1.38 C
107 20-02-2019 08:50:00 2 C 97 % 1.58 C
108 20-02-2019 08:55:00 2.3 C 97 % 1.87 C
109 20-02-2019 09:00:00 2.5 C 97 % 2.07 C
110 20-02-2019 09:05:00 2.7 C 97 % 2.27 C
111 20-02-2019 09:10:00 2.8 C 97 % 2.37 C
112 20-02-2019 09:15:00 2.8 C 97 % 2.37 C
113 20-02-2019 09:20:00 2.9 C 97 % 2.47 C
114 20-02-2019 09:25:00 3 C 97 % 2.57 C
115 20-02-2019 09:30:00 3.1 C 97 % 2.67 C
116 20-02-2019 09:35:00 3.3 C 97 % 2.87 C
117 20-02-2019 09:40:00 3.3 C 96 % 2.72 C
118 20-02-2019 09:45:00 3.4 C 96 % 2.82 C
119 20-02-2019 09:50:00 3.6 C 96 % 3.02 C
120 20-02-2019 09:55:00 3.7 C 96 % 3.12 C
121 20-02-2019 10:00:00 3.8 C 96 % 3.22 C
122 20-02-2019 10:05:00 3.8 C 96 % 3.22 C
123 20-02-2019 10:10:00 3.9 C 96 % 3.32 C
124 20-02-2019 10:15:00 4.1 C 96 % 3.52 C
125 20-02-2019 10:20:00 4.2 C 96 % 3.62 C
Sensor: Nr:Datum:Temp:Feuchte:Taupunkt:
Aussen-T/F 126 20-02-2019 10:25:00 4.3 C 96 % 3.72 C
127 20-02-2019 10:30:00 4.4 C 96 % 3.82 C
128 20-02-2019 10:35:00 4.6 C 96 % 4.02 C
129 20-02-2019 10:40:00 4.7 C 95 % 3.97 C
130 20-02-2019 10:45:00 4.9 C 95 % 4.17 C
131 20-02-2019 10:50:00 5 C 95 % 4.27 C
132 20-02-2019 10:55:00 5.2 C 95 % 4.47 C
133 20-02-2019 11:00:00 5.4 C 95 % 4.66 C
134 20-02-2019 11:05:00 5.7 C 94 % 4.81 C
135 20-02-2019 11:10:00 5.8 C 94 % 4.91 C
136 20-02-2019 11:15:00 5.9 C 93 % 4.86 C
137 20-02-2019 11:20:00 6 C 92 % 4.8 C
138 20-02-2019 11:25:00 6.1 C 92 % 4.9 C
139 20-02-2019 11:30:00 6.2 C 92 % 5 C
140 20-02-2019 11:35:00 6.3 C 91 % 4.94 C
141 20-02-2019 11:40:00 6.3 C 91 % 4.94 C
142 20-02-2019 11:45:00 6.3 C 91 % 4.94 C
143 20-02-2019 11:50:00 6.4 C 91 % 5.04 C
144 20-02-2019 11:55:00 6.5 C 90 % 4.98 C
145 20-02-2019 12:00:00 6.6 C 90 % 5.08 C
146 20-02-2019 12:05:00 6.7 C 90 % 5.18 C
147 20-02-2019 12:10:00 6.7 C 90 % 5.18 C
148 20-02-2019 12:15:00 6.9 C 90 % 5.38 C
149 20-02-2019 12:20:00 7.1 C 90 % 5.57 C
150 20-02-2019 12:25:00 7.3 C 89 % 5.61 C
Sensor: Nr:Datum:Temp:Feuchte:Taupunkt:
Aussen-T/F 151 20-02-2019 12:30:00 7.6 C 89 % 5.91 C
152 20-02-2019 12:35:00 7.7 C 87 % 5.68 C
153 20-02-2019 12:40:00 8 C 87 % 5.97 C
154 20-02-2019 12:45:00 8.2 C 86 % 6 C
155 20-02-2019 12:50:00 8.4 C 85 % 6.03 C
156 20-02-2019 12:55:00 8.7 C 83 % 5.98 C
157 20-02-2019 13:00:00 8.9 C 82 % 6 C
158 20-02-2019 13:05:00 9.1 C 82 % 6.19 C
159 20-02-2019 13:10:00 9.3 C 81 % 6.21 C
160 20-02-2019 13:15:00 9.5 C 80 % 6.23 C
161 20-02-2019 13:20:00 9.8 C 79 % 6.34 C
162 20-02-2019 13:25:00 9.9 C 78 % 6.25 C
163 20-02-2019 13:30:00 10.1 C 77 % 6.26 C
164 20-02-2019 13:35:00 10.2 C 77 % 6.35 C
165 20-02-2019 13:40:00 10.2 C 76 % 6.16 C
166 20-02-2019 13:45:00 10.3 C 76 % 6.26 C
167 20-02-2019 13:50:00 10.4 C 76 % 6.36 C
168 20-02-2019 13:55:00 10.7 C 75 % 6.46 C
169 20-02-2019 14:00:00 10.9 C 75 % 6.65 C
170 20-02-2019 14:05:00 10.9 C 74 % 6.45 C
171 20-02-2019 14:10:00 10.9 C 74 % 6.45 C
172 20-02-2019 14:15:00 10.8 C 74 % 6.36 C
173 20-02-2019 14:20:00 10.8 C 75 % 6.55 C
174 20-02-2019 14:25:00 10.8 C 75 % 6.55 C
175 20-02-2019 14:30:00 10.8 C 75 % 6.55 C
Sensor: Nr:Datum:Temp:Feuchte:Taupunkt:
Aussen-T/F 176 20-02-2019 14:35:00 10.8 C 74 % 6.36 C
177 20-02-2019 14:40:00 10.9 C 74 % 6.45 C
178 20-02-2019 14:45:00 10.9 C 74 % 6.45 C
179 20-02-2019 14:50:00 10.9 C 74 % 6.45 C
180 20-02-2019 14:55:00 10.9 C 74 % 6.45 C
181 20-02-2019 15:00:00 11 C 74 % 6.55 C
182 20-02-2019 15:05:00 11 C 74 % 6.55 C
183 20-02-2019 15:10:00 11.1 C 73 % 6.45 C
184 20-02-2019 15:15:00 11.1 C 73 % 6.45 C
185 20-02-2019 15:20:00 11.1 C 73 % 6.45 C
186 20-02-2019 15:25:00 11.1 C 73 % 6.45 C
187 20-02-2019 15:30:00 11 C 73 % 6.35 C
188 20-02-2019 15:35:00 11.1 C 73 % 6.45 C
189 20-02-2019 15:40:00 11.1 C 73 % 6.45 C
190 20-02-2019 15:45:00 11.1 C 73 % 6.45 C
191 20-02-2019 15:50:00 11.1 C 72 % 6.25 C
192 20-02-2019 15:55:00 11.2 C 72 % 6.35 C
193 20-02-2019 16:00:00 11.3 C 71 % 6.24 C
194 20-02-2019 16:05:00 11.3 C 73 % 6.64 C
195 20-02-2019 16:10:00 11.3 C 72 % 6.44 C
196 20-02-2019 16:15:00 11.3 C 72 % 6.44 C
197 20-02-2019 16:20:00 11.3 C 71 % 6.24 C
198 20-02-2019 16:25:00 11.3 C 72 % 6.44 C
199 20-02-2019 16:30:00 11.2 C 71 % 6.14 C
200 20-02-2019 16:35:00 11.3 C 71 % 6.24 C
Sensor: Nr:Datum:Temp:Feuchte:Taupunkt:
Aussen-T/F 201 20-02-2019 16:40:00 11.3 C 71 % 6.24 C
202 20-02-2019 16:45:00 11.5 C 71 % 6.43 C
203 20-02-2019 16:50:00 11.7 C 71 % 6.62 C
204 20-02-2019 16:55:00 11.7 C 69 % 6.21 C
205 20-02-2019 17:00:00 11.7 C 69 % 6.21 C
206 20-02-2019 17:05:00 11.5 C 71 % 6.43 C
207 20-02-2019 17:10:00 11.3 C 71 % 6.24 C
208 20-02-2019 17:15:00 11.1 C 72 % 6.25 C
209 20-02-2019 17:20:00 10.9 C 73 % 6.26 C
210 20-02-2019 17:25:00 10.7 C 74 % 6.26 C
211 20-02-2019 17:30:00 10.4 C 74 % 5.97 C
212 20-02-2019 17:35:00 10.1 C 75 % 5.88 C
213 20-02-2019 17:40:00 9.7 C 76 % 5.68 C
214 20-02-2019 17:45:00 9.3 C 77 % 5.48 C
215 20-02-2019 17:50:00 8.9 C 78 % 5.28 C
216 20-02-2019 17:55:00 8.6 C 79 % 5.17 C
217 20-02-2019 18:00:00 8.3 C 80 % 5.06 C
218 20-02-2019 18:05:00 8 C 81 % 4.94 C
219 20-02-2019 18:10:00 7.7 C 82 % 4.83 C
220 20-02-2019 18:15:00 7.6 C 83 % 4.9 C
221 20-02-2019 18:20:00 7.4 C 84 % 4.88 C
222 20-02-2019 18:25:00 7.2 C 84 % 4.68 C
223 20-02-2019 18:30:00 7.1 C 85 % 4.75 C
224 20-02-2019 18:35:00 7 C 85 % 4.66 C
225 20-02-2019 18:40:00 6.9 C 85 % 4.56 C
Sensor: Nr:Datum:Temp:Feuchte:Taupunkt:
Aussen-T/F 226 20-02-2019 18:45:00 6.8 C 86 % 4.63 C
227 20-02-2019 18:50:00 6.8 C 86 % 4.63 C
228 20-02-2019 18:55:00 6.7 C 86 % 4.53 C
229 20-02-2019 19:00:00 6.6 C 86 % 4.43 C
230 20-02-2019 19:05:00 6.5 C 86 % 4.33 C
231 20-02-2019 19:10:00 6.4 C 87 % 4.4 C
232 20-02-2019 19:15:00 6.3 C 87 % 4.3 C
233 20-02-2019 19:20:00 6.3 C 87 % 4.3 C
234 20-02-2019 19:25:00 6.2 C 88 % 4.36 C
235 20-02-2019 19:30:00 6.1 C 88 % 4.27 C
236 20-02-2019 19:35:00 6.1 C 88 % 4.27 C
237 20-02-2019 19:40:00 5.9 C 88 % 4.07 C
238 20-02-2019 19:45:00 5.9 C 89 % 4.23 C
239 20-02-2019 19:50:00 5.9 C 89 % 4.23 C
240 20-02-2019 19:55:00 5.8 C 89 % 4.13 C
241 20-02-2019 20:00:00 5.6 C 88 % 3.77 C
242 20-02-2019 20:05:00 5.4 C 88 % 3.58 C
243 20-02-2019 20:10:00 5.2 C 89 % 3.54 C
244 20-02-2019 20:15:00 5.2 C 89 % 3.54 C
245 20-02-2019 20:20:00 5.1 C 90 % 3.6 C
246 20-02-2019 20:25:00 4.9 C 90 % 3.4 C
247 20-02-2019 20:30:00 4.8 C 90 % 3.3 C
248 20-02-2019 20:35:00 4.6 C 90 % 3.1 C
249 20-02-2019 20:40:00 4.4 C 90 % 2.91 C
250 20-02-2019 20:45:00 4.4 C 91 % 3.06 C
Sensor: Nr:Datum:Temp:Feuchte:Taupunkt:
Aussen-T/F 251 20-02-2019 20:50:00 4.4 C 91 % 3.06 C
252 20-02-2019 20:55:00 4.4 C 91 % 3.06 C
253 20-02-2019 21:00:00 4.4 C 92 % 3.22 C
254 20-02-2019 21:05:00 4.3 C 91 % 2.96 C
255 20-02-2019 21:10:00 4.2 C 91 % 2.87 C
256 20-02-2019 21:15:00 4.1 C 91 % 2.77 C
257 20-02-2019 21:20:00 3.8 C 90 % 2.31 C
258 20-02-2019 21:25:00 3.7 C 91 % 2.37 C
259 20-02-2019 21:30:00 3.6 C 92 % 2.42 C
260 20-02-2019 21:35:00 3.6 C 92 % 2.42 C
261 20-02-2019 21:40:00 3.6 C 92 % 2.42 C
262 20-02-2019 21:45:00 3.4 C 92 % 2.23 C
263 20-02-2019 21:50:00 3.4 C 92 % 2.23 C
264 20-02-2019 21:55:00 3.2 C 92 % 2.03 C
265 20-02-2019 22:00:00 3.2 C 92 % 2.03 C
266 20-02-2019 22:05:00 3.1 C 92 % 1.93 C
267 20-02-2019 22:10:00 2.9 C 92 % 1.73 C
268 20-02-2019 22:15:00 2.8 C 92 % 1.63 C
269 20-02-2019 22:20:00 2.7 C 92 % 1.53 C
270 20-02-2019 22:25:00 2.6 C 93 % 1.59 C
271 20-02-2019 22:30:00 2.5 C 93 % 1.49 C
272 20-02-2019 22:35:00 2.6 C 93 % 1.59 C
273 20-02-2019 22:40:00 2.6 C 94 % 1.73 C
274 20-02-2019 22:45:00 2.6 C 94 % 1.73 C
275 20-02-2019 22:50:00 2.5 C 94 % 1.63 C
Sensor: Nr:Datum:Temp:Feuchte:Taupunkt:
Aussen-T/F 276 20-02-2019 22:55:00 2.3 C 93 % 1.29 C
277 20-02-2019 23:00:00 2.2 C 94 % 1.34 C
278 20-02-2019 23:05:00 2.3 C 94 % 1.44 C
279 20-02-2019 23:10:00 2.4 C 94 % 1.54 C
280 20-02-2019 23:15:00 2.3 C 94 % 1.44 C
281 20-02-2019 23:20:00 2.2 C 94 % 1.34 C
282 20-02-2019 23:25:00 1.9 C 94 % 1.04 C
283 20-02-2019 23:30:00 1.8 C 94 % 0.94 C
284 20-02-2019 23:35:00 1.9 C 94 % 1.04 C
285 20-02-2019 23:40:00 1.9 C 94 % 1.04 C
286 20-02-2019 23:45:00 2 C 95 % 1.29 C
287 20-02-2019 23:50:00 2.2 C 95 % 1.48 C
288 20-02-2019 23:55:00 2.2 C 95 % 1.48 C
289 21-02-2019 00:00:00 2.1 C 94 % 1.24 C
290 21-02-2019 00:05:00 1.9 C 95 % 1.19 C
291 21-02-2019 00:10:00 1.8 C 94 % 0.94 C
292 21-02-2019 00:15:00 1.7 C 94 % 0.84 C
293 21-02-2019 00:20:00 1.6 C 94 % 0.74 C
294 21-02-2019 00:25:00 1.5 C 94 % 0.64 C
295 21-02-2019 00:30:00 1.4 C 94 % 0.54 C
296 21-02-2019 00:35:00 1.4 C 95 % 0.69 C
297 21-02-2019 00:40:00 1.4 C 95 % 0.69 C
298 21-02-2019 00:45:00 1.3 C 95 % 0.59 C
299 21-02-2019 00:50:00 1.3 C 95 % 0.59 C
300 21-02-2019 00:55:00 1.5 C 95 % 0.79 C
Sensor: Nr:Datum:Temp:Feuchte:Taupunkt:
Aussen-T/F 301 21-02-2019 01:00:00 1.6 C 95 % 0.89 C
302 21-02-2019 01:05:00 1.6 C 95 % 0.89 C
303 21-02-2019 01:10:00 1.7 C 95 % 0.99 C
304 21-02-2019 01:15:00 1.7 C 95 % 0.99 C
305 21-02-2019 01:20:00 1.8 C 95 % 1.09 C
306 21-02-2019 01:25:00 1.7 C 95 % 0.99 C
307 21-02-2019 01:30:00 1.6 C 95 % 0.89 C
308 21-02-2019 01:35:00 1.3 C 95 % 0.59 C
309 21-02-2019 01:40:00 1.3 C 95 % 0.59 C
310 21-02-2019 01:45:00 1.3 C 95 % 0.59 C
311 21-02-2019 01:50:00 1.6 C 96 % 1.03 C
312 21-02-2019 01:55:00 1.8 C 96 % 1.23 C
313 21-02-2019 02:00:00 1.8 C 96 % 1.23 C
314 21-02-2019 02:05:00 1.8 C 96 % 1.23 C
315 21-02-2019 02:10:00 1.7 C 95 % 0.99 C
316 21-02-2019 02:15:00 1.4 C 95 % 0.69 C
317 21-02-2019 02:20:00 1.2 C 95 % 0.49 C
318 21-02-2019 02:25:00 0.9 C 95 % 0.19 C
319 21-02-2019 02:30:00 0.8 C 95 % 0.09 C
320 21-02-2019 02:35:00 0.7 C 95 % -0.01 C
321 21-02-2019 02:40:00 0.7 C 95 % -0.01 C
322 21-02-2019 02:45:00 0.6 C 95 % -0.11 C
323 21-02-2019 02:50:00 0.6 C 95 % -0.11 C
324 21-02-2019 02:55:00 0.6 C 95 % -0.11 C
325 21-02-2019 03:00:00 0.7 C 96 % 0.14 C
Sensor: Nr:Datum:Temp:Feuchte:Taupunkt:
Aussen-T/F 326 21-02-2019 03:05:00 0.7 C 96 % 0.14 C
327 21-02-2019 03:10:00 0.7 C 95 % -0.01 C
328 21-02-2019 03:15:00 0.7 C 96 % 0.14 C
329 21-02-2019 03:20:00 0.7 C 96 % 0.14 C
330 21-02-2019 03:25:00 0.6 C 96 % 0.04 C
331 21-02-2019 03:30:00 0.7 C 96 % 0.14 C
332 21-02-2019 03:35:00 0.7 C 96 % 0.14 C
333 21-02-2019 03:40:00 0.8 C 96 % 0.24 C
334 21-02-2019 03:45:00 0.8 C 96 % 0.24 C
335 21-02-2019 03:50:00 0.8 C 96 % 0.24 C
336 21-02-2019 03:55:00 1 C 96 % 0.44 C
337 21-02-2019 04:00:00 1.1 C 96 % 0.54 C
338 21-02-2019 04:05:00 1.2 C 96 % 0.63 C
339 21-02-2019 04:10:00 1.1 C 96 % 0.54 C
340 21-02-2019 04:15:00 0.9 C 96 % 0.34 C
341 21-02-2019 04:20:00 0.8 C 96 % 0.24 C
342 21-02-2019 04:25:00 0.8 C 96 % 0.24 C
343 21-02-2019 04:30:00 0.8 C 96 % 0.24 C
344 21-02-2019 04:35:00 0.9 C 96 % 0.34 C
345 21-02-2019 04:40:00 0.9 C 96 % 0.34 C
346 21-02-2019 04:45:00 0.9 C 96 % 0.34 C
347 21-02-2019 04:50:00 0.8 C 96 % 0.24 C
348 21-02-2019 04:55:00 0.8 C 96 % 0.24 C
349 21-02-2019 05:00:00 0.7 C 96 % 0.14 C
350 21-02-2019 05:05:00 0.6 C 96 % 0.04 C
Sensor: Nr:Datum:Temp:Feuchte:Taupunkt:
Aussen-T/F 351 21-02-2019 05:10:00 0.6 C 96 % 0.04 C
352 21-02-2019 05:15:00 0.5 C 96 % -0.06 C
353 21-02-2019 05:20:00 0.5 C 96 % -0.06 C
354 21-02-2019 05:25:00 0.7 C 96 % 0.14 C
355 21-02-2019 05:30:00 0.9 C 96 % 0.34 C
356 21-02-2019 05:35:00 1.2 C 96 % 0.63 C
357 21-02-2019 05:40:00 1.6 C 97 % 1.18 C
358 21-02-2019 05:45:00 1.8 C 97 % 1.38 C
359 21-02-2019 05:50:00 1.8 C 97 % 1.38 C
360 21-02-2019 05:55:00 1.9 C 97 % 1.48 C
361 21-02-2019 06:00:00 1.9 C 97 % 1.48 C
362 21-02-2019 06:05:00 1.9 C 97 % 1.48 C
363 21-02-2019 06:10:00 1.8 C 97 % 1.38 C
364 21-02-2019 06:15:00 1.7 C 96 % 1.13 C
365 21-02-2019 06:20:00 1.4 C 96 % 0.83 C
366 21-02-2019 06:25:00 1.3 C 96 % 0.73 C
367 21-02-2019 06:30:00 1.2 C 96 % 0.63 C
368 21-02-2019 06:35:00 1 C 96 % 0.44 C
369 21-02-2019 06:40:00 0.8 C 96 % 0.24 C
370 21-02-2019 06:45:00 0.7 C 96 % 0.14 C
371 21-02-2019 06:50:00 0.6 C 96 % 0.04 C
372 21-02-2019 06:55:00 0.7 C 96 % 0.14 C
373 21-02-2019 07:00:00 0.7 C 96 % 0.14 C
374 21-02-2019 07:05:00 0.8 C 96 % 0.24 C
375 21-02-2019 07:10:00 1.1 C 96 % 0.54 C
Sensor: Nr:Datum:Temp:Feuchte:Taupunkt:
Aussen-T/F 376 21-02-2019 07:15:00 1.2 C 96 % 0.63 C
377 21-02-2019 07:20:00 1.3 C 97 % 0.88 C
378 21-02-2019 07:25:00 1.3 C 97 % 0.88 C
379 21-02-2019 07:30:00 1.3 C 97 % 0.88 C
380 21-02-2019 07:35:00 1.3 C 97 % 0.88 C
381 21-02-2019 07:40:00 1.3 C 97 % 0.88 C
382 21-02-2019 07:45:00 1.4 C 96 % 0.83 C
383 21-02-2019 07:50:00 1.4 C 96 % 0.83 C
384 21-02-2019 07:55:00 1.5 C 96 % 0.93 C
385 21-02-2019 08:00:00 1.6 C 97 % 1.18 C
386 21-02-2019 08:05:00 1.7 C 97 % 1.28 C
387 21-02-2019 08:10:00 1.8 C 97 % 1.38 C
388 21-02-2019 08:15:00 1.9 C 97 % 1.48 C
389 21-02-2019 08:20:00 2.1 C 97 % 1.67 C
390 21-02-2019 08:25:00 2.1 C 97 % 1.67 C
391 21-02-2019 08:30:00 2.2 C 97 % 1.77 C
392 21-02-2019 08:35:00 2.3 C 97 % 1.87 C
393 21-02-2019 08:40:00 2.3 C 97 % 1.87 C
394 21-02-2019 08:45:00 2.4 C 97 % 1.97 C
395 21-02-2019 08:50:00 2.4 C 97 % 1.97 C
396 21-02-2019 08:55:00 2.5 C 97 % 2.07 C
397 21-02-2019 09:00:00 2.6 C 97 % 2.17 C
398 21-02-2019 09:05:00 2.6 C 97 % 2.17 C
399 21-02-2019 09:10:00 2.7 C 97 % 2.27 C
400 21-02-2019 09:15:00 2.7 C 97 % 2.27 C
Sensor: Nr:Datum:Temp:Feuchte:Taupunkt:
Aussen-T/F 401 21-02-2019 09:20:00 2.8 C 97 % 2.37 C
402 21-02-2019 09:25:00 2.8 C 97 % 2.37 C
403 21-02-2019 09:30:00 2.8 C 97 % 2.37 C
404 21-02-2019 09:35:00 2.9 C 97 % 2.47 C
405 21-02-2019 09:40:00 2.9 C 97 % 2.47 C
406 21-02-2019 09:45:00 3 C 97 % 2.57 C
407 21-02-2019 09:50:00 3.1 C 97 % 2.67 C
408 21-02-2019 09:55:00 3.2 C 97 % 2.77 C
409 21-02-2019 10:00:00 3.2 C 97 % 2.77 C
410 21-02-2019 10:05:00 3.3 C 97 % 2.87 C
411 21-02-2019 10:10:00 3.4 C 97 % 2.97 C
412 21-02-2019 10:15:00 3.7 C 97 % 3.27 C
413 21-02-2019 10:20:00 3.8 C 97 % 3.37 C
414 21-02-2019 10:25:00 3.9 C 97 % 3.47 C
415 21-02-2019 10:30:00 4 C 97 % 3.57 C
416 21-02-2019 10:35:00 4.2 C 97 % 3.77 C
417 21-02-2019 10:40:00 4.2 C 97 % 3.77 C
418 21-02-2019 10:45:00 4.3 C 97 % 3.87 C
419 21-02-2019 10:50:00 4.4 C 97 % 3.97 C
420 21-02-2019 10:55:00 4.6 C 97 % 4.17 C
421 21-02-2019 11:00:00 4.8 C 97 % 4.37 C
422 21-02-2019 11:05:00 4.9 C 96 % 4.32 C
423 21-02-2019 11:10:00 5.1 C 96 % 4.52 C
424 21-02-2019 11:15:00 5.3 C 96 % 4.72 C
425 21-02-2019 11:20:00 5.4 C 96 % 4.81 C
Sensor: Nr:Datum:Temp:Feuchte:Taupunkt:
Aussen-T/F 426 21-02-2019 11:25:00 5.6 C 95 % 4.86 C
427 21-02-2019 11:30:00 5.7 C 95 % 4.96 C
428 21-02-2019 11:35:00 5.9 C 95 % 5.16 C
429 21-02-2019 11:40:00 6.2 C 94 % 5.31 C
430 21-02-2019 11:45:00 6.4 C 93 % 5.35 C
431 21-02-2019 11:50:00 6.6 C 93 % 5.55 C
432 21-02-2019 11:55:00 6.8 C 92 % 5.59 C
433 21-02-2019 12:00:00 7 C 92 % 5.79 C
434 21-02-2019 12:05:00 7.2 C 92 % 5.99 C
435 21-02-2019 12:10:00 7.4 C 91 % 6.03 C
436 21-02-2019 12:15:00 7.7 C 91 % 6.33 C
437 21-02-2019 12:20:00 7.8 C 90 % 6.27 C
438 21-02-2019 12:25:00 8.1 C 90 % 6.56 C
439 21-02-2019 12:30:00 8.3 C 90 % 6.76 C
440 21-02-2019 12:35:00 8.5 C 90 % 6.96 C
441 21-02-2019 12:40:00 8.8 C 90 % 7.25 C
442 21-02-2019 12:45:00 9.3 C 89 % 7.58 C
443 21-02-2019 12:50:00 9.8 C 87 % 7.74 C
444 21-02-2019 12:55:00 10.1 C 86 % 7.87 C
445 21-02-2019 13:00:00 10.3 C 85 % 7.89 C
446 21-02-2019 13:05:00 10.5 C 84 % 7.91 C
447 21-02-2019 13:10:00 10.7 C 84 % 8.11 C
448 21-02-2019 13:15:00 10.8 C 83 % 8.03 C
449 21-02-2019 13:20:00 11 C 84 % 8.4 C
450 21-02-2019 13:25:00 11.3 C 83 % 8.52 C
Sensor: Nr:Datum:Temp:Feuchte:Taupunkt:
Aussen-T/F 451 21-02-2019 13:30:00 11.5 C 81 % 8.36 C
452 21-02-2019 13:35:00 11.7 C 81 % 8.55 C
453 21-02-2019 13:40:00 11.8 C 80 % 8.47 C
454 21-02-2019 13:45:00 11.9 C 79 % 8.38 C
455 21-02-2019 13:50:00 12 C 79 % 8.48 C
456 21-02-2019 13:55:00 12.1 C 79 % 8.57 C
457 21-02-2019 14:00:00 12.1 C 79 % 8.57 C
458 21-02-2019 14:05:00 12.2 C 78 % 8.48 C
459 21-02-2019 14:10:00 12.3 C 79 % 8.77 C
460 21-02-2019 14:15:00 12.6 C 78 % 8.87 C
461 21-02-2019 14:20:00 12.7 C 77 % 8.78 C
462 21-02-2019 14:25:00 12.7 C 76 % 8.58 C
463 21-02-2019 14:30:00 12.8 C 76 % 8.68 C
464 21-02-2019 14:35:00 12.8 C 76 % 8.68 C
465 21-02-2019 14:40:00 12.7 C 76 % 8.58 C
466 21-02-2019 14:45:00 12.7 C 76 % 8.58 C
467 21-02-2019 14:50:00 12.7 C 76 % 8.58 C
468 21-02-2019 14:55:00 12.9 C 77 % 8.97 C
469 21-02-2019 15:00:00 13.2 C 75 % 8.87 C
470 21-02-2019 15:05:00 13.2 C 75 % 8.87 C
471 21-02-2019 15:10:00 13.3 C 74 % 8.77 C
472 21-02-2019 15:15:00 13.4 C 74 % 8.87 C
473 21-02-2019 15:20:00 13.4 C 74 % 8.87 C
474 21-02-2019 15:25:00 13.3 C 74 % 8.77 C
475 21-02-2019 15:30:00 13.3 C 75 % 8.97 C
Sensor: Nr:Datum:Temp:Feuchte:Taupunkt:
Aussen-T/F 476 21-02-2019 15:35:00 13.3 C 74 % 8.77 C
477 21-02-2019 15:40:00 13.3 C 75 % 8.97 C
478 21-02-2019 15:45:00 13.4 C 74 % 8.87 C
479 21-02-2019 15:50:00 13.4 C 73 % 8.66 C
480 21-02-2019 15:55:00 13.4 C 74 % 8.87 C
481 21-02-2019 16:00:00 13.3 C 73 % 8.57 C
482 21-02-2019 16:05:00 13.3 C 73 % 8.57 C
483 21-02-2019 16:10:00 13.3 C 74 % 8.77 C
484 21-02-2019 16:15:00 13.3 C 75 % 8.97 C
485 21-02-2019 16:20:00 13.4 C 75 % 9.06 C
486 21-02-2019 16:25:00 13.4 C 74 % 8.87 C
487 21-02-2019 16:30:00 13.4 C 74 % 8.87 C
488 21-02-2019 16:35:00 13.4 C 74 % 8.87 C
489 21-02-2019 16:40:00 13.4 C 74 % 8.87 C
490 21-02-2019 16:45:00 13.3 C 75 % 8.97 C
491 21-02-2019 16:50:00 13.3 C 74 % 8.77 C
492 21-02-2019 16:55:00 13.3 C 74 % 8.77 C
493 21-02-2019 17:00:00 13.2 C 73 % 8.47 C
494 21-02-2019 17:05:00 13.1 C 73 % 8.38 C
495 21-02-2019 17:10:00 13.1 C 73 % 8.38 C
496 21-02-2019 17:15:00 13.1 C 75 % 8.77 C
497 21-02-2019 17:20:00 13.1 C 80 % 9.73 C
498 21-02-2019 17:25:00 12.8 C 81 % 9.62 C
499 21-02-2019 17:30:00 12.6 C 82 % 9.61 C
500 21-02-2019 17:35:00 12.3 C 83 % 9.5 C
Sensor: Nr:Datum:Temp:Feuchte:Taupunkt:
Aussen-T/F 501 21-02-2019 17:40:00 12 C 84 % 9.38 C
502 21-02-2019 17:45:00 11.7 C 84 % 9.09 C
503 21-02-2019 17:50:00 11.5 C 85 % 9.07 C
504 21-02-2019 17:55:00 11.3 C 85 % 8.87 C
505 21-02-2019 18:00:00 11.1 C 86 % 8.85 C
506 21-02-2019 18:05:00 10.9 C 86 % 8.65 C
507 21-02-2019 18:10:00 10.8 C 86 % 8.56 C
508 21-02-2019 18:15:00 10.7 C 86 % 8.46 C
509 21-02-2019 18:20:00 10.6 C 86 % 8.36 C
510 21-02-2019 18:25:00 10.6 C 86 % 8.36 C
511 21-02-2019 18:30:00 10.5 C 86 % 8.26 C
512 21-02-2019 18:35:00 10.4 C 86 % 8.16 C
513 21-02-2019 18:40:00 10.4 C 86 % 8.16 C
514 21-02-2019 18:45:00 10.3 C 86 % 8.06 C
515 21-02-2019 18:50:00 10.3 C 87 % 8.23 C
516 21-02-2019 18:55:00 10.2 C 87 % 8.14 C
517 21-02-2019 19:00:00 10.2 C 87 % 8.14 C
518 21-02-2019 19:05:00 10.1 C 86 % 7.87 C
519 21-02-2019 19:10:00 10 C 86 % 7.77 C
520 21-02-2019 19:15:00 9.8 C 86 % 7.57 C
521 21-02-2019 19:20:00 9.8 C 87 % 7.74 C
522 21-02-2019 19:25:00 9.7 C 88 % 7.81 C
523 21-02-2019 19:30:00 9.7 C 88 % 7.81 C
524 21-02-2019 19:35:00 9.7 C 88 % 7.81 C
525 21-02-2019 19:40:00 9.6 C 88 % 7.71 C
Sensor: Nr:Datum:Temp:Feuchte:Taupunkt:
Aussen-T/F 526 21-02-2019 19:45:00 9.6 C 87 % 7.55 C
527 21-02-2019 19:50:00 9.4 C 88 % 7.52 C
528 21-02-2019 19:55:00 9.3 C 88 % 7.42 C
529 21-02-2019 20:00:00 9.2 C 88 % 7.32 C
530 21-02-2019 20:05:00 9.2 C 89 % 7.48 C
531 21-02-2019 20:10:00 9.2 C 89 % 7.48 C
532 21-02-2019 20:15:00 9.1 C 89 % 7.39 C
533 21-02-2019 20:20:00 9.1 C 89 % 7.39 C
534 21-02-2019 20:25:00 9.2 C 90 % 7.65 C
535 21-02-2019 20:30:00 9.2 C 90 % 7.65 C
536 21-02-2019 20:35:00 9.2 C 90 % 7.65 C
537 21-02-2019 20:40:00 9.2 C 90 % 7.65 C
538 21-02-2019 20:45:00 9.2 C 90 % 7.65 C
539 21-02-2019 20:50:00 9.2 C 90 % 7.65 C
540 21-02-2019 20:55:00 9.2 C 90 % 7.65 C
541 21-02-2019 21:00:00 9.3 C 90 % 7.75 C
542 21-02-2019 21:05:00 9.3 C 90 % 7.75 C
543 21-02-2019 21:10:00 9.3 C 91 % 7.91 C
544 21-02-2019 21:15:00 9.3 C 91 % 7.91 C
545 21-02-2019 21:20:00 9.3 C 91 % 7.91 C
546 21-02-2019 21:25:00 9.3 C 91 % 7.91 C
547 21-02-2019 21:30:00 9.3 C 91 % 7.91 C
548 21-02-2019 21:35:00 9.3 C 91 % 7.91 C
549 21-02-2019 21:40:00 9.3 C 90 % 7.75 C
550 21-02-2019 21:45:00 9.4 C 90 % 7.85 C
Sensor: Nr:Datum:Temp:Feuchte:Taupunkt:
Aussen-T/F 551 21-02-2019 21:50:00 9.4 C 90 % 7.85 C
552 21-02-2019 21:55:00 9.4 C 90 % 7.85 C
553 21-02-2019 22:00:00 9.3 C 90 % 7.75 C
554 21-02-2019 22:05:00 9.3 C 90 % 7.75 C
555 21-02-2019 22:10:00 9.3 C 89 % 7.58 C
556 21-02-2019 22:15:00 9.3 C 90 % 7.75 C
557 21-02-2019 22:20:00 9.3 C 89 % 7.58 C
558 21-02-2019 22:25:00 9.3 C 89 % 7.58 C
559 21-02-2019 22:30:00 9.3 C 89 % 7.58 C
560 21-02-2019 22:35:00 9.3 C 89 % 7.58 C
561 21-02-2019 22:40:00 9.3 C 89 % 7.58 C
562 21-02-2019 22:45:00 9.2 C 89 % 7.48 C
563 21-02-2019 22:50:00 9.2 C 89 % 7.48 C
564 21-02-2019 22:55:00 9.2 C 89 % 7.48 C
565 21-02-2019 23:00:00 9.1 C 89 % 7.39 C
566 21-02-2019 23:05:00 9.1 C 89 % 7.39 C
567 21-02-2019 23:10:00 9 C 89 % 7.29 C
568 21-02-2019 23:15:00 9 C 90 % 7.45 C
569 21-02-2019 23:20:00 9.1 C 90 % 7.55 C
570 21-02-2019 23:25:00 9.2 C 90 % 7.65 C
571 21-02-2019 23:30:00 9.3 C 90 % 7.75 C
572 21-02-2019 23:35:00 9.3 C 89 % 7.58 C
573 21-02-2019 23:40:00 9.4 C 89 % 7.68 C
574 21-02-2019 23:45:00 9.3 C 89 % 7.58 C
575 21-02-2019 23:50:00 9.4 C 89 % 7.68 C
Sensor: Nr:Datum:Temp:Feuchte:Taupunkt:
Aussen-T/F 576 21-02-2019 23:55:00 9.4 C 89 % 7.68 C
577 22-02-2019 00:00:00 9.4 C 89 % 7.68 C
578 22-02-2019 00:05:00 9.4 C 88 % 7.52 C
579 22-02-2019 00:10:00 9.3 C 89 % 7.58 C
580 22-02-2019 00:15:00 9.3 C 89 % 7.58 C
581 22-02-2019 00:20:00 9.3 C 89 % 7.58 C
582 22-02-2019 00:25:00 9.3 C 89 % 7.58 C
583 22-02-2019 00:30:00 9.4 C 89 % 7.68 C
584 22-02-2019 00:35:00 9.5 C 90 % 7.94 C
585 22-02-2019 00:40:00 9.8 C 90 % 8.24 C
586 22-02-2019 00:45:00 10 C 88 % 8.11 C
587 22-02-2019 00:50:00 10.1 C 88 % 8.21 C
588 22-02-2019 00:55:00 10.1 C 88 % 8.21 C
589 22-02-2019 01:00:00 10.1 C 88 % 8.21 C
590 22-02-2019 01:05:00 10.1 C 87 % 8.04 C
591 22-02-2019 01:10:00 9.9 C 87 % 7.84 C
592 22-02-2019 01:15:00 9.8 C 87 % 7.74 C
593 22-02-2019 01:20:00 9.8 C 88 % 7.91 C
594 22-02-2019 01:25:00 9.7 C 88 % 7.81 C
595 22-02-2019 01:30:00 9.7 C 89 % 7.98 C
596 22-02-2019 01:35:00 9.7 C 89 % 7.98 C
597 22-02-2019 01:40:00 9.7 C 89 % 7.98 C
598 22-02-2019 01:45:00 9.6 C 89 % 7.88 C
599 22-02-2019 01:50:00 9.6 C 89 % 7.88 C
600 22-02-2019 01:55:00 9.5 C 89 % 7.78 C
Sensor: Nr:Datum:Temp:Feuchte:Taupunkt:
Aussen-T/F 601 22-02-2019 02:00:00 9.4 C 89 % 7.68 C
602 22-02-2019 02:05:00 9.4 C 89 % 7.68 C
603 22-02-2019 02:10:00 9.4 C 90 % 7.85 C
604 22-02-2019 02:15:00 9.4 C 90 % 7.85 C
605 22-02-2019 02:20:00 9.4 C 90 % 7.85 C
606 22-02-2019 02:25:00 9.3 C 90 % 7.75 C
607 22-02-2019 02:30:00 9.3 C 90 % 7.75 C
608 22-02-2019 02:35:00 9.3 C 90 % 7.75 C
609 22-02-2019 02:40:00 9.2 C 90 % 7.65 C
610 22-02-2019 02:45:00 9.2 C 91 % 7.81 C
611 22-02-2019 02:50:00 9.3 C 91 % 7.91 C
612 22-02-2019 02:55:00 9.3 C 92 % 8.07 C
613 22-02-2019 03:00:00 9.4 C 92 % 8.17 C
614 22-02-2019 03:05:00 9.4 C 91 % 8.01 C
615 22-02-2019 03:10:00 9.4 C 92 % 8.17 C
616 22-02-2019 03:15:00 9.4 C 92 % 8.17 C
617 22-02-2019 03:20:00 9.5 C 92 % 8.27 C
618 22-02-2019 03:25:00 9.5 C 92 % 8.27 C
619 22-02-2019 03:30:00 9.6 C 92 % 8.37 C
620 22-02-2019 03:35:00 9.6 C 93 % 8.53 C
621 22-02-2019 03:40:00 9.7 C 93 % 8.62 C
622 22-02-2019 03:45:00 9.7 C 92 % 8.46 C
623 22-02-2019 03:50:00 9.7 C 92 % 8.46 C
624 22-02-2019 03:55:00 9.7 C 92 % 8.46 C
625 22-02-2019 04:00:00 9.8 C 92 % 8.56 C
Sensor: Nr:Datum:Temp:Feuchte:Taupunkt:
Aussen-T/F 626 22-02-2019 04:05:00 9.8 C 92 % 8.56 C
627 22-02-2019 04:10:00 9.8 C 92 % 8.56 C
628 22-02-2019 04:15:00 9.8 C 93 % 8.72 C
629 22-02-2019 04:20:00 9.8 C 93 % 8.72 C
630 22-02-2019 04:25:00 9.7 C 93 % 8.62 C
631 22-02-2019 04:30:00 9.7 C 93 % 8.62 C
632 22-02-2019 04:35:00 9.6 C 93 % 8.53 C
633 22-02-2019 04:40:00 9.6 C 93 % 8.53 C
634 22-02-2019 04:45:00 9.5 C 93 % 8.43 C
635 22-02-2019 04:50:00 9.5 C 94 % 8.58 C
636 22-02-2019 04:55:00 9.4 C 94 % 8.48 C
637 22-02-2019 05:00:00 9.4 C 94 % 8.48 C
638 22-02-2019 05:05:00 9.4 C 94 % 8.48 C
639 22-02-2019 05:10:00 9.4 C 94 % 8.48 C
640 22-02-2019 05:15:00 9.4 C 94 % 8.48 C
641 22-02-2019 05:20:00 9.4 C 94 % 8.48 C
642 22-02-2019 05:25:00 9.3 C 94 % 8.39 C
643 22-02-2019 05:30:00 9.3 C 94 % 8.39 C
644 22-02-2019 05:35:00 9.3 C 94 % 8.39 C
645 22-02-2019 05:40:00 9.3 C 94 % 8.39 C
646 22-02-2019 05:45:00 9.3 C 95 % 8.54 C
647 22-02-2019 05:50:00 9.3 C 95 % 8.54 C
648 22-02-2019 05:55:00 9.3 C 95 % 8.54 C
649 22-02-2019 06:00:00 9.3 C 95 % 8.54 C
650 22-02-2019 06:05:00 9.3 C 95 % 8.54 C
Sensor: Nr:Datum:Temp:Feuchte:Taupunkt:
Aussen-T/F 651 22-02-2019 06:10:00 9.3 C 95 % 8.54 C
652 22-02-2019 06:15:00 9.4 C 95 % 8.64 C
653 22-02-2019 06:20:00 9.4 C 95 % 8.64 C
654 22-02-2019 06:25:00 9.4 C 95 % 8.64 C
655 22-02-2019 06:30:00 9.4 C 95 % 8.64 C
656 22-02-2019 06:35:00 9.4 C 95 % 8.64 C
657 22-02-2019 06:40:00 9.3 C 95 % 8.54 C
658 22-02-2019 06:45:00 9.3 C 95 % 8.54 C
659 22-02-2019 06:50:00 9.3 C 95 % 8.54 C
660 22-02-2019 06:55:00 9.3 C 95 % 8.54 C
661 22-02-2019 07:00:00 9.3 C 95 % 8.54 C
662 22-02-2019 07:05:00 9.3 C 95 % 8.54 C
663 22-02-2019 07:10:00 9.3 C 95 % 8.54 C
664 22-02-2019 07:15:00 9.2 C 95 % 8.44 C
665 22-02-2019 07:20:00 9.2 C 95 % 8.44 C
666 22-02-2019 07:25:00 9.2 C 95 % 8.44 C
667 22-02-2019 07:30:00 9.2 C 95 % 8.44 C
668 22-02-2019 07:35:00 9.2 C 96 % 8.6 C
669 22-02-2019 07:40:00 9.2 C 96 % 8.6 C
670 22-02-2019 07:45:00 9.2 C 96 % 8.6 C
671 22-02-2019 07:50:00 9.2 C 96 % 8.6 C
672 22-02-2019 07:55:00 9.2 C 96 % 8.6 C
673 22-02-2019 08:00:00 9.1 C 96 % 8.5 C
674 22-02-2019 08:05:00 9.1 C 96 % 8.5 C
675 22-02-2019 08:10:00 9.1 C 96 % 8.5 C
Sensor: Nr:Datum:Temp:Feuchte:Taupunkt:
Aussen-T/F 676 22-02-2019 08:15:00 9.1 C 96 % 8.5 C
677 22-02-2019 08:20:00 9.1 C 96 % 8.5 C
678 22-02-2019 08:25:00 9.1 C 96 % 8.5 C
679 22-02-2019 08:30:00 9.2 C 96 % 8.6 C
680 22-02-2019 08:35:00 9.2 C 96 % 8.6 C
681 22-02-2019 08:40:00 9.2 C 96 % 8.6 C
682 22-02-2019 08:45:00 9.2 C 96 % 8.6 C
683 22-02-2019 08:50:00 9.3 C 96 % 8.7 C
684 22-02-2019 08:55:00 9.3 C 96 % 8.7 C
685 22-02-2019 09:00:00 9.4 C 96 % 8.8 C
686 22-02-2019 09:05:00 9.4 C 96 % 8.8 C
687 22-02-2019 09:10:00 9.5 C 96 % 8.89 C
688 22-02-2019 09:15:00 9.5 C 96 % 8.89 C
689 22-02-2019 09:20:00 9.5 C 96 % 8.89 C
690 22-02-2019 09:25:00 9.5 C 96 % 8.89 C
691 22-02-2019 09:30:00 9.5 C 96 % 8.89 C
692 22-02-2019 09:35:00 9.5 C 96 % 8.89 C
693 22-02-2019 09:40:00 9.5 C 96 % 8.89 C
694 22-02-2019 09:45:00 9.6 C 96 % 8.99 C
695 22-02-2019 09:50:00 9.6 C 96 % 8.99 C
696 22-02-2019 09:55:00 9.6 C 96 % 8.99 C
697 22-02-2019 10:00:00 9.7 C 96 % 9.09 C
698 22-02-2019 10:05:00 9.7 C 96 % 9.09 C
699 22-02-2019 10:10:00 9.8 C 96 % 9.19 C
700 22-02-2019 10:15:00 9.8 C 96 % 9.19 C
Sensor: Nr:Datum:Temp:Feuchte:Taupunkt:
Aussen-T/F 701 22-02-2019 10:20:00 9.8 C 96 % 9.19 C
702 22-02-2019 10:25:00 9.9 C 96 % 9.29 C
703 22-02-2019 10:30:00 9.9 C 96 % 9.29 C
704 22-02-2019 10:35:00 10 C 96 % 9.39 C
705 22-02-2019 10:40:00 10.1 C 96 % 9.49 C
706 22-02-2019 10:45:00 10.1 C 96 % 9.49 C
707 22-02-2019 10:50:00 10.2 C 96 % 9.59 C
708 22-02-2019 10:55:00 10.2 C 96 % 9.59 C
709 22-02-2019 11:00:00 10.3 C 96 % 9.69 C
710 22-02-2019 11:05:00 10.3 C 96 % 9.69 C
711 22-02-2019 11:10:00 10.5 C 96 % 9.89 C
712 22-02-2019 11:15:00 10.6 C 96 % 9.99 C
713 22-02-2019 11:20:00 10.6 C 96 % 9.99 C
714 22-02-2019 11:25:00 10.6 C 95 % 9.83 C
715 22-02-2019 11:30:00 10.7 C 95 % 9.93 C
716 22-02-2019 11:35:00 10.7 C 95 % 9.93 C
717 22-02-2019 11:40:00 10.7 C 94 % 9.77 C
718 22-02-2019 11:45:00 10.8 C 93 % 9.71 C
719 22-02-2019 11:50:00 10.9 C 93 % 9.81 C
720 22-02-2019 11:55:00 11 C 93 % 9.91 C
721 22-02-2019 12:00:00 11.2 C 92 % 9.95 C
722 22-02-2019 12:05:00 11.2 C 91 % 9.79 C
723 22-02-2019 12:10:00 11.3 C 91 % 9.89 C
724 22-02-2019 12:15:00 11.4 C 89 % 9.65 C
725 22-02-2019 12:20:00 11.4 C 89 % 9.65 C
Sensor: Nr:Datum:Temp:Feuchte:Taupunkt:
Aussen-T/F 726 22-02-2019 12:25:00 11.6 C 88 % 9.68 C
727 22-02-2019 12:30:00 11.7 C 88 % 9.78 C
728 22-02-2019 12:35:00 11.8 C 87 % 9.71 C
729 22-02-2019 12:40:00 11.8 C 85 % 9.36 C
730 22-02-2019 12:45:00 11.9 C 85 % 9.46 C
731 22-02-2019 12:50:00 11.9 C 85 % 9.46 C
732 22-02-2019 12:55:00 12 C 85 % 9.56 C
733 22-02-2019 13:00:00 12.1 C 85 % 9.66 C
734 22-02-2019 13:05:00 12.1 C 84 % 9.48 C
735 22-02-2019 13:10:00 12.1 C 84 % 9.48 C
736 22-02-2019 13:15:00 12.1 C 84 % 9.48 C
737 22-02-2019 13:20:00 12.2 C 84 % 9.58 C
738 22-02-2019 13:25:00 12.5 C 82 % 9.51 C
739 22-02-2019 13:30:00 12.8 C 82 % 9.81 C
740 22-02-2019 13:35:00 12.8 C 80 % 9.44 C
741 22-02-2019 13:40:00 12.8 C 80 % 9.44 C
742 22-02-2019 13:45:00 12.8 C 80 % 9.44 C
743 22-02-2019 13:50:00 12.7 C 80 % 9.34 C
744 22-02-2019 13:55:00 12.6 C 80 % 9.25 C
745 22-02-2019 14:00:00 12.6 C 80 % 9.25 C
746 22-02-2019 14:05:00 12.6 C 80 % 9.25 C
747 22-02-2019 14:10:00 12.6 C 79 % 9.06 C
748 22-02-2019 14:15:00 12.7 C 79 % 9.16 C
749 22-02-2019 14:20:00 12.7 C 78 % 8.97 C
750 22-02-2019 14:25:00 12.8 C 78 % 9.06 C
Sensor: Nr:Datum:Temp:Feuchte:Taupunkt:
Aussen-T/F 751 22-02-2019 14:30:00 12.8 C 78 % 9.06 C
752 22-02-2019 14:35:00 12.9 C 79 % 9.35 C
753 22-02-2019 14:40:00 13 C 76 % 8.87 C
754 22-02-2019 14:45:00 13.1 C 76 % 8.97 C
755 22-02-2019 14:50:00 13.1 C 76 % 8.97 C
756 22-02-2019 14:55:00 13.1 C 76 % 8.97 C
757 22-02-2019 15:00:00 13.2 C 75 % 8.87 C
758 22-02-2019 15:05:00 13.3 C 76 % 9.16 C
759 22-02-2019 15:10:00 13.3 C 75 % 8.97 C
760 22-02-2019 15:15:00 13.4 C 74 % 8.87 C
761 22-02-2019 15:20:00 13.4 C 74 % 8.87 C
762 22-02-2019 15:25:00 13.4 C 73 % 8.66 C
763 22-02-2019 15:30:00 13.3 C 74 % 8.77 C
764 22-02-2019 15:35:00 13.3 C 74 % 8.77 C
765 22-02-2019 15:40:00 13.2 C 74 % 8.67 C
766 22-02-2019 15:45:00 13.2 C 74 % 8.67 C
767 22-02-2019 15:50:00 13.2 C 75 % 8.87 C
768 22-02-2019 15:55:00 13.1 C 74 % 8.58 C
769 22-02-2019 16:00:00 13.1 C 74 % 8.58 C
770 22-02-2019 16:05:00 13.1 C 75 % 8.77 C
771 22-02-2019 16:10:00 13.1 C 75 % 8.77 C
772 22-02-2019 16:15:00 12.9 C 74 % 8.38 C
773 22-02-2019 16:20:00 12.9 C 73 % 8.18 C
774 22-02-2019 16:25:00 12.8 C 73 % 8.09 C
775 22-02-2019 16:30:00 12.8 C 72 % 7.88 C
Sensor: Nr:Datum:Temp:Feuchte:Taupunkt:
Aussen-T/F 776 22-02-2019 16:35:00 12.7 C 72 % 7.79 C
777 22-02-2019 16:40:00 12.7 C 72 % 7.79 C
778 22-02-2019 16:45:00 12.7 C 74 % 8.19 C
779 22-02-2019 16:50:00 12.7 C 74 % 8.19 C
780 22-02-2019 16:55:00 12.6 C 73 % 7.89 C
781 22-02-2019 17:00:00 12.5 C 74 % 8 C
782 22-02-2019 17:05:00 12.4 C 74 % 7.9 C
783 22-02-2019 17:10:00 12.3 C 75 % 8 C
784 22-02-2019 17:15:00 12.2 C 73 % 7.51 C
785 22-02-2019 17:20:00 12.2 C 74 % 7.71 C
786 22-02-2019 17:25:00 12.1 C 76 % 8 C
787 22-02-2019 17:30:00 11.9 C 77 % 8 C
788 22-02-2019 17:35:00 11.7 C 77 % 7.81 C
789 22-02-2019 17:40:00 11.4 C 78 % 7.71 C
790 22-02-2019 17:45:00 11.3 C 78 % 7.61 C
791 22-02-2019 17:50:00 11.1 C 79 % 7.6 C
792 22-02-2019 17:55:00 10.8 C 79 % 7.31 C
793 22-02-2019 18:00:00 10.4 C 80 % 7.1 C
794 22-02-2019 18:05:00 10.1 C 80 % 6.81 C
795 22-02-2019 18:10:00 9.8 C 81 % 6.7 C
796 22-02-2019 18:15:00 9.4 C 82 % 6.49 C
797 22-02-2019 18:20:00 9.2 C 82 % 6.29 C
798 22-02-2019 18:25:00 9 C 83 % 6.27 C
799 22-02-2019 18:30:00 8.8 C 84 % 6.25 C
800 22-02-2019 18:35:00 8.7 C 84 % 6.15 C
Sensor: Nr:Datum:Temp:Feuchte:Taupunkt:
Aussen-T/F 801 22-02-2019 18:40:00 8.6 C 85 % 6.23 C
802 22-02-2019 18:45:00 8.4 C 85 % 6.03 C
803 22-02-2019 18:50:00 8.3 C 85 % 5.93 C
804 22-02-2019 18:55:00 8.2 C 86 % 6 C
805 22-02-2019 19:00:00 8.2 C 86 % 6 C
806 22-02-2019 19:05:00 8.3 C 86 % 6.1 C
807 22-02-2019 19:10:00 8.3 C 87 % 6.27 C
808 22-02-2019 19:15:00 8.4 C 87 % 6.37 C
809 22-02-2019 19:20:00 8.5 C 86 % 6.3 C
810 22-02-2019 19:25:00 8.6 C 86 % 6.39 C
811 22-02-2019 19:30:00 8.6 C 86 % 6.39 C
812 22-02-2019 19:35:00 8.6 C 86 % 6.39 C
813 22-02-2019 19:40:00 8.7 C 86 % 6.49 C
814 22-02-2019 19:45:00 8.7 C 86 % 6.49 C
815 22-02-2019 19:50:00 8.8 C 86 % 6.59 C
816 22-02-2019 19:55:00 8.9 C 86 % 6.69 C
817 22-02-2019 20:00:00 8.9 C 85 % 6.52 C
818 22-02-2019 20:05:00 9 C 85 % 6.62 C
819 22-02-2019 20:10:00 9 C 85 % 6.62 C
820 22-02-2019 20:15:00 9.1 C 85 % 6.72 C
821 22-02-2019 20:20:00 9.1 C 85 % 6.72 C
822 22-02-2019 20:25:00 9.1 C 85 % 6.72 C
823 22-02-2019 20:30:00 9.1 C 85 % 6.72 C
824 22-02-2019 20:35:00 9 C 85 % 6.62 C
825 22-02-2019 20:40:00 8.9 C 86 % 6.69 C
Sensor: Nr:Datum:Temp:Feuchte:Taupunkt:
Aussen-T/F 826 22-02-2019 20:45:00 8.9 C 86 % 6.69 C
827 22-02-2019 20:50:00 8.9 C 86 % 6.69 C
828 22-02-2019 20:55:00 8.9 C 86 % 6.69 C
829 22-02-2019 21:00:00 8.8 C 86 % 6.59 C
830 22-02-2019 21:05:00 8.8 C 86 % 6.59 C
831 22-02-2019 21:10:00 8.8 C 86 % 6.59 C
832 22-02-2019 21:15:00 8.8 C 86 % 6.59 C
833 22-02-2019 21:20:00 8.7 C 87 % 6.66 C
834 22-02-2019 21:25:00 8.7 C 86 % 6.49 C
835 22-02-2019 21:30:00 8.6 C 86 % 6.39 C
836 22-02-2019 21:35:00 8.4 C 86 % 6.2 C
837 22-02-2019 21:40:00 8.3 C 86 % 6.1 C
838 22-02-2019 21:45:00 8.1 C 86 % 5.9 C
839 22-02-2019 21:50:00 7.9 C 86 % 5.71 C
840 22-02-2019 21:55:00 7.8 C 87 % 5.78 C
841 22-02-2019 22:00:00 7.6 C 87 % 5.58 C
842 22-02-2019 22:05:00 7.4 C 88 % 5.55 C
843 22-02-2019 22:10:00 7.3 C 88 % 5.45 C
844 22-02-2019 22:15:00 7.2 C 88 % 5.35 C
845 22-02-2019 22:20:00 7.1 C 89 % 5.41 C
846 22-02-2019 22:25:00 7 C 89 % 5.31 C
847 22-02-2019 22:30:00 6.9 C 89 % 5.22 C
848 22-02-2019 22:35:00 6.8 C 89 % 5.12 C
849 22-02-2019 22:40:00 6.7 C 90 % 5.18 C
850 22-02-2019 22:45:00 6.6 C 90 % 5.08 C
Sensor: Nr:Datum:Temp:Feuchte:Taupunkt:
Aussen-T/F 851 22-02-2019 22:50:00 6.4 C 90 % 4.88 C
852 22-02-2019 22:55:00 6.3 C 90 % 4.78 C
853 22-02-2019 23:00:00 6.2 C 90 % 4.69 C
854 22-02-2019 23:05:00 6.1 C 91 % 4.74 C
855 22-02-2019 23:10:00 6.1 C 91 % 4.74 C
856 22-02-2019 23:15:00 6 C 91 % 4.65 C
857 22-02-2019 23:20:00 6 C 92 % 4.8 C
858 22-02-2019 23:25:00 5.9 C 92 % 4.7 C
859 22-02-2019 23:30:00 5.9 C 92 % 4.7 C
860 22-02-2019 23:35:00 5.9 C 92 % 4.7 C
861 22-02-2019 23:40:00 5.9 C 92 % 4.7 C
862 22-02-2019 23:45:00 5.9 C 92 % 4.7 C
863 22-02-2019 23:50:00 5.8 C 92 % 4.6 C
864 22-02-2019 23:55:00 5.7 C 92 % 4.5 C
865 23-02-2019 00:00:00 5.7 C 92 % 4.5 C
866 23-02-2019 00:05:00 5.7 C 92 % 4.5 C
867 23-02-2019 00:10:00 5.6 C 92 % 4.41 C
868 23-02-2019 00:15:00 5.4 C 92 % 4.21 C
869 23-02-2019 00:20:00 5.3 C 92 % 4.11 C
870 23-02-2019 00:25:00 5.3 C 92 % 4.11 C
871 23-02-2019 00:30:00 5.2 C 92 % 4.01 C
872 23-02-2019 00:35:00 5.2 C 92 % 4.01 C
873 23-02-2019 00:40:00 5.2 C 93 % 4.16 C
874 23-02-2019 00:45:00 5.1 C 93 % 4.06 C
875 23-02-2019 00:50:00 5.1 C 93 % 4.06 C
Sensor: Nr:Datum:Temp:Feuchte:Taupunkt:
Aussen-T/F 876 23-02-2019 00:55:00 5 C 93 % 3.96 C
877 23-02-2019 01:00:00 4.9 C 93 % 3.87 C
878 23-02-2019 01:05:00 4.8 C 93 % 3.77 C
879 23-02-2019 01:10:00 4.8 C 93 % 3.77 C
880 23-02-2019 01:15:00 4.7 C 93 % 3.67 C
881 23-02-2019 01:20:00 4.7 C 93 % 3.67 C
882 23-02-2019 01:25:00 4.6 C 93 % 3.57 C
883 23-02-2019 01:30:00 4.4 C 93 % 3.37 C
884 23-02-2019 01:35:00 4.4 C 93 % 3.37 C
885 23-02-2019 01:40:00 4.4 C 93 % 3.37 C
886 23-02-2019 01:45:00 4.3 C 94 % 3.42 C
887 23-02-2019 01:50:00 4.3 C 94 % 3.42 C
888 23-02-2019 01:55:00 4.3 C 94 % 3.42 C
889 23-02-2019 02:00:00 4.3 C 94 % 3.42 C
890 23-02-2019 02:05:00 4.3 C 94 % 3.42 C
891 23-02-2019 02:10:00 4.4 C 94 % 3.52 C
892 23-02-2019 02:15:00 4.4 C 94 % 3.52 C
893 23-02-2019 02:20:00 4.3 C 94 % 3.42 C
894 23-02-2019 02:25:00 4.3 C 94 % 3.42 C
895 23-02-2019 02:30:00 4.2 C 94 % 3.32 C
896 23-02-2019 02:35:00 4.1 C 94 % 3.22 C
897 23-02-2019 02:40:00 4 C 94 % 3.12 C
898 23-02-2019 02:45:00 4 C 94 % 3.12 C
899 23-02-2019 02:50:00 4 C 94 % 3.12 C
900 23-02-2019 02:55:00 3.9 C 94 % 3.02 C
Sensor: Nr:Datum:Temp:Feuchte:Taupunkt:
Aussen-T/F 901 23-02-2019 03:00:00 3.8 C 94 % 2.93 C
902 23-02-2019 03:05:00 3.8 C 95 % 3.07 C
903 23-02-2019 03:10:00 3.8 C 95 % 3.07 C
904 23-02-2019 03:15:00 3.8 C 95 % 3.07 C
905 23-02-2019 03:20:00 3.9 C 95 % 3.17 C
906 23-02-2019 03:25:00 3.8 C 95 % 3.07 C
907 23-02-2019 03:30:00 3.7 C 95 % 2.98 C
908 23-02-2019 03:35:00 3.7 C 95 % 2.98 C
909 23-02-2019 03:40:00 3.8 C 95 % 3.07 C
910 23-02-2019 03:45:00 3.8 C 95 % 3.07 C
911 23-02-2019 03:50:00 3.9 C 95 % 3.17 C
912 23-02-2019 03:55:00 4 C 95 % 3.27 C
913 23-02-2019 04:00:00 4.1 C 95 % 3.37 C
914 23-02-2019 04:05:00 4.2 C 95 % 3.47 C
915 23-02-2019 04:10:00 4.2 C 95 % 3.47 C
916 23-02-2019 04:15:00 4.3 C 95 % 3.57 C
917 23-02-2019 04:20:00 4.3 C 95 % 3.57 C
918 23-02-2019 04:25:00 4.3 C 95 % 3.57 C
919 23-02-2019 04:30:00 4.4 C 95 % 3.67 C
920 23-02-2019 04:35:00 4.3 C 95 % 3.57 C
921 23-02-2019 04:40:00 4.3 C 95 % 3.57 C
922 23-02-2019 04:45:00 4.3 C 95 % 3.57 C
923 23-02-2019 04:50:00 4.3 C 95 % 3.57 C
924 23-02-2019 04:55:00 4.2 C 95 % 3.47 C
925 23-02-2019 05:00:00 4.2 C 95 % 3.47 C
Sensor: Nr:Datum:Temp:Feuchte:Taupunkt:
Aussen-T/F 926 23-02-2019 05:05:00 4.2 C 95 % 3.47 C
927 23-02-2019 05:10:00 4.3 C 95 % 3.57 C
928 23-02-2019 05:15:00 4.3 C 95 % 3.57 C
929 23-02-2019 05:20:00 4.5 C 94 % 3.62 C
930 23-02-2019 05:25:00 4.6 C 94 % 3.72 C
931 23-02-2019 05:30:00 4.6 C 93 % 3.57 C
932 23-02-2019 05:35:00 4.7 C 93 % 3.67 C
933 23-02-2019 05:40:00 4.7 C 93 % 3.67 C
934 23-02-2019 05:45:00 4.7 C 92 % 3.51 C
935 23-02-2019 05:50:00 4.7 C 92 % 3.51 C
936 23-02-2019 05:55:00 4.8 C 91 % 3.46 C
937 23-02-2019 06:00:00 4.8 C 91 % 3.46 C
938 23-02-2019 06:05:00 4.8 C 91 % 3.46 C
939 23-02-2019 06:10:00 4.9 C 90 % 3.4 C
940 23-02-2019 06:15:00 4.8 C 91 % 3.46 C
941 23-02-2019 06:20:00 4.8 C 91 % 3.46 C
942 23-02-2019 06:25:00 4.8 C 89 % 3.14 C
943 23-02-2019 06:30:00 4.8 C 89 % 3.14 C
944 23-02-2019 06:35:00 4.8 C 89 % 3.14 C
945 23-02-2019 06:40:00 4.9 C 89 % 3.24 C
946 23-02-2019 06:45:00 4.9 C 90 % 3.4 C
947 23-02-2019 06:50:00 4.9 C 89 % 3.24 C
948 23-02-2019 06:55:00 4.8 C 89 % 3.14 C
949 23-02-2019 07:00:00 4.8 C 88 % 2.99 C
950 23-02-2019 07:05:00 4.8 C 88 % 2.99 C
Sensor: Nr:Datum:Temp:Feuchte:Taupunkt:
Aussen-T/F 951 23-02-2019 07:10:00 4.8 C 88 % 2.99 C
952 23-02-2019 07:15:00 4.7 C 87 % 2.73 C
953 23-02-2019 07:20:00 4.8 C 87 % 2.82 C
954 23-02-2019 07:25:00 4.8 C 87 % 2.82 C
955 23-02-2019 07:30:00 4.8 C 87 % 2.82 C
956 23-02-2019 07:35:00 4.8 C 86 % 2.66 C
957 23-02-2019 07:40:00 4.8 C 86 % 2.66 C
958 23-02-2019 07:45:00 4.8 C 87 % 2.82 C
959 23-02-2019 07:50:00 4.8 C 86 % 2.66 C
960 23-02-2019 07:55:00 4.8 C 86 % 2.66 C
961 23-02-2019 08:00:00 4.8 C 86 % 2.66 C
962 23-02-2019 08:05:00 4.8 C 87 % 2.82 C
963 23-02-2019 08:10:00 4.8 C 86 % 2.66 C
964 23-02-2019 08:15:00 4.8 C 85 % 2.5 C
965 23-02-2019 08:20:00 4.8 C 85 % 2.5 C
966 23-02-2019 08:25:00 4.8 C 85 % 2.5 C
967 23-02-2019 08:30:00 4.9 C 85 % 2.6 C
968 23-02-2019 08:35:00 4.9 C 85 % 2.6 C
969 23-02-2019 08:40:00 4.9 C 84 % 2.43 C
970 23-02-2019 08:45:00 4.9 C 84 % 2.43 C
971 23-02-2019 08:50:00 4.9 C 84 % 2.43 C
972 23-02-2019 08:55:00 4.9 C 84 % 2.43 C
973 23-02-2019 09:00:00 4.9 C 84 % 2.43 C
974 23-02-2019 09:05:00 4.9 C 83 % 2.26 C
975 23-02-2019 09:10:00 4.8 C 83 % 2.16 C
Sensor: Nr:Datum:Temp:Feuchte:Taupunkt:
Aussen-T/F 976 23-02-2019 09:15:00 4.8 C 83 % 2.16 C
977 23-02-2019 09:20:00 4.8 C 84 % 2.33 C
978 23-02-2019 09:25:00 4.8 C 84 % 2.33 C
979 23-02-2019 09:30:00 4.8 C 84 % 2.33 C
980 23-02-2019 09:35:00 4.7 C 84 % 2.23 C
981 23-02-2019 09:40:00 4.7 C 83 % 2.07 C
982 23-02-2019 09:45:00 4.7 C 83 % 2.07 C
983 23-02-2019 09:50:00 4.7 C 83 % 2.07 C
984 23-02-2019 09:55:00 4.7 C 83 % 2.07 C
985 23-02-2019 10:00:00 4.7 C 83 % 2.07 C
986 23-02-2019 10:05:00 4.7 C 83 % 2.07 C
987 23-02-2019 10:10:00 4.7 C 83 % 2.07 C
988 23-02-2019 10:15:00 4.8 C 83 % 2.16 C
989 23-02-2019 10:20:00 4.8 C 82 % 1.99 C
990 23-02-2019 10:25:00 4.8 C 82 % 1.99 C
991 23-02-2019 10:30:00 4.9 C 82 % 2.09 C
992 23-02-2019 10:35:00 5 C 81 % 2.02 C
993 23-02-2019 10:40:00 5.1 C 81 % 2.12 C
994 23-02-2019 10:45:00 5.2 C 81 % 2.21 C
995 23-02-2019 10:50:00 5.3 C 81 % 2.31 C
996 23-02-2019 10:55:00 5.4 C 80 % 2.23 C
997 23-02-2019 11:00:00 5.4 C 81 % 2.41 C
998 23-02-2019 11:05:00 5.6 C 81 % 2.6 C
999 23-02-2019 11:10:00 5.7 C 80 % 2.53 C
1000 23-02-2019 11:15:00 5.8 C 80 % 2.62 C
Sensor: Nr:Datum:Temp:Feuchte:Taupunkt:
Aussen-T/F 1001 23-02-2019 11:20:00 5.9 C 80 % 2.72 C
1002 23-02-2019 11:25:00 6.1 C 80 % 2.92 C
1003 23-02-2019 11:30:00 6.2 C 79 % 2.84 C
1004 23-02-2019 11:35:00 6.3 C 79 % 2.93 C
1005 23-02-2019 11:40:00 6.4 C 78 % 2.85 C
1006 23-02-2019 11:45:00 6.6 C 77 % 2.86 C
1007 23-02-2019 11:50:00 6.7 C 77 % 2.96 C
1008 23-02-2019 11:55:00 6.8 C 76 % 2.87 C
1009 23-02-2019 12:00:00 6.9 C 76 % 2.97 C
1010 23-02-2019 12:05:00 7.1 C 75 % 2.98 C
1011 23-02-2019 12:10:00 7.2 C 74 % 2.89 C
1012 23-02-2019 12:15:00 7.3 C 74 % 2.98 C
1013 23-02-2019 12:20:00 7.5 C 73 % 2.98 C
1014 23-02-2019 12:25:00 7.7 C 72 % 2.98 C
1015 23-02-2019 12:30:00 7.8 C 71 % 2.88 C
1016 23-02-2019 12:35:00 7.8 C 71 % 2.88 C
1017 23-02-2019 12:40:00 7.9 C 70 % 2.78 C
1018 23-02-2019 12:45:00 8 C 71 % 3.07 C
1019 23-02-2019 12:50:00 8.1 C 70 % 2.97 C
1020 23-02-2019 12:55:00 8.2 C 71 % 3.26 C
1021 23-02-2019 13:00:00 8.3 C 69 % 2.96 C
1022 23-02-2019 13:05:00 8.4 C 68 % 2.85 C
1023 23-02-2019 13:10:00 8.4 C 69 % 3.05 C
1024 23-02-2019 13:15:00 8.7 C 68 % 3.13 C
1025 23-02-2019 13:20:00 8.9 C 68 % 3.32 C
Sensor: Nr:Datum:Temp:Feuchte:Taupunkt:
Aussen-T/F 1026 23-02-2019 13:25:00 9.1 C 67 % 3.31 C
1027 23-02-2019 13:30:00 9.3 C 66 % 3.28 C
1028 23-02-2019 13:35:00 9.3 C 66 % 3.28 C
1029 23-02-2019 13:40:00 9.4 C 67 % 3.59 C
1030 23-02-2019 13:45:00 9.6 C 65 % 3.35 C
1031 23-02-2019 13:50:00 9.6 C 65 % 3.35 C
1032 23-02-2019 13:55:00 9.7 C 64 % 3.23 C
1033 23-02-2019 14:00:00 9.7 C 64 % 3.23 C
1034 23-02-2019 14:05:00 9.7 C 63 % 3.01 C
1035 23-02-2019 14:10:00 9.7 C 64 % 3.23 C
1036 23-02-2019 14:15:00 9.8 C 63 % 3.1 C
1037 23-02-2019 14:20:00 9.8 C 62 % 2.88 C
1038 23-02-2019 14:25:00 9.9 C 62 % 2.97 C
1039 23-02-2019 14:30:00 10 C 61 % 2.84 C
1040 23-02-2019 14:35:00 10.1 C 60 % 2.7 C
1041 23-02-2019 14:40:00 10.2 C 59 % 2.56 C
1042 23-02-2019 14:45:00 10.3 C 54 % 1.41 C
1043 23-02-2019 14:50:00 10.4 C 52 % 0.98 C
1044 23-02-2019 14:55:00 10.6 C 49 % 0.35 C
1045 23-02-2019 15:00:00 10.6 C 47 % -0.23 C
1046 23-02-2019 15:05:00 10.7 C 46 % -0.43 C
1047 23-02-2019 15:10:00 10.8 C 48 % 0.24 C
1048 23-02-2019 15:15:00 10.8 C 46 % -0.34 C
1049 23-02-2019 15:20:00 10.8 C 46 % -0.34 C
1050 23-02-2019 15:25:00 10.8 C 46 % -0.34 C
Sensor: Nr:Datum:Temp:Feuchte:Taupunkt:
Aussen-T/F 1051 23-02-2019 15:30:00 10.8 C 45 % -0.64 C
1052 23-02-2019 15:35:00 10.8 C 42 % -1.58 C
1053 23-02-2019 15:40:00 10.8 C 42 % -1.58 C
1054 23-02-2019 15:45:00 10.8 C 43 % -1.26 C
1055 23-02-2019 15:50:00 10.8 C 42 % -1.58 C
1056 23-02-2019 15:55:00 10.9 C 44 % -0.86 C
1057 23-02-2019 16:00:00 10.9 C 43 % -1.17 C
1058 23-02-2019 16:05:00 10.9 C 43 % -1.17 C
1059 23-02-2019 16:10:00 11.1 C 46 % -0.07 C
1060 23-02-2019 16:15:00 11.1 C 52 % 1.63 C
1061 23-02-2019 16:20:00 11 C 43 % -1.08 C
1062 23-02-2019 16:25:00 10.9 C 42 % -1.49 C
1063 23-02-2019 16:30:00 10.8 C 44 % -0.95 C
1064 23-02-2019 16:35:00 10.8 C 47 % -0.04 C
1065 23-02-2019 16:40:00 10.6 C 46 % -0.52 C
1066 23-02-2019 16:45:00 10.4 C 52 % 0.98 C
1067 23-02-2019 16:50:00 10.2 C 53 % 1.06 C
1068 23-02-2019 16:55:00 9.9 C 54 % 1.04 C
1069 23-02-2019 17:00:00 9.6 C 56 % 1.27 C
1070 23-02-2019 17:05:00 9.3 C 59 % 1.71 C
1071 23-02-2019 17:10:00 8.9 C 61 % 1.8 C
1072 23-02-2019 17:15:00 8.7 C 62 % 1.84 C
1073 23-02-2019 17:20:00 8.3 C 62 % 1.46 C
1074 23-02-2019 17:25:00 8 C 64 % 1.62 C
1075 23-02-2019 17:30:00 7.8 C 64 % 1.43 C
Sensor: Nr:Datum:Temp:Feuchte:Taupunkt:
Aussen-T/F 1076 23-02-2019 17:35:00 7.5 C 65 % 1.36 C
1077 23-02-2019 17:40:00 7.3 C 65 % 1.17 C
1078 23-02-2019 17:45:00 7.1 C 66 % 1.19 C
1079 23-02-2019 17:50:00 6.8 C 67 % 1.11 C
1080 23-02-2019 17:55:00 6.6 C 67 % 0.92 C
1081 23-02-2019 18:00:00 6.4 C 69 % 1.14 C
1082 23-02-2019 18:05:00 6.2 C 70 % 1.15 C
1083 23-02-2019 18:10:00 5.9 C 70 % 0.86 C
1084 23-02-2019 18:15:00 5.7 C 70 % 0.67 C
1085 23-02-2019 18:20:00 5.6 C 71 % 0.77 C
1086 23-02-2019 18:25:00 5.4 C 71 % 0.58 C
1087 23-02-2019 18:30:00 5.3 C 71 % 0.48 C
1088 23-02-2019 18:35:00 5.2 C 71 % 0.38 C
1089 23-02-2019 18:40:00 5.1 C 72 % 0.48 C
1090 23-02-2019 18:45:00 5 C 72 % 0.38 C
1091 23-02-2019 18:50:00 4.9 C 72 % 0.29 C
1092 23-02-2019 18:55:00 4.8 C 72 % 0.19 C
1093 23-02-2019 19:00:00 4.7 C 73 % 0.28 C
1094 23-02-2019 19:05:00 4.7 C 73 % 0.28 C
1095 23-02-2019 19:10:00 4.6 C 73 % 0.19 C
1096 23-02-2019 19:15:00 4.6 C 74 % 0.38 C
1097 23-02-2019 19:20:00 4.5 C 74 % 0.28 C
1098 23-02-2019 19:25:00 4.4 C 73 % 0 C
1099 23-02-2019 19:30:00 4.3 C 74 % 0.09 C
1100 23-02-2019 19:35:00 4.3 C 75 % 0.27 C
Sensor: Nr:Datum:Temp:Feuchte:Taupunkt:
Aussen-T/F 1101 23-02-2019 19:40:00 4.2 C 75 % 0.17 C
1102 23-02-2019 19:45:00 4.1 C 74 % -0.11 C
1103 23-02-2019 19:50:00 4.1 C 75 % 0.08 C
1104 23-02-2019 19:55:00 3.9 C 75 % -0.12 C
1105 23-02-2019 20:00:00 3.9 C 75 % -0.12 C
1106 23-02-2019 20:05:00 3.8 C 75 % -0.21 C
1107 23-02-2019 20:10:00 3.7 C 75 % -0.31 C
1108 23-02-2019 20:15:00 3.7 C 75 % -0.31 C
1109 23-02-2019 20:20:00 3.6 C 75 % -0.41 C
1110 23-02-2019 20:25:00 3.5 C 76 % -0.32 C
1111 23-02-2019 20:30:00 3.4 C 76 % -0.42 C
1112 23-02-2019 20:35:00 3.3 C 77 % -0.34 C
1113 23-02-2019 20:40:00 3.2 C 77 % -0.43 C
1114 23-02-2019 20:45:00 3 C 77 % -0.63 C
1115 23-02-2019 20:50:00 2.8 C 77 % -0.82 C
1116 23-02-2019 20:55:00 2.7 C 78 % -0.74 C
1117 23-02-2019 21:00:00 2.6 C 78 % -0.84 C
1118 23-02-2019 21:05:00 2.4 C 79 % -0.86 C
1119 23-02-2019 21:10:00 2.3 C 78 % -1.13 C
1120 23-02-2019 21:15:00 2.2 C 78 % -1.23 C
1121 23-02-2019 21:20:00 2.2 C 79 % -1.05 C
1122 23-02-2019 21:25:00 2.1 C 79 % -1.15 C
1123 23-02-2019 21:30:00 2.1 C 80 % -0.98 C
1124 23-02-2019 21:35:00 2 C 79 % -1.25 C
1125 23-02-2019 21:40:00 1.8 C 80 % -1.27 C
Sensor: Nr:Datum:Temp:Feuchte:Taupunkt:
Aussen-T/F 1126 23-02-2019 21:45:00 1.7 C 80 % -1.37 C
1127 23-02-2019 21:50:00 1.6 C 81 % -1.3 C
1128 23-02-2019 21:55:00 1.4 C 81 % -1.49 C
1129 23-02-2019 22:00:00 1.3 C 81 % -1.59 C
1130 23-02-2019 22:05:00 1.2 C 82 % -1.52 C
1131 23-02-2019 22:10:00 1.2 C 82 % -1.52 C
1132 23-02-2019 22:15:00 1.1 C 83 % -1.46 C
1133 23-02-2019 22:20:00 1.1 C 84 % -1.29 C
1134 23-02-2019 22:25:00 1.1 C 84 % -1.29 C
1135 23-02-2019 22:30:00 1.1 C 83 % -1.46 C
1136 23-02-2019 22:35:00 0.9 C 83 % -1.65 C
1137 23-02-2019 22:40:00 0.8 C 83 % -1.75 C
1138 23-02-2019 22:45:00 0.7 C 83 % -1.85 C
1139 23-02-2019 22:50:00 0.7 C 83 % -1.85 C
1140 23-02-2019 22:55:00 0.6 C 83 % -1.95 C
1141 23-02-2019 23:00:00 0.6 C 84 % -1.78 C
1142 23-02-2019 23:05:00 0.6 C 84 % -1.78 C
1143 23-02-2019 23:10:00 0.5 C 83 % -2.04 C
1144 23-02-2019 23:15:00 0.4 C 83 % -2.14 C
1145 23-02-2019 23:20:00 0.4 C 84 % -1.98 C
1146 23-02-2019 23:25:00 0.5 C 83 % -2.04 C
1147 23-02-2019 23:30:00 0.4 C 83 % -2.14 C
1148 23-02-2019 23:35:00 0.5 C 83 % -2.04 C
1149 23-02-2019 23:40:00 0.4 C 83 % -2.14 C
1150 23-02-2019 23:45:00 0.4 C 84 % -1.98 C
Sensor: Nr:Datum:Temp:Feuchte:Taupunkt:
Aussen-T/F 1151 23-02-2019 23:50:00 0.4 C 84 % -1.98 C
1152 23-02-2019 23:55:00 0.4 C 84 % -1.98 C
1153 24-02-2019 00:00:00 0.2 C 84 % -2.18 C
1154 24-02-2019 00:05:00 0.1 C 84 % -2.27 C
1155 24-02-2019 00:10:00 -0.1 C 84 % -2.47 C
1156 24-02-2019 00:15:00 -0.2 C 85 % -2.41 C
1157 24-02-2019 00:20:00 -0.3 C 85 % -2.51 C
1158 24-02-2019 00:25:00 -0.3 C 85 % -2.51 C
1159 24-02-2019 00:30:00 -0.3 C 86 % -2.35 C
1160 24-02-2019 00:35:00 -0.3 C 86 % -2.35 C
1161 24-02-2019 00:40:00 -0.4 C 86 % -2.45 C
1162 24-02-2019 00:45:00 -0.4 C 86 % -2.45 C
1163 24-02-2019 00:50:00 -0.5 C 87 % -2.39 C
1164 24-02-2019 00:55:00 -0.6 C 87 % -2.49 C
1165 24-02-2019 01:00:00 -0.6 C 87 % -2.49 C
1166 24-02-2019 01:05:00 -0.6 C 87 % -2.49 C
1167 24-02-2019 01:10:00 -0.6 C 87 % -2.49 C
1168 24-02-2019 01:15:00 -0.6 C 87 % -2.49 C
1169 24-02-2019 01:20:00 -0.6 C 87 % -2.49 C
1170 24-02-2019 01:25:00 -0.6 C 87 % -2.49 C
1171 24-02-2019 01:30:00 -0.7 C 87 % -2.59 C
1172 24-02-2019 01:35:00 -0.7 C 87 % -2.59 C
1173 24-02-2019 01:40:00 -0.7 C 87 % -2.59 C
1174 24-02-2019 01:45:00 -0.7 C 87 % -2.59 C
1175 24-02-2019 01:50:00 -0.8 C 87 % -2.69 C
Sensor: Nr:Datum:Temp:Feuchte:Taupunkt:
Aussen-T/F 1176 24-02-2019 01:55:00 -0.8 C 87 % -2.69 C
1177 24-02-2019 02:00:00 -0.9 C 87 % -2.79 C
1178 24-02-2019 02:05:00 -1 C 87 % -2.88 C
1179 24-02-2019 02:10:00 -1.1 C 88 % -2.83 C
1180 24-02-2019 02:15:00 -1.1 C 88 % -2.83 C
1181 24-02-2019 02:20:00 -1.1 C 88 % -2.83 C
1182 24-02-2019 02:25:00 -1.2 C 88 % -2.93 C
1183 24-02-2019 02:30:00 -1.2 C 88 % -2.93 C
1184 24-02-2019 02:35:00 -1.2 C 88 % -2.93 C
1185 24-02-2019 02:40:00 -1.3 C 88 % -3.03 C
1186 24-02-2019 02:45:00 -1.3 C 88 % -3.03 C
1187 24-02-2019 02:50:00 -1.3 C 88 % -3.03 C
1188 24-02-2019 02:55:00 -1.3 C 89 % -2.88 C
1189 24-02-2019 03:00:00 -1.3 C 89 % -2.88 C
1190 24-02-2019 03:05:00 -1.4 C 89 % -2.97 C
1191 24-02-2019 03:10:00 -1.4 C 89 % -2.97 C
1192 24-02-2019 03:15:00 -1.4 C 89 % -2.97 C
1193 24-02-2019 03:20:00 -1.4 C 89 % -2.97 C
1194 24-02-2019 03:25:00 -1.5 C 89 % -3.07 C
1195 24-02-2019 03:30:00 -1.5 C 89 % -3.07 C
1196 24-02-2019 03:35:00 -1.6 C 89 % -3.17 C
1197 24-02-2019 03:40:00 -1.6 C 89 % -3.17 C
1198 24-02-2019 03:45:00 -1.6 C 89 % -3.17 C
1199 24-02-2019 03:50:00 -1.6 C 90 % -3.02 C
1200 24-02-2019 03:55:00 -1.7 C 90 % -3.12 C
Sensor: Nr:Datum:Temp:Feuchte:Taupunkt:
Aussen-T/F 1201 24-02-2019 04:00:00 -1.7 C 90 % -3.12 C
1202 24-02-2019 04:05:00 -1.7 C 90 % -3.12 C
1203 24-02-2019 04:10:00 -1.7 C 90 % -3.12 C
1204 24-02-2019 04:15:00 -1.6 C 90 % -3.02 C
1205 24-02-2019 04:20:00 -1.7 C 90 % -3.12 C
1206 24-02-2019 04:25:00 -1.7 C 90 % -3.12 C
1207 24-02-2019 04:30:00 -1.7 C 90 % -3.12 C
1208 24-02-2019 04:35:00 -1.8 C 90 % -3.22 C
1209 24-02-2019 04:40:00 -1.8 C 90 % -3.22 C
1210 24-02-2019 04:45:00 -1.8 C 90 % -3.22 C
1211 24-02-2019 04:50:00 -1.8 C 90 % -3.22 C
1212 24-02-2019 04:55:00 -1.8 C 90 % -3.22 C
1213 24-02-2019 05:00:00 -1.8 C 90 % -3.22 C
1214 24-02-2019 05:05:00 -1.8 C 90 % -3.22 C
1215 24-02-2019 05:10:00 -1.8 C 90 % -3.22 C
1216 24-02-2019 05:15:00 -1.8 C 90 % -3.22 C
1217 24-02-2019 05:20:00 -1.8 C 90 % -3.22 C
1218 24-02-2019 05:25:00 -1.9 C 90 % -3.32 C
1219 24-02-2019 05:30:00 -1.9 C 90 % -3.32 C
1220 24-02-2019 05:35:00 -1.9 C 90 % -3.32 C
1221 24-02-2019 05:40:00 -2 C 90 % -3.42 C
1222 24-02-2019 05:45:00 -2 C 90 % -3.42 C
1223 24-02-2019 05:50:00 -1.9 C 90 % -3.32 C
1224 24-02-2019 05:55:00 -1.9 C 90 % -3.32 C
1225 24-02-2019 06:00:00 -1.9 C 90 % -3.32 C
Sensor: Nr:Datum:Temp:Feuchte:Taupunkt:
Aussen-T/F 1226 24-02-2019 06:05:00 -1.9 C 90 % -3.32 C
1227 24-02-2019 06:10:00 -2 C 90 % -3.42 C
1228 24-02-2019 06:15:00 -2 C 90 % -3.42 C
1229 24-02-2019 06:20:00 -2.1 C 90 % -3.52 C
1230 24-02-2019 06:25:00 -2.1 C 90 % -3.52 C
1231 24-02-2019 06:30:00 -2.1 C 91 % -3.37 C
1232 24-02-2019 06:35:00 -2.1 C 91 % -3.37 C
1233 24-02-2019 06:40:00 -2.1 C 91 % -3.37 C
1234 24-02-2019 06:45:00 -2.1 C 91 % -3.37 C
1235 24-02-2019 06:50:00 -2.2 C 91 % -3.47 C
1236 24-02-2019 06:55:00 -2.2 C 91 % -3.47 C
1237 24-02-2019 07:00:00 -2.2 C 91 % -3.47 C
1238 24-02-2019 07:05:00 -2.3 C 91 % -3.57 C
1239 24-02-2019 07:10:00 -2.3 C 91 % -3.57 C
1240 24-02-2019 07:15:00 -2.3 C 91 % -3.57 C
1241 24-02-2019 07:20:00 -2.4 C 91 % -3.66 C
1242 24-02-2019 07:25:00 -2.4 C 91 % -3.66 C
1243 24-02-2019 07:30:00 -2.4 C 91 % -3.66 C
1244 24-02-2019 07:35:00 -2.4 C 91 % -3.66 C
1245 24-02-2019 07:40:00 -2.4 C 91 % -3.66 C
1246 24-02-2019 07:45:00 -2.4 C 92 % -3.52 C
1247 24-02-2019 07:50:00 -2.4 C 92 % -3.52 C
1248 24-02-2019 07:55:00 -2.4 C 92 % -3.52 C
1249 24-02-2019 08:00:00 -2.3 C 92 % -3.42 C
1250 24-02-2019 08:05:00 -2.3 C 92 % -3.42 C
Sensor: Nr:Datum:Temp:Feuchte:Taupunkt:
Aussen-T/F 1251 24-02-2019 08:10:00 -2.2 C 92 % -3.32 C
1252 24-02-2019 08:15:00 -2.2 C 92 % -3.32 C
1253 24-02-2019 08:20:00 -2.2 C 92 % -3.32 C
1254 24-02-2019 08:25:00 -2.1 C 92 % -3.22 C
1255 24-02-2019 08:30:00 -2.1 C 92 % -3.22 C
1256 24-02-2019 08:35:00 -2 C 92 % -3.12 C
1257 24-02-2019 08:40:00 -2 C 92 % -3.12 C
1258 24-02-2019 08:45:00 -2 C 92 % -3.12 C
1259 24-02-2019 08:50:00 -2 C 92 % -3.12 C
1260 24-02-2019 08:55:00 -1.9 C 92 % -3.02 C
1261 24-02-2019 09:00:00 -1.9 C 92 % -3.02 C
1262 24-02-2019 09:05:00 -1.8 C 92 % -2.92 C
1263 24-02-2019 09:10:00 -1.8 C 92 % -2.92 C
1264 24-02-2019 09:15:00 -1.7 C 92 % -2.83 C
1265 24-02-2019 09:20:00 -1.6 C 92 % -2.73 C
1266 24-02-2019 09:25:00 -1.6 C 92 % -2.73 C
1267 24-02-2019 09:30:00 -1.5 C 92 % -2.63 C
1268 24-02-2019 09:35:00 -1.4 C 92 % -2.53 C
1269 24-02-2019 09:40:00 -1.3 C 92 % -2.43 C
1270 24-02-2019 09:45:00 -1.2 C 92 % -2.33 C
1271 24-02-2019 09:50:00 -1.1 C 92 % -2.23 C
1272 24-02-2019 09:55:00 -1 C 91 % -2.28 C
1273 24-02-2019 10:00:00 -0.9 C 91 % -2.18 C
1274 24-02-2019 10:05:00 -0.8 C 91 % -2.08 C
1275 24-02-2019 10:10:00 -0.6 C 90 % -2.03 C
Sensor: Nr:Datum:Temp:Feuchte:Taupunkt:
Aussen-T/F 1276 24-02-2019 10:15:00 -0.4 C 90 % -1.84 C
1277 24-02-2019 10:20:00 -0.2 C 90 % -1.64 C
1278 24-02-2019 10:25:00 0 C 89 % -1.59 C
1279 24-02-2019 10:30:00 0.3 C 89 % -1.29 C
1280 24-02-2019 10:35:00 0.7 C 88 % -1.05 C
1281 24-02-2019 10:40:00 1 C 88 % -0.76 C
1282 24-02-2019 10:45:00 1.4 C 87 % -0.52 C
1283 24-02-2019 10:50:00 1.7 C 86 % -0.38 C
1284 24-02-2019 10:55:00 2.2 C 85 % -0.05 C
1285 24-02-2019 11:00:00 2.6 C 83 % 0.01 C
1286 24-02-2019 11:05:00 2.9 C 82 % 0.14 C
1287 24-02-2019 11:10:00 3.2 C 82 % 0.43 C
1288 24-02-2019 11:15:00 3.4 C 81 % 0.46 C
1289 24-02-2019 11:20:00 3.7 C 80 % 0.58 C
1290 24-02-2019 11:25:00 3.9 C 79 % 0.6 C
1291 24-02-2019 11:30:00 4.2 C 76 % 0.36 C
1292 24-02-2019 11:35:00 4.6 C 75 % 0.56 C
1293 24-02-2019 11:40:00 4.8 C 76 % 0.94 C
1294 24-02-2019 11:45:00 5.1 C 74 % 0.86 C
1295 24-02-2019 11:50:00 5.3 C 74 % 1.05 C
1296 24-02-2019 11:55:00 5.4 C 73 % 0.96 C
1297 24-02-2019 12:00:00 5.6 C 73 % 1.15 C
1298 24-02-2019 12:05:00 5.7 C 72 % 1.06 C
1299 24-02-2019 12:10:00 5.9 C 72 % 1.25 C
1300 24-02-2019 12:15:00 6.3 C 70 % 1.24 C
Sensor: Nr:Datum:Temp:Feuchte:Taupunkt:
Aussen-T/F 1301 24-02-2019 12:20:00 6.6 C 69 % 1.33 C
1302 24-02-2019 12:25:00 6.9 C 68 % 1.41 C
1303 24-02-2019 12:30:00 7.4 C 67 % 1.69 C
1304 24-02-2019 12:35:00 8.1 C 66 % 2.14 C
1305 24-02-2019 12:40:00 8.6 C 63 % 1.97 C
1306 24-02-2019 12:45:00 8.8 C 58 % 1 C
1307 24-02-2019 12:50:00 9.1 C 58 % 1.29 C
1308 24-02-2019 12:55:00 9.2 C 57 % 1.14 C
1309 24-02-2019 13:00:00 9.2 C 55 % 0.64 C
1310 24-02-2019 13:05:00 9.3 C 49 % -0.85 C
1311 24-02-2019 13:10:00 9.4 C 48 % -1.04 C
1312 24-02-2019 13:15:00 9.7 C 46 % -1.34 C
1313 24-02-2019 13:20:00 9.9 C 42 % -2.39 C
1314 24-02-2019 13:25:00 10.3 C 45 % -1.1 C
1315 24-02-2019 13:30:00 10.6 C 44 % -1.13 C
1316 24-02-2019 13:35:00 10.9 C 44 % -0.86 C
1317 24-02-2019 13:40:00 11.2 C 40 % -1.88 C
1318 24-02-2019 13:45:00 11.4 C 40 % -1.7 C
1319 24-02-2019 13:50:00 11.7 C 40 % -1.43 C
1320 24-02-2019 13:55:00 11.9 C 37 % -2.31 C
1321 24-02-2019 14:00:00 11.9 C 35 % -3.05 C
1322 24-02-2019 14:05:00 11.9 C 36 % -2.68 C
1323 24-02-2019 14:10:00 11.9 C 36 % -2.68 C
1324 24-02-2019 14:15:00 11.9 C 36 % -2.68 C
1325 24-02-2019 14:20:00 11.9 C 38 % -1.95 C
Sensor: Nr:Datum:Temp:Feuchte:Taupunkt:
Aussen-T/F 1326 24-02-2019 14:25:00 11.8 C 37 % -2.4 C
1327 24-02-2019 14:30:00 11.8 C 37 % -2.4 C
1328 24-02-2019 14:35:00 11.8 C 38 % -2.04 C
1329 24-02-2019 14:40:00 11.8 C 40 % -1.34 C
1330 24-02-2019 14:45:00 11.9 C 36 % -2.68 C
1331 24-02-2019 14:50:00 12 C 35 % -2.97 C
1332 24-02-2019 14:55:00 12.1 C 34 % -3.27 C
1333 24-02-2019 15:00:00 12.2 C 36 % -2.41 C
1334 24-02-2019 15:05:00 12.3 C 35 % -2.7 C
1335 24-02-2019 15:10:00 12.4 C 35 % -2.61 C
1336 24-02-2019 15:15:00 12.4 C 35 % -2.61 C
1337 24-02-2019 15:20:00 12.5 C 34 % -2.91 C
1338 24-02-2019 15:25:00 12.6 C 36 % -2.06 C
1339 24-02-2019 15:30:00 12.6 C 39 % -0.97 C
1340 24-02-2019 15:35:00 12.6 C 44 % 0.69 C
1341 24-02-2019 15:40:00 12.4 C 42 % -0.14 C
1342 24-02-2019 15:45:00 12.4 C 44 % 0.5 C
1343 24-02-2019 15:50:00 12.3 C 44 % 0.41 C
1344 24-02-2019 15:55:00 12.3 C 44 % 0.41 C
1345 24-02-2019 16:00:00 12.3 C 45 % 0.72 C
1346 24-02-2019 16:05:00 12.2 C 46 % 0.94 C
1347 24-02-2019 16:10:00 12.3 C 41 % -0.56 C
1348 24-02-2019 16:15:00 12.4 C 44 % 0.5 C
1349 24-02-2019 16:20:00 12.3 C 45 % 0.72 C
1350 24-02-2019 16:25:00 12.2 C 44 % 0.32 C
Sensor: Nr:Datum:Temp:Feuchte:Taupunkt:
Aussen-T/F 1351 24-02-2019 16:30:00 11.9 C 46 % 0.66 C
1352 24-02-2019 16:35:00 11.6 C 47 % 0.69 C
1353 24-02-2019 16:40:00 11.3 C 48 % 0.7 C
1354 24-02-2019 16:45:00 11.2 C 50 % 1.18 C
1355 24-02-2019 16:50:00 11.1 C 51 % 1.36 C
1356 24-02-2019 16:55:00 10.9 C 51 % 1.17 C
1357 24-02-2019 17:00:00 10.8 C 52 % 1.35 C
1358 24-02-2019 17:05:00 10.7 C 52 % 1.26 C
1359 24-02-2019 17:10:00 10.7 C 52 % 1.26 C
1360 24-02-2019 17:15:00 10.5 C 52 % 1.07 C
1361 24-02-2019 17:20:00 10.4 C 52 % 0.98 C
1362 24-02-2019 17:25:00 10.3 C 52 % 0.89 C
1363 24-02-2019 17:30:00 10.3 C 52 % 0.89 C
1364 24-02-2019 17:35:00 10.3 C 52 % 0.89 C
1365 24-02-2019 17:40:00 10.2 C 53 % 1.06 C
1366 24-02-2019 17:45:00 10 C 53 % 0.87 C
1367 24-02-2019 17:50:00 9.8 C 53 % 0.69 C
1368 24-02-2019 17:55:00 9.6 C 54 % 0.76 C
1369 24-02-2019 18:00:00 9.3 C 55 % 0.74 C
1370 24-02-2019 18:05:00 9.1 C 56 % 0.8 C
1371 24-02-2019 18:10:00 8.8 C 56 % 0.52 C
1372 24-02-2019 18:15:00 8.7 C 56 % 0.43 C
1373 24-02-2019 18:20:00 8.6 C 56 % 0.33 C
1374 24-02-2019 18:25:00 8.4 C 56 % 0.15 C
1375 24-02-2019 18:30:00 8.4 C 57 % 0.39 C
Sensor: Nr:Datum:Temp:Feuchte:Taupunkt:
Aussen-T/F 1376 24-02-2019 18:35:00 8.3 C 56 % 0.05 C
1377 24-02-2019 18:40:00 8.2 C 57 % 0.2 C
1378 24-02-2019 18:45:00 8 C 58 % 0.25 C
1379 24-02-2019 18:50:00 7.8 C 59 % 0.3 C
1380 24-02-2019 18:55:00 7.7 C 58 % -0.03 C
1381 24-02-2019 19:00:00 7.6 C 59 % 0.11 C
1382 24-02-2019 19:05:00 7.4 C 59 % -0.07 C
1383 24-02-2019 19:10:00 7.2 C 60 % -0.03 C
1384 24-02-2019 19:15:00 7.2 C 60 % -0.03 C
1385 24-02-2019 19:20:00 7.1 C 59 % -0.36 C
1386 24-02-2019 19:25:00 7 C 62 % 0.23 C
1387 24-02-2019 19:30:00 6.8 C 61 % -0.18 C
1388 24-02-2019 19:35:00 6.7 C 61 % -0.28 C
1389 24-02-2019 19:40:00 6.6 C 62 % -0.15 C
1390 24-02-2019 19:45:00 6.4 C 62 % -0.34 C
1391 24-02-2019 19:50:00 6.3 C 64 % 0 C
1392 24-02-2019 19:55:00 6.1 C 64 % -0.19 C
1393 24-02-2019 20:00:00 5.9 C 62 % -0.81 C
1394 24-02-2019 20:05:00 5.8 C 65 % -0.26 C
1395 24-02-2019 20:10:00 5.7 C 64 % -0.56 C
1396 24-02-2019 20:15:00 5.5 C 64 % -0.75 C
1397 24-02-2019 20:20:00 5.2 C 65 % -0.83 C
1398 24-02-2019 20:25:00 4.9 C 67 % -0.7 C
1399 24-02-2019 20:30:00 4.6 C 69 % -0.58 C
1400 24-02-2019 20:35:00 4.4 C 68 % -0.98 C
Sensor: Nr:Datum:Temp:Feuchte:Taupunkt:
Aussen-T/F 1401 24-02-2019 20:40:00 4.3 C 67 % -1.27 C
1402 24-02-2019 20:45:00 4.4 C 68 % -0.98 C
1403 24-02-2019 20:50:00 4.3 C 68 % -1.07 C
1404 24-02-2019 20:55:00 4.2 C 70 % -0.77 C
1405 24-02-2019 21:00:00 4.1 C 71 % -0.67 C
1406 24-02-2019 21:05:00 3.9 C 70 % -1.06 C
1407 24-02-2019 21:10:00 3.8 C 71 % -0.96 C
1408 24-02-2019 21:15:00 3.7 C 71 % -1.06 C
1409 24-02-2019 21:20:00 3.7 C 71 % -1.06 C
1410 24-02-2019 21:25:00 3.5 C 72 % -1.06 C
1411 24-02-2019 21:30:00 3.3 C 71 % -1.44 C
1412 24-02-2019 21:35:00 3.1 C 72 % -1.45 C
1413 24-02-2019 21:40:00 2.9 C 73 % -1.45 C
1414 24-02-2019 21:45:00 2.8 C 73 % -1.55 C
1415 24-02-2019 21:50:00 2.8 C 72 % -1.73 C
1416 24-02-2019 21:55:00 2.8 C 71 % -1.92 C
1417 24-02-2019 22:00:00 2.8 C 71 % -1.92 C
1418 24-02-2019 22:05:00 2.8 C 74 % -1.36 C
1419 24-02-2019 22:10:00 2.6 C 76 % -1.19 C
1420 24-02-2019 22:15:00 2.5 C 77 % -1.11 C
1421 24-02-2019 22:20:00 2.4 C 76 % -1.39 C
1422 24-02-2019 22:25:00 2.4 C 76 % -1.39 C
1423 24-02-2019 22:30:00 2.4 C 74 % -1.75 C
1424 24-02-2019 22:35:00 2.5 C 74 % -1.65 C
1425 24-02-2019 22:40:00 2.6 C 74 % -1.56 C
Sensor: Nr:Datum:Temp:Feuchte:Taupunkt:
Aussen-T/F 1426 24-02-2019 22:45:00 2.6 C 74 % -1.56 C
1427 24-02-2019 22:50:00 2.5 C 74 % -1.65 C
1428 24-02-2019 22:55:00 2.4 C 74 % -1.75 C
1429 24-02-2019 23:00:00 2.2 C 75 % -1.76 C
1430 24-02-2019 23:05:00 2.1 C 76 % -1.68 C
1431 24-02-2019 23:10:00 1.9 C 77 % -1.69 C
1432 24-02-2019 23:15:00 1.7 C 78 % -1.71 C
1433 24-02-2019 23:20:00 1.6 C 79 % -1.64 C
1434 24-02-2019 23:25:00 1.5 C 79 % -1.74 C
1435 24-02-2019 23:30:00 1.6 C 78 % -1.81 C
1436 24-02-2019 23:35:00 1.7 C 77 % -1.89 C
1437 24-02-2019 23:40:00 1.8 C 77 % -1.79 C
1438 24-02-2019 23:45:00 1.8 C 77 % -1.79 C
1439 24-02-2019 23:50:00 1.9 C 77 % -1.69 C
1440 24-02-2019 23:55:00 2 C 76 % -1.77 C
1441 25-02-2019 00:00:00 1.8 C 76 % -1.97 C
1442 25-02-2019 00:05:00 1.8 C 77 % -1.79 C
1443 25-02-2019 00:10:00 1.7 C 77 % -1.89 C
1444 25-02-2019 00:15:00 1.4 C 77 % -2.18 C
1445 25-02-2019 00:20:00 1.3 C 78 % -2.1 C
1446 25-02-2019 00:25:00 1.2 C 79 % -2.03 C
1447 25-02-2019 00:30:00 1.1 C 80 % -1.96 C
1448 25-02-2019 00:35:00 0.9 C 80 % -2.15 C
1449 25-02-2019 00:40:00 0.8 C 80 % -2.25 C
1450 25-02-2019 00:45:00 0.7 C 81 % -2.18 C
Sensor: Nr:Datum:Temp:Feuchte:Taupunkt:
Aussen-T/F 1451 25-02-2019 00:50:00 0.7 C 81 % -2.18 C
1452 25-02-2019 00:55:00 0.7 C 81 % -2.18 C
1453 25-02-2019 01:00:00 1 C 81 % -1.88 C
1454 25-02-2019 01:05:00 1.2 C 80 % -1.86 C
1455 25-02-2019 01:10:00 1.3 C 80 % -1.76 C
1456 25-02-2019 01:15:00 1.1 C 80 % -1.96 C
1457 25-02-2019 01:20:00 0.9 C 81 % -1.98 C
1458 25-02-2019 01:25:00 0.9 C 81 % -1.98 C
1459 25-02-2019 01:30:00 0.9 C 81 % -1.98 C
1460 25-02-2019 01:35:00 1 C 81 % -1.88 C
1461 25-02-2019 01:40:00 0.9 C 81 % -1.98 C
1462 25-02-2019 01:45:00 0.7 C 81 % -2.18 C
1463 25-02-2019 01:50:00 0.6 C 82 % -2.11 C
1464 25-02-2019 01:55:00 0.6 C 83 % -1.95 C
1465 25-02-2019 02:00:00 0.7 C 83 % -1.85 C
1466 25-02-2019 02:05:00 0.6 C 82 % -2.11 C
1467 25-02-2019 02:10:00 0.4 C 82 % -2.3 C
1468 25-02-2019 02:15:00 0.3 C 83 % -2.24 C
1469 25-02-2019 02:20:00 0.2 C 83 % -2.34 C
1470 25-02-2019 02:25:00 0 C 83 % -2.53 C
1471 25-02-2019 02:30:00 -0.1 C 84 % -2.47 C
1472 25-02-2019 02:35:00 -0.1 C 84 % -2.47 C
1473 25-02-2019 02:40:00 -0.2 C 85 % -2.41 C
1474 25-02-2019 02:45:00 -0.2 C 85 % -2.41 C
1475 25-02-2019 02:50:00 -0.1 C 85 % -2.31 C
Sensor: Nr:Datum:Temp:Feuchte:Taupunkt:
Aussen-T/F 1476 25-02-2019 02:55:00 0.1 C 85 % -2.11 C
1477 25-02-2019 03:00:00 0.2 C 84 % -2.18 C
1478 25-02-2019 03:05:00 0.3 C 84 % -2.08 C
1479 25-02-2019 03:10:00 0.3 C 84 % -2.08 C
1480 25-02-2019 03:15:00 0.3 C 83 % -2.24 C
1481 25-02-2019 03:20:00 0.2 C 83 % -2.34 C
1482 25-02-2019 03:25:00 0.1 C 83 % -2.44 C
1483 25-02-2019 03:30:00 -0.1 C 83 % -2.63 C
1484 25-02-2019 03:35:00 -0.2 C 84 % -2.57 C
1485 25-02-2019 03:40:00 -0.2 C 85 % -2.41 C
1486 25-02-2019 03:45:00 -0.3 C 85 % -2.51 C
1487 25-02-2019 03:50:00 -0.3 C 85 % -2.51 C
1488 25-02-2019 03:55:00 -0.4 C 85 % -2.61 C
1489 25-02-2019 04:00:00 -0.5 C 85 % -2.71 C
1490 25-02-2019 04:05:00 -0.5 C 86 % -2.55 C
1491 25-02-2019 04:10:00 -0.5 C 86 % -2.55 C
1492 25-02-2019 04:15:00 -0.5 C 86 % -2.55 C
1493 25-02-2019 04:20:00 -0.6 C 86 % -2.65 C
1494 25-02-2019 04:25:00 -0.6 C 86 % -2.65 C
1495 25-02-2019 04:30:00 -0.6 C 86 % -2.65 C
1496 25-02-2019 04:35:00 -0.6 C 86 % -2.65 C
1497 25-02-2019 04:40:00 -0.6 C 86 % -2.65 C
1498 25-02-2019 04:45:00 -0.7 C 86 % -2.74 C
1499 25-02-2019 04:50:00 -0.7 C 87 % -2.59 C
1500 25-02-2019 04:55:00 -0.6 C 87 % -2.49 C
Sensor: Nr:Datum:Temp:Feuchte:Taupunkt:
Aussen-T/F 1501 25-02-2019 05:00:00 -0.6 C 87 % -2.49 C
1502 25-02-2019 05:05:00 -0.6 C 87 % -2.49 C
1503 25-02-2019 05:10:00 -0.6 C 87 % -2.49 C
1504 25-02-2019 05:15:00 -0.6 C 87 % -2.49 C
1505 25-02-2019 05:20:00 -0.7 C 87 % -2.59 C
1506 25-02-2019 05:25:00 -0.8 C 87 % -2.69 C
1507 25-02-2019 05:30:00 -0.8 C 87 % -2.69 C
1508 25-02-2019 05:35:00 -0.8 C 87 % -2.69 C
1509 25-02-2019 05:40:00 -0.9 C 87 % -2.79 C
1510 25-02-2019 05:45:00 -0.8 C 88 % -2.53 C
1511 25-02-2019 05:50:00 -0.7 C 88 % -2.44 C
1512 25-02-2019 05:55:00 -0.6 C 88 % -2.34 C
1513 25-02-2019 06:00:00 -0.6 C 88 % -2.34 C
1514 25-02-2019 06:05:00 -0.6 C 87 % -2.49 C
1515 25-02-2019 06:10:00 -0.7 C 87 % -2.59 C
1516 25-02-2019 06:15:00 -0.8 C 87 % -2.69 C
1517 25-02-2019 06:20:00 -0.8 C 88 % -2.53 C
1518 25-02-2019 06:25:00 -0.8 C 88 % -2.53 C
1519 25-02-2019 06:30:00 -0.9 C 88 % -2.63 C
1520 25-02-2019 06:35:00 -1 C 88 % -2.73 C
1521 25-02-2019 06:40:00 -1.1 C 88 % -2.83 C
1522 25-02-2019 06:45:00 -1.1 C 88 % -2.83 C
1523 25-02-2019 06:50:00 -1.1 C 89 % -2.68 C
1524 25-02-2019 06:55:00 -0.9 C 89 % -2.48 C
1525 25-02-2019 07:00:00 -0.9 C 88 % -2.63 C
Sensor: Nr:Datum:Temp:Feuchte:Taupunkt:
Aussen-T/F 1526 25-02-2019 07:05:00 -1 C 88 % -2.73 C
1527 25-02-2019 07:10:00 -1.1 C 88 % -2.83 C
1528 25-02-2019 07:15:00 -1.1 C 88 % -2.83 C
1529 25-02-2019 07:20:00 -1.2 C 88 % -2.93 C
1530 25-02-2019 07:25:00 -1.2 C 88 % -2.93 C
1531 25-02-2019 07:30:00 -1.3 C 88 % -3.03 C
1532 25-02-2019 07:35:00 -1.3 C 88 % -3.03 C
1533 25-02-2019 07:40:00 -1.3 C 88 % -3.03 C
1534 25-02-2019 07:45:00 -1.4 C 88 % -3.13 C
1535 25-02-2019 07:50:00 -1.4 C 89 % -2.97 C
1536 25-02-2019 07:55:00 -1.4 C 89 % -2.97 C
1537 25-02-2019 08:00:00 -1.4 C 89 % -2.97 C
1538 25-02-2019 08:05:00 -1.3 C 90 % -2.73 C
1539 25-02-2019 08:10:00 -1.2 C 90 % -2.63 C
1540 25-02-2019 08:15:00 -1.2 C 90 % -2.63 C
1541 25-02-2019 08:20:00 -1.2 C 89 % -2.78 C
1542 25-02-2019 08:25:00 -1.3 C 89 % -2.88 C
1543 25-02-2019 08:30:00 -1.2 C 90 % -2.63 C
1544 25-02-2019 08:35:00 -1.2 C 90 % -2.63 C
1545 25-02-2019 08:40:00 -1.1 C 90 % -2.53 C
1546 25-02-2019 08:45:00 -1.1 C 90 % -2.53 C
1547 25-02-2019 08:50:00 -1.1 C 90 % -2.53 C
1548 25-02-2019 08:55:00 -1.1 C 90 % -2.53 C
1549 25-02-2019 09:00:00 -0.9 C 90 % -2.33 C
1550 25-02-2019 09:05:00 -0.9 C 89 % -2.48 C
Sensor: Nr:Datum:Temp:Feuchte:Taupunkt:
Aussen-T/F 1551 25-02-2019 09:10:00 -0.9 C 89 % -2.48 C
1552 25-02-2019 09:15:00 -0.9 C 89 % -2.48 C
1553 25-02-2019 09:20:00 -0.8 C 89 % -2.38 C
1554 25-02-2019 09:25:00 -0.8 C 89 % -2.38 C
1555 25-02-2019 09:30:00 -0.7 C 89 % -2.28 C
1556 25-02-2019 09:35:00 -0.6 C 89 % -2.18 C
1557 25-02-2019 09:40:00 -0.6 C 89 % -2.18 C
1558 25-02-2019 09:45:00 -0.5 C 88 % -2.24 C
1559 25-02-2019 09:50:00 -0.4 C 88 % -2.14 C
1560 25-02-2019 09:55:00 -0.3 C 88 % -2.04 C
1561 25-02-2019 10:00:00 -0.3 C 88 % -2.04 C
1562 25-02-2019 10:05:00 -0.2 C 88 % -1.94 C
1563 25-02-2019 10:10:00 0 C 88 % -1.74 C
1564 25-02-2019 10:15:00 0.1 C 87 % -1.8 C
1565 25-02-2019 10:20:00 0.3 C 87 % -1.6 C
1566 25-02-2019 10:25:00 0.5 C 87 % -1.41 C
1567 25-02-2019 10:30:00 0.7 C 88 % -1.05 C
1568 25-02-2019 10:35:00 1 C 87 % -0.91 C
1569 25-02-2019 10:40:00 1.3 C 87 % -0.62 C
1570 25-02-2019 10:45:00 1.7 C 87 % -0.23 C
1571 25-02-2019 10:50:00 2.1 C 86 % 0.01 C
1572 25-02-2019 10:55:00 2.6 C 85 % 0.34 C
1573 25-02-2019 11:00:00 2.9 C 82 % 0.14 C
1574 25-02-2019 11:05:00 3.3 C 81 % 0.36 C
1575 25-02-2019 11:10:00 3.7 C 82 % 0.92 C
Sensor: Nr:Datum:Temp:Feuchte:Taupunkt:
Aussen-T/F 1576 25-02-2019 11:15:00 3.9 C 79 % 0.6 C
1577 25-02-2019 11:20:00 4.3 C 78 % 0.81 C
1578 25-02-2019 11:25:00 4.6 C 77 % 0.92 C
1579 25-02-2019 11:30:00 4.9 C 78 % 1.39 C
1580 25-02-2019 11:35:00 5.1 C 77 % 1.41 C
1581 25-02-2019 11:40:00 5.4 C 77 % 1.7 C
1582 25-02-2019 11:45:00 5.8 C 76 % 1.91 C
1583 25-02-2019 11:50:00 6 C 74 % 1.73 C
1584 25-02-2019 11:55:00 6.2 C 72 % 1.54 C
1585 25-02-2019 12:00:00 6.5 C 72 % 1.83 C
1586 25-02-2019 12:05:00 6.8 C 72 % 2.12 C
1587 25-02-2019 12:10:00 7.3 C 71 % 2.4 C
1588 25-02-2019 12:15:00 7.7 C 70 % 2.58 C
1589 25-02-2019 12:20:00 8.1 C 69 % 2.77 C
1590 25-02-2019 12:25:00 8.4 C 69 % 3.05 C
1591 25-02-2019 12:30:00 8.9 C 68 % 3.32 C
1592 25-02-2019 12:35:00 9.5 C 66 % 3.47 C
1593 25-02-2019 12:40:00 9.9 C 64 % 3.42 C
1594 25-02-2019 12:45:00 10.3 C 62 % 3.35 C
1595 25-02-2019 12:50:00 10.5 C 62 % 3.54 C
1596 25-02-2019 12:55:00 10.6 C 61 % 3.4 C
1597 25-02-2019 13:00:00 10.7 C 61 % 3.5 C
1598 25-02-2019 13:05:00 11 C 62 % 4.01 C
1599 25-02-2019 13:10:00 11.3 C 60 % 3.83 C
1600 25-02-2019 13:15:00 11.6 C 53 % 2.36 C
Sensor: Nr:Datum:Temp:Feuchte:Taupunkt:
Aussen-T/F 1601 25-02-2019 13:20:00 11.9 C 54 % 2.9 C
1602 25-02-2019 13:25:00 12.3 C 47 % 1.33 C
1603 25-02-2019 13:30:00 12.7 C 51 % 2.84 C
1604 25-02-2019 13:35:00 13.1 C 50 % 2.93 C
1605 25-02-2019 13:40:00 13.4 C 53 % 4.03 C
1606 25-02-2019 13:45:00 13.8 C 51 % 3.85 C
1607 25-02-2019 13:50:00 14.2 C 50 % 3.94 C
1608 25-02-2019 13:55:00 14.6 C 48 % 3.73 C
1609 25-02-2019 14:00:00 14.8 C 49 % 4.2 C
1610 25-02-2019 14:05:00 14.9 C 48 % 4 C
1611 25-02-2019 14:10:00 15 C 49 % 4.39 C
1612 25-02-2019 14:15:00 15.1 C 48 % 4.18 C
1613 25-02-2019 14:20:00 15 C 45 % 3.18 C
1614 25-02-2019 14:25:00 14.9 C 45 % 3.09 C
1615 25-02-2019 14:30:00 14.7 C 46 % 3.22 C
1616 25-02-2019 14:35:00 14.6 C 46 % 3.12 C
1617 25-02-2019 14:40:00 14.4 C 44 % 2.32 C
1618 25-02-2019 14:45:00 14.4 C 46 % 2.94 C
1619 25-02-2019 14:50:00 14.5 C 46 % 3.03 C
1620 25-02-2019 14:55:00 14.6 C 48 % 3.73 C
1621 25-02-2019 15:00:00 14.5 C 48 % 3.63 C
1622 25-02-2019 15:05:00 14.5 C 46 % 3.03 C
1623 25-02-2019 15:10:00 14.5 C 47 % 3.34 C
1624 25-02-2019 15:15:00 14.4 C 50 % 4.12 C
1625 25-02-2019 15:20:00 14.4 C 47 % 3.25 C
Sensor: Nr:Datum:Temp:Feuchte:Taupunkt:
Aussen-T/F 1626 25-02-2019 15:25:00 14.3 C 49 % 3.74 C
1627 25-02-2019 15:30:00 14.2 C 50 % 3.94 C
1628 25-02-2019 15:35:00 14 C 51 % 4.04 C
1629 25-02-2019 15:40:00 13.9 C 52 % 4.22 C
1630 25-02-2019 15:45:00 13.8 C 52 % 4.13 C
1631 25-02-2019 15:50:00 13.8 C 52 % 4.13 C
1632 25-02-2019 15:55:00 13.8 C 51 % 3.85 C
1633 25-02-2019 16:00:00 13.9 C 51 % 3.94 C
1634 25-02-2019 16:05:00 13.9 C 51 % 3.94 C
1635 25-02-2019 16:10:00 14.1 C 51 % 4.13 C
1636 25-02-2019 16:15:00 14.1 C 46 % 2.67 C
1637 25-02-2019 16:20:00 14.3 C 51 % 4.31 C
1638 25-02-2019 16:25:00 14.5 C 48 % 3.63 C
1639 25-02-2019 16:30:00 14.7 C 50 % 4.4 C
1640 25-02-2019 16:35:00 14.7 C 50 % 4.4 C
1641 25-02-2019 16:40:00 14.6 C 48 % 3.73 C
1642 25-02-2019 16:45:00 14.6 C 49 % 4.02 C
1643 25-02-2019 16:50:00 14.6 C 50 % 4.31 C
1644 25-02-2019 16:55:00 14.5 C 50 % 4.21 C
1645 25-02-2019 17:00:00 14.4 C 51 % 4.4 C
1646 25-02-2019 17:05:00 14.2 C 51 % 4.22 C
1647 25-02-2019 17:10:00 14.1 C 52 % 4.4 C
1648 25-02-2019 17:15:00 13.9 C 52 % 4.22 C
1649 25-02-2019 17:20:00 13.7 C 53 % 4.31 C
1650 25-02-2019 17:25:00 13.6 C 53 % 4.21 C
Sensor: Nr:Datum:Temp:Feuchte:Taupunkt:
Aussen-T/F 1651 25-02-2019 17:30:00 13.6 C 54 % 4.48 C
1652 25-02-2019 17:35:00 13.6 C 53 % 4.21 C
1653 25-02-2019 17:40:00 13.4 C 53 % 4.03 C
1654 25-02-2019 17:45:00 13.3 C 54 % 4.2 C
1655 25-02-2019 17:50:00 13.1 C 54 % 4.01 C
1656 25-02-2019 17:55:00 12.8 C 55 % 4 C
1657 25-02-2019 18:00:00 12.6 C 56 % 4.07 C
1658 25-02-2019 18:05:00 12.2 C 56 % 3.69 C
1659 25-02-2019 18:10:00 11.8 C 58 % 3.82 C
1660 25-02-2019 18:15:00 11.4 C 58 % 3.44 C
1661 25-02-2019 18:20:00 11.2 C 59 % 3.5 C
1662 25-02-2019 18:25:00 11 C 60 % 3.55 C
1663 25-02-2019 18:30:00 10.8 C 60 % 3.36 C
1664 25-02-2019 18:35:00 10.7 C 61 % 3.5 C
1665 25-02-2019 18:40:00 10.6 C 62 % 3.63 C
1666 25-02-2019 18:45:00 10.4 C 62 % 3.44 C
1667 25-02-2019 18:50:00 10.3 C 63 % 3.58 C
1668 25-02-2019 18:55:00 10.2 C 63 % 3.48 C
1669 25-02-2019 19:00:00 10 C 63 % 3.29 C
1670 25-02-2019 19:05:00 9.8 C 64 % 3.32 C
1671 25-02-2019 19:10:00 9.6 C 65 % 3.35 C
1672 25-02-2019 19:15:00 9.4 C 66 % 3.38 C
1673 25-02-2019 19:20:00 9.2 C 67 % 3.4 C
1674 25-02-2019 19:25:00 8.9 C 68 % 3.32 C
1675 25-02-2019 19:30:00 8.8 C 68 % 3.23 C
Sensor: Nr:Datum:Temp:Feuchte:Taupunkt:
Aussen-T/F 1676 25-02-2019 19:35:00 8.8 C 68 % 3.23 C
1677 25-02-2019 19:40:00 8.8 C 68 % 3.23 C
1678 25-02-2019 19:45:00 8.7 C 68 % 3.13 C
1679 25-02-2019 19:50:00 8.6 C 68 % 3.04 C
1680 25-02-2019 19:55:00 8.3 C 69 % 2.96 C
1681 25-02-2019 20:00:00 8.1 C 70 % 2.97 C
1682 25-02-2019 20:05:00 8 C 71 % 3.07 C
1683 25-02-2019 20:10:00 7.8 C 71 % 2.88 C
1684 25-02-2019 20:15:00 7.4 C 72 % 2.69 C
1685 25-02-2019 20:20:00 7.1 C 72 % 2.4 C
1686 25-02-2019 20:25:00 6.9 C 73 % 2.4 C
1687 25-02-2019 20:30:00 6.8 C 74 % 2.5 C
1688 25-02-2019 20:35:00 6.8 C 75 % 2.69 C
1689 25-02-2019 20:40:00 6.6 C 74 % 2.31 C
1690 25-02-2019 20:45:00 6.4 C 74 % 2.11 C
1691 25-02-2019 20:50:00 6.3 C 74 % 2.02 C
1692 25-02-2019 20:55:00 6.3 C 75 % 2.2 C
1693 25-02-2019 21:00:00 6.3 C 75 % 2.2 C
1694 25-02-2019 21:05:00 6.1 C 75 % 2.01 C
1695 25-02-2019 21:10:00 5.9 C 75 % 1.82 C
1696 25-02-2019 21:15:00 5.9 C 75 % 1.82 C
1697 25-02-2019 21:20:00 5.8 C 75 % 1.72 C
1698 25-02-2019 21:25:00 5.6 C 76 % 1.71 C
1699 25-02-2019 21:30:00 5.4 C 77 % 1.7 C
1700 25-02-2019 21:35:00 5.3 C 77 % 1.6 C
Sensor: Nr:Datum:Temp:Feuchte:Taupunkt:
Aussen-T/F 1701 25-02-2019 21:40:00 5.2 C 78 % 1.69 C
1702 25-02-2019 21:45:00 5.2 C 78 % 1.69 C
1703 25-02-2019 21:50:00 5.1 C 79 % 1.77 C
1704 25-02-2019 21:55:00 5.1 C 79 % 1.77 C
1705 25-02-2019 22:00:00 5 C 79 % 1.67 C
1706 25-02-2019 22:05:00 5 C 78 % 1.49 C
1707 25-02-2019 22:10:00 4.9 C 78 % 1.39 C
1708 25-02-2019 22:15:00 4.8 C 79 % 1.47 C
1709 25-02-2019 22:20:00 4.8 C 79 % 1.47 C
1710 25-02-2019 22:25:00 4.7 C 79 % 1.38 C
1711 25-02-2019 22:30:00 4.5 C 79 % 1.18 C
1712 25-02-2019 22:35:00 4.4 C 80 % 1.26 C
1713 25-02-2019 22:40:00 4.2 C 80 % 1.07 C
1714 25-02-2019 22:45:00 4.2 C 80 % 1.07 C
1715 25-02-2019 22:50:00 4.1 C 80 % 0.97 C
1716 25-02-2019 22:55:00 4 C 82 % 1.21 C
1717 25-02-2019 23:00:00 3.9 C 82 % 1.12 C
1718 25-02-2019 23:05:00 3.8 C 83 % 1.19 C
1719 25-02-2019 23:10:00 3.8 C 83 % 1.19 C
1720 25-02-2019 23:15:00 3.7 C 82 % 0.92 C
1721 25-02-2019 23:20:00 3.4 C 82 % 0.63 C
1722 25-02-2019 23:25:00 3.2 C 83 % 0.6 C
1723 25-02-2019 23:30:00 3.1 C 84 % 0.67 C
1724 25-02-2019 23:35:00 3 C 84 % 0.57 C
1725 25-02-2019 23:40:00 2.8 C 84 % 0.37 C
Sensor: Nr:Datum:Temp:Feuchte:Taupunkt:
Aussen-T/F 1726 25-02-2019 23:45:00 2.7 C 85 % 0.44 C
1727 25-02-2019 23:50:00 2.8 C 86 % 0.7 C
1728 25-02-2019 23:55:00 2.8 C 85 % 0.54 C
1729 26-02-2019 00:00:00 2.7 C 85 % 0.44 C
1730 26-02-2019 00:05:00 2.8 C 86 % 0.7 C
1731 26-02-2019 00:10:00 2.7 C 85 % 0.44 C
1732 26-02-2019 00:15:00 2.6 C 86 % 0.5 C
1733 26-02-2019 00:20:00 2.6 C 86 % 0.5 C
1734 26-02-2019 00:25:00 2.6 C 86 % 0.5 C
1735 26-02-2019 00:30:00 2.6 C 87 % 0.66 C
1736 26-02-2019 00:35:00 2.5 C 86 % 0.4 C
1737 26-02-2019 00:40:00 2.3 C 85 % 0.04 C
1738 26-02-2019 00:45:00 2 C 86 % -0.09 C
1739 26-02-2019 00:50:00 1.9 C 87 % -0.03 C
1740 26-02-2019 00:55:00 1.8 C 88 % 0.03 C
1741 26-02-2019 01:00:00 1.8 C 89 % 0.19 C
1742 26-02-2019 01:05:00 1.9 C 89 % 0.28 C
1743 26-02-2019 01:10:00 1.9 C 89 % 0.28 C
1744 26-02-2019 01:15:00 1.9 C 88 % 0.13 C
1745 26-02-2019 01:20:00 1.8 C 89 % 0.19 C
1746 26-02-2019 01:25:00 1.9 C 89 % 0.28 C
1747 26-02-2019 01:30:00 1.9 C 89 % 0.28 C
1748 26-02-2019 01:35:00 2.1 C 90 % 0.64 C
1749 26-02-2019 01:40:00 2.2 C 89 % 0.58 C
1750 26-02-2019 01:45:00 2.1 C 88 % 0.33 C
Sensor: Nr:Datum:Temp:Feuchte:Taupunkt:
Aussen-T/F 1751 26-02-2019 01:50:00 1.9 C 88 % 0.13 C
1752 26-02-2019 01:55:00 1.8 C 88 % 0.03 C
1753 26-02-2019 02:00:00 1.6 C 89 % -0.01 C
1754 26-02-2019 02:05:00 1.6 C 89 % -0.01 C
1755 26-02-2019 02:10:00 1.7 C 90 % 0.24 C
1756 26-02-2019 02:15:00 1.7 C 90 % 0.24 C
1757 26-02-2019 02:20:00 1.6 C 89 % -0.01 C
1758 26-02-2019 02:25:00 1.4 C 89 % -0.21 C
1759 26-02-2019 02:30:00 1.3 C 89 % -0.31 C
1760 26-02-2019 02:35:00 1.3 C 90 % -0.15 C
1761 26-02-2019 02:40:00 1.2 C 90 % -0.25 C
1762 26-02-2019 02:45:00 1.3 C 91 % 0 C
1763 26-02-2019 02:50:00 1.1 C 90 % -0.35 C
1764 26-02-2019 02:55:00 0.9 C 89 % -0.7 C
1765 26-02-2019 03:00:00 0.7 C 90 % -0.75 C
1766 26-02-2019 03:05:00 0.6 C 90 % -0.85 C
1767 26-02-2019 03:10:00 0.5 C 90 % -0.95 C
1768 26-02-2019 03:15:00 0.4 C 91 % -0.89 C
1769 26-02-2019 03:20:00 0.5 C 91 % -0.79 C
1770 26-02-2019 03:25:00 0.5 C 91 % -0.79 C
1771 26-02-2019 03:30:00 0.6 C 92 % -0.55 C
1772 26-02-2019 03:35:00 0.8 C 92 % -0.35 C
1773 26-02-2019 03:40:00 0.8 C 92 % -0.35 C
1774 26-02-2019 03:45:00 0.7 C 91 % -0.6 C
1775 26-02-2019 03:50:00 0.7 C 92 % -0.45 C
Sensor: Nr:Datum:Temp:Feuchte:Taupunkt:
Aussen-T/F 1776 26-02-2019 03:55:00 0.8 C 92 % -0.35 C
1777 26-02-2019 04:00:00 0.7 C 92 % -0.45 C
1778 26-02-2019 04:05:00 0.4 C 91 % -0.89 C
1779 26-02-2019 04:10:00 0.3 C 92 % -0.84 C
1780 26-02-2019 04:15:00 0.3 C 92 % -0.84 C
1781 26-02-2019 04:20:00 0.4 C 92 % -0.74 C
1782 26-02-2019 04:25:00 0.4 C 92 % -0.74 C
1783 26-02-2019 04:30:00 0.4 C 92 % -0.74 C
1784 26-02-2019 04:35:00 0.3 C 92 % -0.84 C
1785 26-02-2019 04:40:00 0.2 C 92 % -0.94 C
1786 26-02-2019 04:45:00 0.1 C 92 % -1.04 C
1787 26-02-2019 04:50:00 0.2 C 93 % -0.79 C
1788 26-02-2019 04:55:00 0.2 C 93 % -0.79 C
1789 26-02-2019 05:00:00 0.2 C 93 % -0.79 C
1790 26-02-2019 05:05:00 0.1 C 93 % -0.89 C
1791 26-02-2019 05:10:00 0.1 C 93 % -0.89 C
1792 26-02-2019 05:15:00 0.1 C 93 % -0.89 C
1793 26-02-2019 05:20:00 0 C 93 % -0.99 C
1794 26-02-2019 05:25:00 0.1 C 93 % -0.89 C
1795 26-02-2019 05:30:00 0.2 C 93 % -0.79 C
1796 26-02-2019 05:35:00 0.3 C 93 % -0.7 C
1797 26-02-2019 05:40:00 0.4 C 94 % -0.45 C
1798 26-02-2019 05:45:00 0.4 C 93 % -0.6 C
1799 26-02-2019 05:50:00 0.4 C 93 % -0.6 C
1800 26-02-2019 05:55:00 0.3 C 93 % -0.7 C
Sensor: Nr:Datum:Temp:Feuchte:Taupunkt:
Aussen-T/F 1801 26-02-2019 06:00:00 0.2 C 92 % -0.94 C
1802 26-02-2019 06:05:00 -0.1 C 92 % -1.24 C
1803 26-02-2019 06:10:00 -0.2 C 92 % -1.34 C
1804 26-02-2019 06:15:00 -0.3 C 92 % -1.44 C
1805 26-02-2019 06:20:00 -0.3 C 93 % -1.29 C
1806 26-02-2019 06:25:00 -0.4 C 93 % -1.39 C
1807 26-02-2019 06:30:00 -0.4 C 93 % -1.39 C
1808 26-02-2019 06:35:00 -0.4 C 93 % -1.39 C
1809 26-02-2019 06:40:00 -0.4 C 93 % -1.39 C
1810 26-02-2019 06:45:00 -0.6 C 93 % -1.59 C
1811 26-02-2019 06:50:00 -0.5 C 93 % -1.49 C
1812 26-02-2019 06:55:00 -0.4 C 94 % -1.25 C
1813 26-02-2019 07:00:00 -0.2 C 94 % -1.05 C
1814 26-02-2019 07:05:00 -0.2 C 94 % -1.05 C
1815 26-02-2019 07:10:00 -0.2 C 94 % -1.05 C
1816 26-02-2019 07:15:00 -0.3 C 93 % -1.29 C
1817 26-02-2019 07:20:00 -0.4 C 93 % -1.39 C
1818 26-02-2019 07:25:00 -0.6 C 93 % -1.59 C
1819 26-02-2019 07:30:00 -0.8 C 93 % -1.79 C
1820 26-02-2019 07:35:00 -0.8 C 93 % -1.79 C
1821 26-02-2019 07:40:00 -0.8 C 94 % -1.64 C
1822 26-02-2019 07:45:00 -0.6 C 94 % -1.44 C
1823 26-02-2019 07:50:00 -0.5 C 94 % -1.34 C
1824 26-02-2019 07:55:00 -0.4 C 94 % -1.25 C
1825 26-02-2019 08:00:00 -0.4 C 94 % -1.25 C
Sensor: Nr:Datum:Temp:Feuchte:Taupunkt:
Aussen-T/F 1826 26-02-2019 08:05:00 -0.3 C 94 % -1.15 C
1827 26-02-2019 08:10:00 -0.3 C 94 % -1.15 C
1828 26-02-2019 08:15:00 -0.3 C 94 % -1.15 C
1829 26-02-2019 08:20:00 -0.3 C 94 % -1.15 C
1830 26-02-2019 08:25:00 -0.3 C 94 % -1.15 C
1831 26-02-2019 08:30:00 -0.2 C 94 % -1.05 C
1832 26-02-2019 08:35:00 -0.1 C 95 % -0.8 C
1833 26-02-2019 08:40:00 0 C 95 % -0.7 C
1834 26-02-2019 08:45:00 0.2 C 95 % -0.5 C
1835 26-02-2019 08:50:00 0.3 C 95 % -0.4 C
1836 26-02-2019 08:55:00 0.4 C 95 % -0.31 C
1837 26-02-2019 09:00:00 0.4 C 94 % -0.45 C
1838 26-02-2019 09:05:00 0.4 C 94 % -0.45 C
1839 26-02-2019 09:10:00 0.5 C 94 % -0.35 C
1840 26-02-2019 09:15:00 0.6 C 95 % -0.11 C
1841 26-02-2019 09:20:00 0.7 C 95 % -0.01 C
1842 26-02-2019 09:25:00 0.8 C 95 % 0.09 C
1843 26-02-2019 09:30:00 0.9 C 95 % 0.19 C
1844 26-02-2019 09:35:00 0.9 C 95 % 0.19 C
1845 26-02-2019 09:40:00 0.9 C 95 % 0.19 C
1846 26-02-2019 09:45:00 1.1 C 95 % 0.39 C
1847 26-02-2019 09:50:00 1.2 C 95 % 0.49 C
1848 26-02-2019 09:55:00 1.3 C 95 % 0.59 C
1849 26-02-2019 10:00:00 1.6 C 95 % 0.89 C
1850 26-02-2019 10:05:00 1.7 C 95 % 0.99 C
Sensor: Nr:Datum:Temp:Feuchte:Taupunkt:
Aussen-T/F 1851 26-02-2019 10:10:00 1.8 C 95 % 1.09 C
1852 26-02-2019 10:15:00 1.9 C 95 % 1.19 C
1853 26-02-2019 10:20:00 2.1 C 95 % 1.38 C
1854 26-02-2019 10:25:00 2.3 C 95 % 1.58 C
1855 26-02-2019 10:30:00 2.5 C 95 % 1.78 C
1856 26-02-2019 10:35:00 2.9 C 95 % 2.18 C
1857 26-02-2019 10:40:00 3.2 C 94 % 2.33 C
1858 26-02-2019 10:45:00 3.5 C 94 % 2.63 C
1859 26-02-2019 10:50:00 3.8 C 93 % 2.77 C
1860 26-02-2019 10:55:00 4 C 92 % 2.82 C
1861 26-02-2019 11:00:00 4.3 C 91 % 2.96 C
1862 26-02-2019 11:05:00 4.5 C 90 % 3.01 C
1863 26-02-2019 11:10:00 4.8 C 90 % 3.3 C
1864 26-02-2019 11:15:00 5.1 C 90 % 3.6 C
1865 26-02-2019 11:20:00 5.4 C 90 % 3.89 C
1866 26-02-2019 11:25:00 5.7 C 89 % 4.03 C
1867 26-02-2019 11:30:00 5.9 C 87 % 3.91 C
1868 26-02-2019 11:35:00 6.2 C 85 % 3.87 C
1869 26-02-2019 11:40:00 6.4 C 84 % 3.9 C
1870 26-02-2019 11:45:00 6.7 C 82 % 3.85 C
1871 26-02-2019 11:50:00 6.9 C 81 % 3.87 C
1872 26-02-2019 11:55:00 7.1 C 81 % 4.07 C
1873 26-02-2019 12:00:00 7.3 C 81 % 4.26 C
1874 26-02-2019 12:05:00 7.5 C 80 % 4.28 C
1875 26-02-2019 12:10:00 7.8 C 76 % 3.84 C
Sensor: Nr:Datum:Temp:Feuchte:Taupunkt:
Aussen-T/F 1876 26-02-2019 12:15:00 8.3 C 75 % 4.14 C
1877 26-02-2019 12:20:00 8.8 C 73 % 4.24 C
1878 26-02-2019 12:25:00 9.3 C 73 % 4.72 C
1879 26-02-2019 12:30:00 9.8 C 71 % 4.8 C
1880 26-02-2019 12:35:00 10.3 C 69 % 4.87 C
1881 26-02-2019 12:40:00 10.8 C 69 % 5.35 C
1882 26-02-2019 12:45:00 11.2 C 65 % 4.87 C
1883 26-02-2019 12:50:00 11.4 C 68 % 5.71 C
1884 26-02-2019 12:55:00 11.6 C 69 % 6.11 C
1885 26-02-2019 13:00:00 11.7 C 68 % 6 C
1886 26-02-2019 13:05:00 11.9 C 68 % 6.19 C
1887 26-02-2019 13:10:00 12.3 C 70 % 6.99 C
1888 26-02-2019 13:15:00 12.7 C 69 % 7.17 C
1889 26-02-2019 13:20:00 13.2 C 67 % 7.21 C
1890 26-02-2019 13:25:00 13.7 C 66 % 7.47 C
1891 26-02-2019 13:30:00 14.1 C 66 % 7.85 C
1892 26-02-2019 13:35:00 14.5 C 65 % 8.01 C
1893 26-02-2019 13:40:00 14.9 C 64 % 8.16 C
1894 26-02-2019 13:45:00 15.4 C 61 % 7.93 C
1895 26-02-2019 13:50:00 15.8 C 60 % 8.06 C
1896 26-02-2019 13:55:00 16.1 C 59 % 8.09 C
1897 26-02-2019 14:00:00 16.4 C 58 % 8.12 C
1898 26-02-2019 14:05:00 16.6 C 55 % 7.53 C
1899 26-02-2019 14:10:00 16.7 C 55 % 7.62 C
1900 26-02-2019 14:15:00 16.8 C 54 % 7.45 C
Sensor: Nr:Datum:Temp:Feuchte:Taupunkt:
Aussen-T/F 1901 26-02-2019 14:20:00 16.7 C 54 % 7.36 C
1902 26-02-2019 14:25:00 16.4 C 54 % 7.08 C
1903 26-02-2019 14:30:00 16.2 C 54 % 6.89 C
1904 26-02-2019 14:35:00 15.9 C 54 % 6.61 C
1905 26-02-2019 14:40:00 15.7 C 56 % 6.96 C
1906 26-02-2019 14:45:00 15.6 C 56 % 6.86 C
1907 26-02-2019 14:50:00 15.5 C 57 % 7.03 C
1908 26-02-2019 14:55:00 15.4 C 57 % 6.93 C
1909 26-02-2019 15:00:00 15.3 C 55 % 6.32 C
1910 26-02-2019 15:05:00 15.4 C 57 % 6.93 C
1911 26-02-2019 15:10:00 15.5 C 56 % 6.77 C
1912 26-02-2019 15:15:00 15.5 C 56 % 6.77 C
1913 26-02-2019 15:20:00 15.5 C 55 % 6.51 C
1914 26-02-2019 15:25:00 15.5 C 55 % 6.51 C
1915 26-02-2019 15:30:00 15.4 C 55 % 6.42 C
1916 26-02-2019 15:35:00 15.4 C 54 % 6.15 C
1917 26-02-2019 15:40:00 15.6 C 55 % 6.6 C
1918 26-02-2019 15:45:00 15.6 C 55 % 6.6 C
1919 26-02-2019 15:50:00 15.6 C 55 % 6.6 C
1920 26-02-2019 15:55:00 15.6 C 55 % 6.6 C
1921 26-02-2019 16:00:00 15.6 C 54 % 6.34 C
1922 26-02-2019 16:05:00 15.7 C 54 % 6.43 C
1923 26-02-2019 16:10:00 15.7 C 54 % 6.43 C
1924 26-02-2019 16:15:00 15.7 C 54 % 6.43 C
1925 26-02-2019 16:20:00 15.7 C 55 % 6.69 C
Sensor: Nr:Datum:Temp:Feuchte:Taupunkt:
Aussen-T/F 1926 26-02-2019 16:25:00 15.6 C 54 % 6.34 C
1927 26-02-2019 16:30:00 15.5 C 55 % 6.51 C
1928 26-02-2019 16:35:00 15.4 C 56 % 6.68 C
1929 26-02-2019 16:40:00 15.2 C 57 % 6.75 C
1930 26-02-2019 16:45:00 15.1 C 57 % 6.65 C
1931 26-02-2019 16:50:00 15.1 C 58 % 6.91 C
1932 26-02-2019 16:55:00 15 C 58 % 6.81 C
1933 26-02-2019 17:00:00 14.9 C 58 % 6.72 C
1934 26-02-2019 17:05:00 14.9 C 58 % 6.72 C
1935 26-02-2019 17:10:00 14.9 C 58 % 6.72 C
1936 26-02-2019 17:15:00 14.8 C 59 % 6.87 C
1937 26-02-2019 17:20:00 14.8 C 59 % 6.87 C
1938 26-02-2019 17:25:00 14.9 C 59 % 6.97 C
1939 26-02-2019 17:30:00 14.9 C 58 % 6.72 C
1940 26-02-2019 17:35:00 14.8 C 58 % 6.63 C
1941 26-02-2019 17:40:00 14.8 C 58 % 6.63 C
1942 26-02-2019 17:45:00 14.7 C 59 % 6.78 C
1943 26-02-2019 17:50:00 14.5 C 59 % 6.59 C
1944 26-02-2019 17:55:00 14.2 C 59 % 6.31 C
1945 26-02-2019 18:00:00 13.9 C 60 % 6.27 C
1946 26-02-2019 18:05:00 13.6 C 61 % 6.23 C
1947 26-02-2019 18:10:00 13.3 C 61 % 5.95 C
1948 26-02-2019 18:15:00 13 C 62 % 5.9 C
1949 26-02-2019 18:20:00 12.8 C 63 % 5.94 C
1950 26-02-2019 18:25:00 12.6 C 64 % 5.98 C
Sensor: Nr:Datum:Temp:Feuchte:Taupunkt:
Aussen-T/F 1951 26-02-2019 18:30:00 12.3 C 64 % 5.69 C
1952 26-02-2019 18:35:00 12.2 C 64 % 5.6 C
1953 26-02-2019 18:40:00 12.1 C 65 % 5.73 C
1954 26-02-2019 18:45:00 11.9 C 66 % 5.76 C
1955 26-02-2019 18:50:00 11.7 C 66 % 5.57 C
1956 26-02-2019 18:55:00 11.4 C 67 % 5.5 C
1957 26-02-2019 19:00:00 11.3 C 68 % 5.62 C
1958 26-02-2019 19:05:00 11.1 C 68 % 5.43 C
1959 26-02-2019 19:10:00 10.8 C 69 % 5.35 C
1960 26-02-2019 19:15:00 10.7 C 70 % 5.46 C
1961 26-02-2019 19:20:00 10.6 C 71 % 5.57 C
1962 26-02-2019 19:25:00 10.4 C 71 % 5.38 C
1963 26-02-2019 19:30:00 10.4 C 72 % 5.58 C
1964 26-02-2019 19:35:00 10.3 C 72 % 5.48 C
1965 26-02-2019 19:40:00 10.1 C 72 % 5.29 C
1966 26-02-2019 19:45:00 9.7 C 73 % 5.1 C
1967 26-02-2019 19:50:00 9.4 C 75 % 5.2 C
1968 26-02-2019 19:55:00 9.3 C 75 % 5.1 C
1969 26-02-2019 20:00:00 9.2 C 74 % 4.81 C
1970 26-02-2019 20:05:00 8.8 C 74 % 4.43 C
1971 26-02-2019 20:10:00 8.6 C 75 % 4.43 C
1972 26-02-2019 20:15:00 8.5 C 76 % 4.52 C
1973 26-02-2019 20:20:00 8.4 C 77 % 4.61 C
1974 26-02-2019 20:25:00 8.1 C 77 % 4.32 C
1975 26-02-2019 20:30:00 7.9 C 77 % 4.12 C
Sensor: Nr:Datum:Temp:Feuchte:Taupunkt:
Aussen-T/F 1976 26-02-2019 20:35:00 7.9 C 77 % 4.12 C
1977 26-02-2019 20:40:00 7.9 C 77 % 4.12 C
1978 26-02-2019 20:45:00 7.8 C 77 % 4.03 C
1979 26-02-2019 20:50:00 7.7 C 77 % 3.93 C
1980 26-02-2019 20:55:00 7.4 C 78 % 3.82 C
1981 26-02-2019 21:00:00 7.3 C 79 % 3.91 C
1982 26-02-2019 21:05:00 7.2 C 79 % 3.81 C
1983 26-02-2019 21:10:00 7 C 79 % 3.61 C
1984 26-02-2019 21:15:00 6.9 C 80 % 3.7 C
1985 26-02-2019 21:20:00 6.7 C 81 % 3.68 C
1986 26-02-2019 21:25:00 6.8 C 83 % 4.12 C
1987 26-02-2019 21:30:00 6.8 C 82 % 3.95 C
1988 26-02-2019 21:35:00 6.8 C 81 % 3.77 C
1989 26-02-2019 21:40:00 6.7 C 81 % 3.68 C
1990 26-02-2019 21:45:00 6.6 C 82 % 3.75 C
1991 26-02-2019 21:50:00 6.4 C 82 % 3.56 C
1992 26-02-2019 21:55:00 6.4 C 82 % 3.56 C
1993 26-02-2019 22:00:00 6.3 C 82 % 3.46 C
1994 26-02-2019 22:05:00 6.2 C 83 % 3.53 C
1995 26-02-2019 22:10:00 6.2 C 83 % 3.53 C
1996 26-02-2019 22:15:00 6.2 C 82 % 3.36 C
1997 26-02-2019 22:20:00 5.9 C 82 % 3.07 C
1998 26-02-2019 22:25:00 5.7 C 83 % 3.04 C
1999 26-02-2019 22:30:00 5.6 C 84 % 3.12 C
2000 26-02-2019 22:35:00 5.4 C 84 % 2.92 C
Sensor: Nr:Datum:Temp:Feuchte:Taupunkt:
Aussen-T/F 2001 26-02-2019 22:40:00 5.2 C 84 % 2.72 C
2002 26-02-2019 22:45:00 4.9 C 85 % 2.6 C
2003 26-02-2019 22:50:00 4.9 C 86 % 2.76 C
2004 26-02-2019 22:55:00 4.9 C 87 % 2.92 C
2005 26-02-2019 23:00:00 4.8 C 85 % 2.5 C
2006 26-02-2019 23:05:00 4.7 C 86 % 2.56 C
2007 26-02-2019 23:10:00 4.7 C 87 % 2.73 C
2008 26-02-2019 23:15:00 4.8 C 88 % 2.99 C
2009 26-02-2019 23:20:00 4.8 C 87 % 2.82 C
2010 26-02-2019 23:25:00 4.8 C 87 % 2.82 C
2011 26-02-2019 23:30:00 4.6 C 86 % 2.47 C
2012 26-02-2019 23:35:00 4.4 C 86 % 2.27 C
2013 26-02-2019 23:40:00 4.3 C 87 % 2.33 C
2014 26-02-2019 23:45:00 4.3 C 88 % 2.49 C
2015 26-02-2019 23:50:00 4.3 C 89 % 2.65 C
2016 26-02-2019 23:55:00 4.3 C 88 % 2.49 C
2017 27-02-2019 00:00:00 4.1 C 88 % 2.3 C
2018 27-02-2019 00:05:00 4 C 88 % 2.2 C
2019 27-02-2019 00:10:00 3.8 C 89 % 2.16 C
2020 27-02-2019 00:15:00 3.6 C 88 % 1.8 C
2021 27-02-2019 00:20:00 3.6 C 89 % 1.96 C
2022 27-02-2019 00:25:00 3.6 C 90 % 2.12 C
2023 27-02-2019 00:30:00 3.6 C 90 % 2.12 C
2024 27-02-2019 00:35:00 3.5 C 90 % 2.02 C
2025 27-02-2019 00:40:00 3.3 C 89 % 1.67 C
Sensor: Nr:Datum:Temp:Feuchte:Taupunkt:
Aussen-T/F 2026 27-02-2019 00:45:00 3.1 C 89 % 1.47 C
2027 27-02-2019 00:50:00 3.2 C 91 % 1.88 C
2028 27-02-2019 00:55:00 3.3 C 91 % 1.98 C
2029 27-02-2019 01:00:00 3.2 C 90 % 1.72 C
2030 27-02-2019 01:05:00 3 C 90 % 1.52 C
2031 27-02-2019 01:10:00 2.9 C 90 % 1.43 C
2032 27-02-2019 01:15:00 2.8 C 91 % 1.48 C
2033 27-02-2019 01:20:00 2.8 C 91 % 1.48 C
2034 27-02-2019 01:25:00 2.9 C 92 % 1.73 C
2035 27-02-2019 01:30:00 3 C 92 % 1.83 C
2036 27-02-2019 01:35:00 2.9 C 91 % 1.58 C
2037 27-02-2019 01:40:00 2.8 C 91 % 1.48 C
2038 27-02-2019 01:45:00 2.7 C 92 % 1.53 C
2039 27-02-2019 01:50:00 2.7 C 92 % 1.53 C
2040 27-02-2019 01:55:00 2.5 C 91 % 1.18 C
2041 27-02-2019 02:00:00 2.3 C 91 % 0.99 C
2042 27-02-2019 02:05:00 2.3 C 91 % 0.99 C
2043 27-02-2019 02:10:00 2.2 C 92 % 1.04 C
2044 27-02-2019 02:15:00 2.2 C 92 % 1.04 C
2045 27-02-2019 02:20:00 2 C 92 % 0.84 C
2046 27-02-2019 02:25:00 2.1 C 93 % 1.09 C
2047 27-02-2019 02:30:00 2.3 C 93 % 1.29 C
2048 27-02-2019 02:35:00 2.6 C 94 % 1.73 C
2049 27-02-2019 02:40:00 2.6 C 94 % 1.73 C
2050 27-02-2019 02:45:00 2.4 C 92 % 1.24 C
Sensor: Nr:Datum:Temp:Feuchte:Taupunkt:
Aussen-T/F 2051 27-02-2019 02:50:00 2.1 C 92 % 0.94 C
2052 27-02-2019 02:55:00 1.9 C 92 % 0.74 C
2053 27-02-2019 03:00:00 1.9 C 93 % 0.89 C
2054 27-02-2019 03:05:00 1.9 C 93 % 0.89 C
2055 27-02-2019 03:10:00 1.9 C 93 % 0.89 C
2056 27-02-2019 03:15:00 1.7 C 92 % 0.54 C
2057 27-02-2019 03:20:00 1.6 C 93 % 0.59 C
2058 27-02-2019 03:25:00 1.5 C 93 % 0.49 C
2059 27-02-2019 03:30:00 1.3 C 93 % 0.3 C
2060 27-02-2019 03:35:00 1.2 C 93 % 0.2 C
2061 27-02-2019 03:40:00 1.3 C 94 % 0.44 C
2062 27-02-2019 03:45:00 1.3 C 93 % 0.3 C
2063 27-02-2019 03:50:00 1 C 93 % 0 C
2064 27-02-2019 03:55:00 0.9 C 93 % -0.1 C
2065 27-02-2019 04:00:00 1 C 94 % 0.15 C
2066 27-02-2019 04:05:00 0.9 C 93 % -0.1 C
2067 27-02-2019 04:10:00 0.9 C 94 % 0.05 C
2068 27-02-2019 04:15:00 1 C 94 % 0.15 C
2069 27-02-2019 04:20:00 0.9 C 94 % 0.05 C
2070 27-02-2019 04:25:00 0.8 C 93 % -0.2 C
2071 27-02-2019 04:30:00 0.7 C 94 % -0.15 C
2072 27-02-2019 04:35:00 0.7 C 94 % -0.15 C
2073 27-02-2019 04:40:00 0.7 C 94 % -0.15 C
2074 27-02-2019 04:45:00 0.6 C 94 % -0.25 C
2075 27-02-2019 04:50:00 0.6 C 94 % -0.25 C
Sensor: Nr:Datum:Temp:Feuchte:Taupunkt:
Aussen-T/F 2076 27-02-2019 04:55:00 0.6 C 94 % -0.25 C
2077 27-02-2019 05:00:00 0.7 C 94 % -0.15 C
2078 27-02-2019 05:05:00 0.7 C 94 % -0.15 C
2079 27-02-2019 05:10:00 0.6 C 94 % -0.25 C
2080 27-02-2019 05:15:00 0.6 C 95 % -0.11 C
2081 27-02-2019 05:20:00 0.6 C 95 % -0.11 C
2082 27-02-2019 05:25:00 0.6 C 95 % -0.11 C
2083 27-02-2019 05:30:00 0.5 C 94 % -0.35 C
2084 27-02-2019 05:35:00 0.4 C 94 % -0.45 C
2085 27-02-2019 05:40:00 0.4 C 94 % -0.45 C
2086 27-02-2019 05:45:00 0.4 C 95 % -0.31 C
2087 27-02-2019 05:50:00 0.3 C 95 % -0.4 C
2088 27-02-2019 05:55:00 0.2 C 94 % -0.65 C
2089 27-02-2019 06:00:00 0.2 C 94 % -0.65 C
2090 27-02-2019 06:05:00 0.2 C 95 % -0.5 C
2091 27-02-2019 06:10:00 0.2 C 95 % -0.5 C
2092 27-02-2019 06:15:00 0.1 C 95 % -0.6 C
2093 27-02-2019 06:20:00 0 C 95 % -0.7 C
2094 27-02-2019 06:25:00 0.1 C 95 % -0.6 C
2095 27-02-2019 06:30:00 0.2 C 95 % -0.5 C
2096 27-02-2019 06:35:00 0.3 C 95 % -0.4 C
2097 27-02-2019 06:40:00 0.3 C 95 % -0.4 C
2098 27-02-2019 06:45:00 0.1 C 95 % -0.6 C
2099 27-02-2019 06:50:00 -0.1 C 95 % -0.8 C
2100 27-02-2019 06:55:00 -0.1 C 95 % -0.8 C
Sensor: Nr:Datum:Temp:Feuchte:Taupunkt:
Aussen-T/F 2101 27-02-2019 07:00:00 -0.2 C 95 % -0.9 C
2102 27-02-2019 07:05:00 -0.2 C 95 % -0.9 C
2103 27-02-2019 07:10:00 -0.2 C 95 % -0.9 C
2104 27-02-2019 07:15:00 -0.2 C 95 % -0.9 C
2105 27-02-2019 07:20:00 -0.3 C 95 % -1 C
2106 27-02-2019 07:25:00 -0.4 C 95 % -1.1 C
2107 27-02-2019 07:30:00 -0.6 C 95 % -1.3 C
2108 27-02-2019 07:35:00 -0.6 C 95 % -1.3 C
2109 27-02-2019 07:40:00 -0.6 C 95 % -1.3 C
2110 27-02-2019 07:45:00 -0.4 C 95 % -1.1 C
2111 27-02-2019 07:50:00 -0.4 C 95 % -1.1 C
2112 27-02-2019 07:55:00 -0.4 C 95 % -1.1 C
2113 27-02-2019 08:00:00 -0.4 C 95 % -1.1 C
2114 27-02-2019 08:05:00 -0.4 C 95 % -1.1 C
2115 27-02-2019 08:10:00 -0.4 C 95 % -1.1 C
2116 27-02-2019 08:15:00 -0.4 C 95 % -1.1 C
2117 27-02-2019 08:20:00 -0.4 C 95 % -1.1 C
2118 27-02-2019 08:25:00 -0.4 C 95 % -1.1 C
2119 27-02-2019 08:30:00 -0.3 C 96 % -0.86 C
2120 27-02-2019 08:35:00 -0.2 C 96 % -0.76 C
2121 27-02-2019 08:40:00 -0.2 C 96 % -0.76 C
2122 27-02-2019 08:45:00 -0.1 C 96 % -0.66 C
2123 27-02-2019 08:50:00 0 C 96 % -0.56 C
2124 27-02-2019 08:55:00 0.1 C 96 % -0.46 C
2125 27-02-2019 09:00:00 0.1 C 96 % -0.46 C
Sensor: Nr:Datum:Temp:Feuchte:Taupunkt:
Aussen-T/F 2126 27-02-2019 09:05:00 0.2 C 96 % -0.36 C
2127 27-02-2019 09:10:00 0.2 C 96 % -0.36 C
2128 27-02-2019 09:15:00 0.2 C 96 % -0.36 C
2129 27-02-2019 09:20:00 0.2 C 96 % -0.36 C
2130 27-02-2019 09:25:00 0.3 C 96 % -0.26 C
2131 27-02-2019 09:30:00 0.3 C 96 % -0.26 C
2132 27-02-2019 09:35:00 0.4 C 96 % -0.16 C
2133 27-02-2019 09:40:00 0.6 C 96 % 0.04 C
2134 27-02-2019 09:45:00 0.7 C 96 % 0.14 C
2135 27-02-2019 09:50:00 0.8 C 96 % 0.24 C
2136 27-02-2019 09:55:00 1 C 96 % 0.44 C
2137 27-02-2019 10:00:00 1.2 C 96 % 0.63 C
2138 27-02-2019 10:05:00 1.3 C 96 % 0.73 C
2139 27-02-2019 10:10:00 1.4 C 96 % 0.83 C
2140 27-02-2019 10:15:00 1.6 C 97 % 1.18 C
2141 27-02-2019 10:20:00 1.7 C 96 % 1.13 C
2142 27-02-2019 10:25:00 2 C 97 % 1.58 C
2143 27-02-2019 10:30:00 2.4 C 97 % 1.97 C
2144 27-02-2019 10:35:00 2.8 C 97 % 2.37 C
2145 27-02-2019 10:40:00 3.2 C 97 % 2.77 C
2146 27-02-2019 10:45:00 3.4 C 97 % 2.97 C
2147 27-02-2019 10:50:00 3.7 C 97 % 3.27 C
2148 27-02-2019 10:55:00 4.1 C 97 % 3.67 C
2149 27-02-2019 11:00:00 4.3 C 97 % 3.87 C
2150 27-02-2019 11:05:00 4.5 C 97 % 4.07 C
Sensor: Nr:Datum:Temp:Feuchte:Taupunkt:
Aussen-T/F 2151 27-02-2019 11:10:00 4.7 C 97 % 4.27 C
2152 27-02-2019 11:15:00 5 C 97 % 4.56 C
2153 27-02-2019 11:20:00 5.2 C 97 % 4.76 C
2154 27-02-2019 11:25:00 5.4 C 97 % 4.96 C
2155 27-02-2019 11:30:00 5.7 C 96 % 5.11 C
2156 27-02-2019 11:35:00 5.8 C 95 % 5.06 C
2157 27-02-2019 11:40:00 6 C 94 % 5.11 C
2158 27-02-2019 11:45:00 6.2 C 93 % 5.15 C
2159 27-02-2019 11:50:00 6.5 C 91 % 5.14 C
2160 27-02-2019 11:55:00 6.7 C 90 % 5.18 C
2161 27-02-2019 12:00:00 7 C 89 % 5.31 C
2162 27-02-2019 12:05:00 7.4 C 90 % 5.87 C
2163 27-02-2019 12:10:00 7.8 C 88 % 5.94 C
2164 27-02-2019 12:15:00 8.4 C 89 % 6.7 C
2165 27-02-2019 12:20:00 9.1 C 87 % 7.05 C
2166 27-02-2019 12:25:00 9.6 C 85 % 7.21 C
2167 27-02-2019 12:30:00 10.2 C 83 % 7.45 C
2168 27-02-2019 12:35:00 10.8 C 81 % 7.67 C
2169 27-02-2019 12:40:00 11.3 C 80 % 7.98 C
2170 27-02-2019 12:45:00 11.7 C 74 % 7.23 C
2171 27-02-2019 12:50:00 11.8 C 74 % 7.32 C
2172 27-02-2019 12:55:00 12 C 73 % 7.32 C
2173 27-02-2019 13:00:00 12.4 C 73 % 7.7 C
2174 27-02-2019 13:05:00 12.7 C 73 % 7.99 C
2175 27-02-2019 13:10:00 13.1 C 72 % 8.17 C
Sensor: Nr:Datum:Temp:Feuchte:Taupunkt:
Aussen-T/F 2176 27-02-2019 13:15:00 13.5 C 72 % 8.56 C
2177 27-02-2019 13:20:00 14.1 C 68 % 8.29 C
2178 27-02-2019 13:25:00 14.6 C 67 % 8.55 C
2179 27-02-2019 13:30:00 15.1 C 65 % 8.58 C
2180 27-02-2019 13:35:00 15.4 C 63 % 8.4 C
2181 27-02-2019 13:40:00 15.8 C 62 % 8.54 C
2182 27-02-2019 13:45:00 16.2 C 59 % 8.19 C
2183 27-02-2019 13:50:00 16.4 C 58 % 8.12 C
2184 27-02-2019 13:55:00 17 C 56 % 8.17 C
2185 27-02-2019 14:00:00 17.6 C 54 % 8.19 C
2186 27-02-2019 14:05:00 17.8 C 53 % 8.1 C
2187 27-02-2019 14:10:00 17.9 C 53 % 8.19 C
2188 27-02-2019 14:15:00 17.9 C 52 % 7.91 C
2189 27-02-2019 14:20:00 17.8 C 52 % 7.82 C
2190 27-02-2019 14:25:00 17.5 C 52 % 7.54 C
2191 27-02-2019 14:30:00 17.1 C 51 % 6.89 C
2192 27-02-2019 14:35:00 16.8 C 51 % 6.62 C
2193 27-02-2019 14:40:00 16.6 C 52 % 6.71 C
2194 27-02-2019 14:45:00 16.5 C 50 % 6.05 C
2195 27-02-2019 14:50:00 16.4 C 53 % 6.81 C
2196 27-02-2019 14:55:00 16.4 C 53 % 6.81 C
2197 27-02-2019 15:00:00 16.3 C 53 % 6.71 C
2198 27-02-2019 15:05:00 16.3 C 51 % 6.16 C
2199 27-02-2019 15:10:00 16.2 C 51 % 6.06 C
2200 27-02-2019 15:15:00 16.2 C 52 % 6.34 C
Sensor: Nr:Datum:Temp:Feuchte:Taupunkt:
Aussen-T/F 2201 27-02-2019 15:20:00 16.1 C 51 % 5.97 C
2202 27-02-2019 15:25:00 16 C 51 % 5.88 C
2203 27-02-2019 15:30:00 15.9 C 51 % 5.79 C
2204 27-02-2019 15:35:00 15.9 C 52 % 6.07 C
2205 27-02-2019 15:40:00 16 C 52 % 6.16 C
2206 27-02-2019 15:45:00 16.1 C 51 % 5.97 C
2207 27-02-2019 15:50:00 16.1 C 51 % 5.97 C
2208 27-02-2019 15:55:00 16.2 C 51 % 6.06 C
2209 27-02-2019 16:00:00 16.3 C 51 % 6.16 C
2210 27-02-2019 16:05:00 16.3 C 50 % 5.87 C
2211 27-02-2019 16:10:00 16.4 C 50 % 5.96 C
2212 27-02-2019 16:15:00 16.5 C 50 % 6.05 C
2213 27-02-2019 16:20:00 16.5 C 51 % 6.34 C
2214 27-02-2019 16:25:00 16.4 C 49 % 5.67 C
2215 27-02-2019 16:30:00 16.3 C 50 % 5.87 C
2216 27-02-2019 16:35:00 16.2 C 50 % 5.78 C
2217 27-02-2019 16:40:00 16.2 C 51 % 6.06 C
2218 27-02-2019 16:45:00 16.1 C 51 % 5.97 C
2219 27-02-2019 16:50:00 16 C 52 % 6.16 C
2220 27-02-2019 16:55:00 15.8 C 52 % 5.97 C
2221 27-02-2019 17:00:00 15.8 C 52 % 5.97 C
2222 27-02-2019 17:05:00 15.8 C 52 % 5.97 C
2223 27-02-2019 17:10:00 15.8 C 53 % 6.25 C
2224 27-02-2019 17:15:00 15.7 C 52 % 5.88 C
2225 27-02-2019 17:20:00 15.7 C 52 % 5.88 C
Sensor: Nr:Datum:Temp:Feuchte:Taupunkt:
Aussen-T/F 2226 27-02-2019 17:25:00 15.7 C 51 % 5.6 C
2227 27-02-2019 17:30:00 15.8 C 51 % 5.69 C
2228 27-02-2019 17:35:00 15.8 C 50 % 5.41 C
2229 27-02-2019 17:40:00 15.8 C 50 % 5.41 C
2230 27-02-2019 17:45:00 15.8 C 50 % 5.41 C
2231 27-02-2019 17:50:00 15.6 C 50 % 5.23 C
2232 27-02-2019 17:55:00 15.3 C 49 % 4.66 C
2233 27-02-2019 18:00:00 15 C 51 % 4.96 C
2234 27-02-2019 18:05:00 14.6 C 52 % 4.87 C
2235 27-02-2019 18:10:00 14.3 C 54 % 5.13 C
2236 27-02-2019 18:15:00 13.9 C 52 % 4.22 C
2237 27-02-2019 18:20:00 13.8 C 55 % 4.93 C
2238 27-02-2019 18:25:00 13.6 C 54 % 4.48 C
2239 27-02-2019 18:30:00 13.5 C 55 % 4.65 C
2240 27-02-2019 18:35:00 13.3 C 56 % 4.72 C
2241 27-02-2019 18:40:00 13 C 56 % 4.44 C
2242 27-02-2019 18:45:00 12.8 C 57 % 4.5 C
2243 27-02-2019 18:50:00 12.6 C 58 % 4.57 C
2244 27-02-2019 18:55:00 12.3 C 58 % 4.28 C
2245 27-02-2019 19:00:00 12.2 C 59 % 4.43 C
2246 27-02-2019 19:05:00 11.9 C 59 % 4.15 C
2247 27-02-2019 19:10:00 11.7 C 60 % 4.2 C
2248 27-02-2019 19:15:00 11.5 C 61 % 4.25 C
2249 27-02-2019 19:20:00 11.3 C 62 % 4.29 C
2250 27-02-2019 19:25:00 11.1 C 64 % 4.56 C
Sensor: Nr:Datum:Temp:Feuchte:Taupunkt:
Aussen-T/F 2251 27-02-2019 19:30:00 10.8 C 65 % 4.49 C
2252 27-02-2019 19:35:00 10.5 C 66 % 4.43 C
2253 27-02-2019 19:40:00 10.2 C 67 % 4.36 C
2254 27-02-2019 19:45:00 10 C 67 % 4.16 C
2255 27-02-2019 19:50:00 9.8 C 68 % 4.18 C
2256 27-02-2019 19:55:00 9.7 C 69 % 4.3 C
2257 27-02-2019 20:00:00 9.5 C 70 % 4.31 C
2258 27-02-2019 20:05:00 9.4 C 69 % 4.01 C
2259 27-02-2019 20:10:00 9.3 C 70 % 4.12 C
2260 27-02-2019 20:15:00 9.1 C 69 % 3.72 C
2261 27-02-2019 20:20:00 9.1 C 70 % 3.93 C
2262 27-02-2019 20:25:00 8.8 C 70 % 3.64 C
2263 27-02-2019 20:30:00 8.7 C 70 % 3.54 C
2264 27-02-2019 20:35:00 8.6 C 70 % 3.45 C
2265 27-02-2019 20:40:00 8.3 C 71 % 3.36 C
2266 27-02-2019 20:45:00 8.1 C 72 % 3.37 C
2267 27-02-2019 20:50:00 7.8 C 72 % 3.08 C
2268 27-02-2019 20:55:00 7.7 C 72 % 2.98 C
2269 27-02-2019 21:00:00 7.4 C 73 % 2.89 C
2270 27-02-2019 21:05:00 7.3 C 74 % 2.98 C
2271 27-02-2019 21:10:00 7.3 C 73 % 2.79 C
2272 27-02-2019 21:15:00 7.2 C 74 % 2.89 C
2273 27-02-2019 21:20:00 7.1 C 76 % 3.16 C
2274 27-02-2019 21:25:00 6.9 C 76 % 2.97 C
2275 27-02-2019 21:30:00 6.8 C 76 % 2.87 C
Sensor: Nr:Datum:Temp:Feuchte:Taupunkt:
Aussen-T/F 2276 27-02-2019 21:35:00 6.5 C 77 % 2.77 C
2277 27-02-2019 21:40:00 6.4 C 78 % 2.85 C
2278 27-02-2019 21:45:00 6.4 C 77 % 2.67 C
2279 27-02-2019 21:50:00 6.3 C 77 % 2.57 C
2280 27-02-2019 21:55:00 6 C 78 % 2.46 C
2281 27-02-2019 22:00:00 5.8 C 80 % 2.62 C
2282 27-02-2019 22:05:00 5.8 C 81 % 2.8 C
2283 27-02-2019 22:10:00 5.9 C 80 % 2.72 C
2284 27-02-2019 22:15:00 5.8 C 79 % 2.45 C
2285 27-02-2019 22:20:00 5.7 C 80 % 2.53 C
2286 27-02-2019 22:25:00 5.6 C 80 % 2.43 C
2287 27-02-2019 22:30:00 5.5 C 81 % 2.51 C
2288 27-02-2019 22:35:00 5.4 C 81 % 2.41 C
2289 27-02-2019 22:40:00 5.3 C 81 % 2.31 C
2290 27-02-2019 22:45:00 5.3 C 81 % 2.31 C
2291 27-02-2019 22:50:00 5.3 C 81 % 2.31 C
2292 27-02-2019 22:55:00 5.2 C 81 % 2.21 C
2293 27-02-2019 23:00:00 5.2 C 81 % 2.21 C
2294 27-02-2019 23:05:00 5.2 C 81 % 2.21 C
2295 27-02-2019 23:10:00 5.1 C 82 % 2.29 C
2296 27-02-2019 23:15:00 5.1 C 81 % 2.12 C
2297 27-02-2019 23:20:00 5.1 C 82 % 2.29 C
2298 27-02-2019 23:25:00 4.9 C 82 % 2.09 C
2299 27-02-2019 23:30:00 4.7 C 82 % 1.9 C
2300 27-02-2019 23:35:00 4.6 C 83 % 1.97 C
Sensor: Nr:Datum:Temp:Feuchte:Taupunkt:
Aussen-T/F 2301 27-02-2019 23:40:00 4.5 C 84 % 2.04 C
2302 27-02-2019 23:45:00 4.5 C 85 % 2.2 C
2303 27-02-2019 23:50:00 4.5 C 84 % 2.04 C
2304 27-02-2019 23:55:00 4.6 C 84 % 2.14 C
2305 28-02-2019 00:00:00 4.5 C 84 % 2.04 C
2306 28-02-2019 00:05:00 4.6 C 85 % 2.3 C
2307 28-02-2019 00:10:00 4.7 C 85 % 2.4 C
2308 28-02-2019 00:15:00 4.8 C 85 % 2.5 C
2309 28-02-2019 00:20:00 5.1 C 85 % 2.79 C
2310 28-02-2019 00:25:00 5.4 C 84 % 2.92 C
2311 28-02-2019 00:30:00 5.6 C 83 % 2.95 C
2312 28-02-2019 00:35:00 5.7 C 82 % 2.87 C
2313 28-02-2019 00:40:00 5.8 C 82 % 2.97 C
2314 28-02-2019 00:45:00 5.9 C 81 % 2.9 C
2315 28-02-2019 00:50:00 6 C 80 % 2.82 C
2316 28-02-2019 00:55:00 6.1 C 80 % 2.92 C
2317 28-02-2019 01:00:00 6.1 C 80 % 2.92 C
2318 28-02-2019 01:05:00 5.9 C 79 % 2.54 C
2319 28-02-2019 01:10:00 5.8 C 79 % 2.45 C
2320 28-02-2019 01:15:00 5.4 C 79 % 2.06 C
2321 28-02-2019 01:20:00 5.2 C 81 % 2.21 C
2322 28-02-2019 01:25:00 5 C 81 % 2.02 C
2323 28-02-2019 01:30:00 4.7 C 82 % 1.9 C
2324 28-02-2019 01:35:00 4.5 C 83 % 1.87 C
2325 28-02-2019 01:40:00 4.3 C 83 % 1.67 C
Sensor: Nr:Datum:Temp:Feuchte:Taupunkt:
Aussen-T/F 2326 28-02-2019 01:45:00 4.1 C 84 % 1.65 C
2327 28-02-2019 01:50:00 4.1 C 85 % 1.81 C
2328 28-02-2019 01:55:00 4.1 C 86 % 1.97 C
2329 28-02-2019 02:00:00 4.1 C 86 % 1.97 C
2330 28-02-2019 02:05:00 4.1 C 86 % 1.97 C
2331 28-02-2019 02:10:00 4.2 C 86 % 2.07 C
2332 28-02-2019 02:15:00 4.1 C 85 % 1.81 C
2333 28-02-2019 02:20:00 3.8 C 85 % 1.52 C
2334 28-02-2019 02:25:00 3.6 C 86 % 1.48 C
2335 28-02-2019 02:30:00 3.4 C 86 % 1.29 C
2336 28-02-2019 02:35:00 3.3 C 87 % 1.35 C
2337 28-02-2019 02:40:00 3.3 C 88 % 1.51 C
2338 28-02-2019 02:45:00 3.4 C 89 % 1.76 C
2339 28-02-2019 02:50:00 3.4 C 89 % 1.76 C
2340 28-02-2019 02:55:00 3.4 C 88 % 1.61 C
2341 28-02-2019 03:00:00 3.3 C 88 % 1.51 C
2342 28-02-2019 03:05:00 3.1 C 87 % 1.15 C
2343 28-02-2019 03:10:00 2.9 C 88 % 1.11 C
2344 28-02-2019 03:15:00 2.9 C 89 % 1.27 C
2345 28-02-2019 03:20:00 2.8 C 89 % 1.17 C
2346 28-02-2019 03:25:00 2.8 C 90 % 1.33 C
2347 28-02-2019 03:30:00 2.9 C 90 % 1.43 C
2348 28-02-2019 03:35:00 3 C 90 % 1.52 C
2349 28-02-2019 03:40:00 3.1 C 90 % 1.62 C
2350 28-02-2019 03:45:00 3 C 89 % 1.37 C
Sensor: Nr:Datum:Temp:Feuchte:Taupunkt:
Aussen-T/F 2351 28-02-2019 03:50:00 2.8 C 89 % 1.17 C
2352 28-02-2019 03:55:00 2.7 C 89 % 1.07 C
2353 28-02-2019 04:00:00 2.6 C 89 % 0.97 C
2354 28-02-2019 04:05:00 2.4 C 89 % 0.78 C
2355 28-02-2019 04:10:00 2.2 C 88 % 0.42 C
2356 28-02-2019 04:15:00 2 C 89 % 0.38 C
2357 28-02-2019 04:20:00 1.9 C 90 % 0.44 C
2358 28-02-2019 04:25:00 2.1 C 91 % 0.79 C
2359 28-02-2019 04:30:00 2.3 C 92 % 1.14 C
2360 28-02-2019 04:35:00 2.3 C 91 % 0.99 C
2361 28-02-2019 04:40:00 2.3 C 91 % 0.99 C
2362 28-02-2019 04:45:00 2.3 C 91 % 0.99 C
2363 28-02-2019 04:50:00 2.4 C 92 % 1.24 C
2364 28-02-2019 04:55:00 2.5 C 91 % 1.18 C
2365 28-02-2019 05:00:00 2.6 C 91 % 1.28 C
2366 28-02-2019 05:05:00 2.5 C 91 % 1.18 C
2367 28-02-2019 05:10:00 2.5 C 91 % 1.18 C
2368 28-02-2019 05:15:00 2.4 C 90 % 0.93 C
2369 28-02-2019 05:20:00 2.3 C 91 % 0.99 C
2370 28-02-2019 05:25:00 2.3 C 91 % 0.99 C
2371 28-02-2019 05:30:00 2.3 C 91 % 0.99 C
2372 28-02-2019 05:35:00 2.3 C 91 % 0.99 C
2373 28-02-2019 05:40:00 2.3 C 91 % 0.99 C
2374 28-02-2019 05:45:00 2.3 C 91 % 0.99 C
2375 28-02-2019 05:50:00 2.2 C 91 % 0.89 C
Sensor: Nr:Datum:Temp:Feuchte:Taupunkt:
Aussen-T/F 2376 28-02-2019 05:55:00 2.3 C 92 % 1.14 C
2377 28-02-2019 06:00:00 2.5 C 92 % 1.34 C
2378 28-02-2019 06:05:00 2.7 C 92 % 1.53 C
2379 28-02-2019 06:10:00 2.7 C 92 % 1.53 C
2380 28-02-2019 06:15:00 2.7 C 91 % 1.38 C
2381 28-02-2019 06:20:00 2.6 C 91 % 1.28 C
2382 28-02-2019 06:25:00 2.7 C 91 % 1.38 C
2383 28-02-2019 06:30:00 2.9 C 92 % 1.73 C
2384 28-02-2019 06:35:00 3.4 C 92 % 2.23 C
2385 28-02-2019 06:40:00 3.8 C 90 % 2.31 C
2386 28-02-2019 06:45:00 4.2 C 88 % 2.39 C
2387 28-02-2019 06:50:00 4.2 C 87 % 2.23 C
2388 28-02-2019 06:55:00 4.2 C 87 % 2.23 C
2389 28-02-2019 07:00:00 4.2 C 87 % 2.23 C
2390 28-02-2019 07:05:00 4.2 C 86 % 2.07 C
2391 28-02-2019 07:10:00 4.1 C 86 % 1.97 C
2392 28-02-2019 07:15:00 3.9 C 86 % 1.78 C
2393 28-02-2019 07:20:00 3.9 C 87 % 1.94 C
2394 28-02-2019 07:25:00 3.8 C 87 % 1.84 C
2395 28-02-2019 07:30:00 3.8 C 87 % 1.84 C
2396 28-02-2019 07:35:00 3.7 C 87 % 1.74 C
2397 28-02-2019 07:40:00 3.6 C 88 % 1.8 C
2398 28-02-2019 07:45:00 3.4 C 87 % 1.45 C
2399 28-02-2019 07:50:00 3.3 C 87 % 1.35 C
2400 28-02-2019 07:55:00 3.1 C 87 % 1.15 C
Sensor: Nr:Datum:Temp:Feuchte:Taupunkt:
Aussen-T/F 2401 28-02-2019 08:00:00 2.9 C 88 % 1.11 C
2402 28-02-2019 08:05:00 2.7 C 88 % 0.92 C
2403 28-02-2019 08:10:00 2.7 C 88 % 0.92 C
2404 28-02-2019 08:15:00 2.6 C 89 % 0.97 C
2405 28-02-2019 08:20:00 2.7 C 90 % 1.23 C
2406 28-02-2019 08:25:00 2.8 C 90 % 1.33 C
2407 28-02-2019 08:30:00 2.9 C 91 % 1.58 C
2408 28-02-2019 08:35:00 3.1 C 91 % 1.78 C
2409 28-02-2019 08:40:00 3.3 C 91 % 1.98 C
2410 28-02-2019 08:45:00 3.6 C 92 % 2.42 C
2411 28-02-2019 08:50:00 3.7 C 91 % 2.37 C
2412 28-02-2019 08:55:00 3.9 C 91 % 2.57 C
2413 28-02-2019 09:00:00 4.1 C 91 % 2.77 C
2414 28-02-2019 09:05:00 4.2 C 90 % 2.71 C
2415 28-02-2019 09:10:00 4.3 C 90 % 2.81 C
2416 28-02-2019 09:15:00 4.4 C 89 % 2.75 C
2417 28-02-2019 09:20:00 4.5 C 89 % 2.85 C
2418 28-02-2019 09:25:00 4.6 C 89 % 2.95 C
2419 28-02-2019 09:30:00 4.7 C 89 % 3.05 C
2420 28-02-2019 09:35:00 4.8 C 88 % 2.99 C
2421 28-02-2019 09:40:00 4.9 C 88 % 3.08 C
2422 28-02-2019 09:45:00 5.1 C 88 % 3.28 C
2423 28-02-2019 09:50:00 5.2 C 88 % 3.38 C
2424 28-02-2019 09:55:00 5.4 C 89 % 3.74 C
2425 28-02-2019 10:00:00 5.6 C 89 % 3.93 C
Sensor: Nr:Datum:Temp:Feuchte:Taupunkt:
Aussen-T/F 2426 28-02-2019 10:05:00 5.8 C 89 % 4.13 C
2427 28-02-2019 10:10:00 6.3 C 88 % 4.46 C
2428 28-02-2019 10:15:00 6.7 C 88 % 4.86 C
2429 28-02-2019 10:20:00 7.1 C 86 % 4.92 C
2430 28-02-2019 10:25:00 7.5 C 85 % 5.15 C
2431 28-02-2019 10:30:00 7.9 C 84 % 5.37 C
2432 28-02-2019 10:35:00 8.4 C 83 % 5.69 C
2433 28-02-2019 10:40:00 8.7 C 82 % 5.8 C
2434 28-02-2019 10:45:00 9 C 81 % 5.92 C
2435 28-02-2019 10:50:00 9.3 C 80 % 6.03 C
2436 28-02-2019 10:55:00 9.6 C 79 % 6.14 C
2437 28-02-2019 11:00:00 9.9 C 78 % 6.25 C
2438 28-02-2019 11:05:00 10.2 C 77 % 6.35 C
2439 28-02-2019 11:10:00 10.6 C 76 % 6.55 C
2440 28-02-2019 11:15:00 10.9 C 75 % 6.65 C
2441 28-02-2019 11:20:00 11.3 C 73 % 6.64 C
2442 28-02-2019 11:25:00 11.7 C 72 % 6.83 C
2443 28-02-2019 11:30:00 11.9 C 71 % 6.82 C
2444 28-02-2019 11:35:00 12.2 C 70 % 6.9 C
2445 28-02-2019 11:40:00 12.4 C 69 % 6.88 C
2446 28-02-2019 11:45:00 12.5 C 69 % 6.97 C
2447 28-02-2019 11:50:00 12.6 C 69 % 7.07 C
2448 28-02-2019 11:55:00 12.6 C 69 % 7.07 C
2449 28-02-2019 12:00:00 12.7 C 68 % 6.95 C
2450 28-02-2019 12:05:00 12.8 C 69 % 7.26 C
Sensor: Nr:Datum:Temp:Feuchte:Taupunkt:
Aussen-T/F 2451 28-02-2019 12:10:00 12.8 C 68 % 7.05 C
2452 28-02-2019 12:15:00 12.9 C 68 % 7.14 C
2453 28-02-2019 12:20:00 13 C 68 % 7.24 C
2454 28-02-2019 12:25:00 13.1 C 67 % 7.12 C
2455 28-02-2019 12:30:00 13.2 C 67 % 7.21 C
2456 28-02-2019 12:35:00 13.4 C 68 % 7.62 C
2457 28-02-2019 12:40:00 13.7 C 66 % 7.47 C
2458 28-02-2019 12:45:00 13.8 C 66 % 7.57 C
2459 28-02-2019 12:50:00 13.9 C 66 % 7.66 C
2460 28-02-2019 12:55:00 13.9 C 66 % 7.66 C
2461 28-02-2019 13:00:00 14.1 C 66 % 7.85 C
2462 28-02-2019 13:05:00 14.2 C 65 % 7.72 C
2463 28-02-2019 13:10:00 14.3 C 66 % 8.04 C
2464 28-02-2019 13:15:00 14.5 C 64 % 7.78 C
2465 28-02-2019 13:20:00 14.7 C 65 % 8.2 C
2466 28-02-2019 13:25:00 14.9 C 63 % 7.93 C
2467 28-02-2019 13:30:00 15.1 C 64 % 8.35 C
2468 28-02-2019 13:35:00 15.2 C 63 % 8.21 C
2469 28-02-2019 13:40:00 15.4 C 62 % 8.16 C
2470 28-02-2019 13:45:00 15.6 C 62 % 8.35 C
2471 28-02-2019 13:50:00 15.7 C 61 % 8.21 C
2472 28-02-2019 13:55:00 15.8 C 61 % 8.3 C
2473 28-02-2019 14:00:00 16 C 62 % 8.73 C
2474 28-02-2019 14:05:00 16.2 C 61 % 8.68 C
2475 28-02-2019 14:10:00 16.3 C 61 % 8.77 C
Sensor: Nr:Datum:Temp:Feuchte:Taupunkt:
Aussen-T/F 2476 28-02-2019 14:15:00 16.4 C 61 % 8.87 C
2477 28-02-2019 14:20:00 16.4 C 61 % 8.87 C
2478 28-02-2019 14:25:00 16.5 C 61 % 8.96 C
2479 28-02-2019 14:30:00 16.6 C 61 % 9.06 C
2480 28-02-2019 14:35:00 16.7 C 61 % 9.15 C
2481 28-02-2019 14:40:00 16.8 C 61 % 9.24 C
2482 28-02-2019 14:45:00 17.1 C 60 % 9.28 C
2483 28-02-2019 14:50:00 17.2 C 60 % 9.37 C
2484 28-02-2019 14:55:00 17.2 C 60 % 9.37 C
2485 28-02-2019 15:00:00 17.2 C 60 % 9.37 C
2486 28-02-2019 15:05:00 17.1 C 60 % 9.28 C
2487 28-02-2019 15:10:00 17 C 62 % 9.67 C
2488 28-02-2019 15:15:00 17 C 61 % 9.43 C
2489 28-02-2019 15:20:00 16.9 C 61 % 9.34 C
2490 28-02-2019 15:25:00 16.8 C 62 % 9.49 C
2491 28-02-2019 15:30:00 16.8 C 62 % 9.49 C
2492 28-02-2019 15:35:00 16.7 C 62 % 9.39 C
2493 28-02-2019 15:40:00 16.7 C 60 % 8.9 C
2494 28-02-2019 15:45:00 16.5 C 60 % 8.72 C
2495 28-02-2019 15:50:00 16.3 C 61 % 8.77 C
2496 28-02-2019 15:55:00 16.2 C 61 % 8.68 C
2497 28-02-2019 16:00:00 16.2 C 62 % 8.92 C
2498 28-02-2019 16:05:00 16.2 C 64 % 9.39 C
2499 28-02-2019 16:10:00 16.1 C 65 % 9.53 C
2500 28-02-2019 16:15:00 16 C 66 % 9.66 C
Sensor: Nr:Datum:Temp:Feuchte:Taupunkt:
Aussen-T/F 2501 28-02-2019 16:20:00 15.9 C 66 % 9.56 C
2502 28-02-2019 16:25:00 15.7 C 66 % 9.37 C
2503 28-02-2019 16:30:00 15.5 C 67 % 9.41 C
2504 28-02-2019 16:35:00 15.3 C 63 % 8.31 C
2505 28-02-2019 16:40:00 14.7 C 60 % 7.03 C
2506 28-02-2019 16:45:00 14 C 61 % 6.61 C
2507 28-02-2019 16:50:00 13.6 C 63 % 6.7 C
2508 28-02-2019 16:55:00 13.3 C 64 % 6.64 C
2509 28-02-2019 17:00:00 13.1 C 64 % 6.45 C
2510 28-02-2019 17:05:00 13 C 65 % 6.58 C
2511 28-02-2019 17:10:00 12.9 C 66 % 6.71 C
2512 28-02-2019 17:15:00 12.9 C 67 % 6.93 C
2513 28-02-2019 17:20:00 12.8 C 67 % 6.83 C
2514 28-02-2019 17:25:00 12.8 C 68 % 7.05 C
2515 28-02-2019 17:30:00 12.7 C 69 % 7.17 C
2516 28-02-2019 17:35:00 12.6 C 69 % 7.07 C
2517 28-02-2019 17:40:00 12.6 C 69 % 7.07 C
2518 28-02-2019 17:45:00 12.5 C 69 % 6.97 C
2519 28-02-2019 17:50:00 12.5 C 70 % 7.18 C
2520 28-02-2019 17:55:00 12.4 C 70 % 7.09 C
2521 28-02-2019 18:00:00 12.4 C 70 % 7.09 C
2522 28-02-2019 18:05:00 12.4 C 70 % 7.09 C
2523 28-02-2019 18:10:00 12.3 C 71 % 7.2 C
2524 28-02-2019 18:15:00 12.3 C 71 % 7.2 C
2525 28-02-2019 18:20:00 12.2 C 71 % 7.1 C
Sensor: Nr:Datum:Temp:Feuchte:Taupunkt:
Aussen-T/F 2526 28-02-2019 18:25:00 12.2 C 71 % 7.1 C
2527 28-02-2019 18:30:00 12.1 C 71 % 7.01 C
2528 28-02-2019 18:35:00 12.1 C 72 % 7.21 C
2529 28-02-2019 18:40:00 12 C 72 % 7.12 C
2530 28-02-2019 18:45:00 11.9 C 73 % 7.22 C
2531 28-02-2019 18:50:00 11.9 C 73 % 7.22 C
2532 28-02-2019 18:55:00 11.8 C 73 % 7.12 C
2533 28-02-2019 19:00:00 11.8 C 74 % 7.32 C
2534 28-02-2019 19:05:00 11.7 C 74 % 7.23 C
2535 28-02-2019 19:10:00 11.6 C 74 % 7.13 C
2536 28-02-2019 19:15:00 11.4 C 75 % 7.13 C
2537 28-02-2019 19:20:00 11.3 C 75 % 7.04 C
2538 28-02-2019 19:25:00 11.2 C 75 % 6.94 C
2539 28-02-2019 19:30:00 11.1 C 76 % 7.04 C
2540 28-02-2019 19:35:00 11.1 C 76 % 7.04 C
2541 28-02-2019 19:40:00 11 C 77 % 7.13 C
2542 28-02-2019 19:45:00 11 C 77 % 7.13 C
2543 28-02-2019 19:50:00 11 C 77 % 7.13 C
2544 28-02-2019 19:55:00 11 C 78 % 7.32 C
2545 28-02-2019 20:00:00 11 C 78 % 7.32 C
2546 28-02-2019 20:05:00 11.1 C 78 % 7.41 C
2547 28-02-2019 20:10:00 11.1 C 78 % 7.41 C
2548 28-02-2019 20:15:00 11.1 C 78 % 7.41 C
2549 28-02-2019 20:20:00 11.1 C 78 % 7.41 C
2550 28-02-2019 20:25:00 11.1 C 79 % 7.6 C
Sensor: Nr:Datum:Temp:Feuchte:Taupunkt:
Aussen-T/F 2551 28-02-2019 20:30:00 11.1 C 79 % 7.6 C
2552 28-02-2019 20:35:00 11.1 C 79 % 7.6 C
2553 28-02-2019 20:40:00 11.1 C 79 % 7.6 C
2554 28-02-2019 20:45:00 11.1 C 79 % 7.6 C
2555 28-02-2019 20:50:00 11.1 C 79 % 7.6 C
2556 28-02-2019 20:55:00 11.1 C 79 % 7.6 C
2557 28-02-2019 21:00:00 11.1 C 80 % 7.79 C
2558 28-02-2019 21:05:00 11.1 C 80 % 7.79 C
2559 28-02-2019 21:10:00 11.1 C 81 % 7.97 C
2560 28-02-2019 21:15:00 11 C 81 % 7.87 C
2561 28-02-2019 21:20:00 10.9 C 81 % 7.77 C
2562 28-02-2019 21:25:00 10.9 C 81 % 7.77 C
2563 28-02-2019 21:30:00 10.9 C 81 % 7.77 C
2564 28-02-2019 21:35:00 10.9 C 81 % 7.77 C
2565 28-02-2019 21:40:00 10.9 C 81 % 7.77 C
2566 28-02-2019 21:45:00 10.9 C 81 % 7.77 C
2567 28-02-2019 21:50:00 11 C 81 % 7.87 C
2568 28-02-2019 21:55:00 11 C 80 % 7.69 C
2569 28-02-2019 22:00:00 10.9 C 80 % 7.59 C
2570 28-02-2019 22:05:00 10.9 C 81 % 7.77 C
2571 28-02-2019 22:10:00 10.9 C 81 % 7.77 C
2572 28-02-2019 22:15:00 10.9 C 81 % 7.77 C
2573 28-02-2019 22:20:00 10.9 C 82 % 7.95 C
2574 28-02-2019 22:25:00 10.9 C 82 % 7.95 C
2575 28-02-2019 22:30:00 10.8 C 82 % 7.85 C
Sensor: Nr:Datum:Temp:Feuchte:Taupunkt:
Aussen-T/F 2576 28-02-2019 22:35:00 10.8 C 82 % 7.85 C
2577 28-02-2019 22:40:00 10.8 C 82 % 7.85 C
2578 28-02-2019 22:45:00 10.8 C 82 % 7.85 C
2579 28-02-2019 22:50:00 10.8 C 83 % 8.03 C
2580 28-02-2019 22:55:00 10.7 C 83 % 7.93 C
2581 28-02-2019 23:00:00 10.7 C 83 % 7.93 C
2582 28-02-2019 23:05:00 10.7 C 83 % 7.93 C
2583 28-02-2019 23:10:00 10.7 C 84 % 8.11 C
2584 28-02-2019 23:15:00 10.6 C 85 % 8.19 C
2585 28-02-2019 23:20:00 10.6 C 85 % 8.19 C
2586 28-02-2019 23:25:00 10.4 C 86 % 8.16 C
2587 28-02-2019 23:30:00 10.3 C 87 % 8.23 C
2588 28-02-2019 23:35:00 10.2 C 88 % 8.3 C
2589 28-02-2019 23:40:00 9.9 C 89 % 8.17 C
2590 28-02-2019 23:45:00 9.8 C 89 % 8.08 C
2591 28-02-2019 23:50:00 9.7 C 90 % 8.14 C
2592 28-02-2019 23:55:00 9.6 C 90 % 8.04 C
2593 01-03-2019 00:00:00 9.5 C 91 % 8.11 C
2594 01-03-2019 00:05:00 9.4 C 91 % 8.01 C
2595 01-03-2019 00:10:00 9.3 C 92 % 8.07 C
2596 01-03-2019 00:15:00 9.3 C 92 % 8.07 C
2597 01-03-2019 00:20:00 9.2 C 92 % 7.97 C
2598 01-03-2019 00:25:00 9.1 C 92 % 7.87 C
2599 01-03-2019 00:30:00 9.1 C 92 % 7.87 C
2600 01-03-2019 00:35:00 9 C 92 % 7.77 C
Sensor: Nr:Datum:Temp:Feuchte:Taupunkt:
Aussen-T/F 2601 01-03-2019 00:40:00 8.9 C 92 % 7.67 C
2602 01-03-2019 00:45:00 8.8 C 92 % 7.57 C
2603 01-03-2019 00:50:00 8.7 C 92 % 7.47 C
2604 01-03-2019 00:55:00 8.6 C 93 % 7.53 C
2605 01-03-2019 01:00:00 8.6 C 93 % 7.53 C
2606 01-03-2019 01:05:00 8.7 C 93 % 7.63 C
2607 01-03-2019 01:10:00 8.8 C 94 % 7.89 C
2608 01-03-2019 01:15:00 8.8 C 94 % 7.89 C
2609 01-03-2019 01:20:00 8.8 C 94 % 7.89 C
2610 01-03-2019 01:25:00 8.7 C 94 % 7.79 C
2611 01-03-2019 01:30:00 8.7 C 94 % 7.79 C
2612 01-03-2019 01:35:00 8.7 C 94 % 7.79 C
2613 01-03-2019 01:40:00 8.6 C 93 % 7.53 C
2614 01-03-2019 01:45:00 8.6 C 94 % 7.69 C
2615 01-03-2019 01:50:00 8.6 C 94 % 7.69 C
2616 01-03-2019 01:55:00 8.6 C 94 % 7.69 C
2617 01-03-2019 02:00:00 8.6 C 94 % 7.69 C
2618 01-03-2019 02:05:00 8.6 C 94 % 7.69 C
2619 01-03-2019 02:10:00 8.7 C 94 % 7.79 C
2620 01-03-2019 02:15:00 8.7 C 94 % 7.79 C
2621 01-03-2019 02:20:00 8.7 C 93 % 7.63 C
2622 01-03-2019 02:25:00 8.7 C 93 % 7.63 C
2623 01-03-2019 02:30:00 8.8 C 93 % 7.73 C
2624 01-03-2019 02:35:00 8.7 C 93 % 7.63 C
2625 01-03-2019 02:40:00 8.7 C 93 % 7.63 C
Sensor: Nr:Datum:Temp:Feuchte:Taupunkt:
Aussen-T/F 2626 01-03-2019 02:45:00 8.7 C 93 % 7.63 C
2627 01-03-2019 02:50:00 8.7 C 93 % 7.63 C
2628 01-03-2019 02:55:00 8.7 C 93 % 7.63 C
2629 01-03-2019 03:00:00 8.7 C 92 % 7.47 C
2630 01-03-2019 03:05:00 8.8 C 92 % 7.57 C
2631 01-03-2019 03:10:00 8.7 C 92 % 7.47 C
2632 01-03-2019 03:15:00 8.7 C 92 % 7.47 C
2633 01-03-2019 03:20:00 8.8 C 92 % 7.57 C
2634 01-03-2019 03:25:00 8.8 C 92 % 7.57 C
2635 01-03-2019 03:30:00 8.8 C 91 % 7.41 C
2636 01-03-2019 03:35:00 8.9 C 91 % 7.51 C
2637 01-03-2019 03:40:00 8.9 C 91 % 7.51 C
2638 01-03-2019 03:45:00 8.9 C 91 % 7.51 C
2639 01-03-2019 03:50:00 8.8 C 91 % 7.41 C
2640 01-03-2019 03:55:00 8.8 C 91 % 7.41 C
2641 01-03-2019 04:00:00 8.8 C 91 % 7.41 C
2642 01-03-2019 04:05:00 8.8 C 91 % 7.41 C
2643 01-03-2019 04:10:00 8.8 C 91 % 7.41 C
2644 01-03-2019 04:15:00 8.8 C 91 % 7.41 C
2645 01-03-2019 04:20:00 8.8 C 91 % 7.41 C
2646 01-03-2019 04:25:00 8.8 C 91 % 7.41 C
2647 01-03-2019 04:30:00 8.8 C 91 % 7.41 C
2648 01-03-2019 04:35:00 8.7 C 91 % 7.32 C
2649 01-03-2019 04:40:00 8.7 C 91 % 7.32 C
2650 01-03-2019 04:45:00 8.7 C 91 % 7.32 C
Sensor: Nr:Datum:Temp:Feuchte:Taupunkt:
Aussen-T/F 2651 01-03-2019 04:50:00 8.7 C 91 % 7.32 C
2652 01-03-2019 04:55:00 8.7 C 91 % 7.32 C
2653 01-03-2019 05:00:00 8.7 C 91 % 7.32 C
2654 01-03-2019 05:05:00 8.7 C 91 % 7.32 C
2655 01-03-2019 05:10:00 8.7 C 91 % 7.32 C
2656 01-03-2019 05:15:00 8.7 C 91 % 7.32 C
2657 01-03-2019 05:20:00 8.7 C 91 % 7.32 C
2658 01-03-2019 05:25:00 8.7 C 92 % 7.47 C
2659 01-03-2019 05:30:00 8.7 C 92 % 7.47 C
2660 01-03-2019 05:35:00 8.6 C 92 % 7.38 C
2661 01-03-2019 05:40:00 8.6 C 92 % 7.38 C
2662 01-03-2019 05:45:00 8.5 C 92 % 7.28 C
2663 01-03-2019 05:50:00 8.5 C 93 % 7.43 C
2664 01-03-2019 05:55:00 8.5 C 93 % 7.43 C
2665 01-03-2019 06:00:00 8.4 C 93 % 7.34 C
2666 01-03-2019 06:05:00 8.4 C 93 % 7.34 C
2667 01-03-2019 06:10:00 8.4 C 93 % 7.34 C
2668 01-03-2019 06:15:00 8.3 C 94 % 7.39 C
2669 01-03-2019 06:20:00 8.3 C 93 % 7.24 C
2670 01-03-2019 06:25:00 8.2 C 93 % 7.14 C
2671 01-03-2019 06:30:00 8.2 C 94 % 7.29 C
2672 01-03-2019 06:35:00 8.1 C 94 % 7.19 C
2673 01-03-2019 06:40:00 8.1 C 94 % 7.19 C
2674 01-03-2019 06:45:00 8.1 C 94 % 7.19 C
2675 01-03-2019 06:50:00 8 C 94 % 7.09 C
Sensor: Nr:Datum:Temp:Feuchte:Taupunkt:
Aussen-T/F 2676 01-03-2019 06:55:00 8 C 94 % 7.09 C
2677 01-03-2019 07:00:00 8 C 94 % 7.09 C
2678 01-03-2019 07:05:00 8.1 C 95 % 7.35 C
2679 01-03-2019 07:10:00 8.1 C 95 % 7.35 C
2680 01-03-2019 07:15:00 8.2 C 95 % 7.45 C
2681 01-03-2019 07:20:00 8.2 C 95 % 7.45 C
2682 01-03-2019 07:25:00 8.2 C 95 % 7.45 C
2683 01-03-2019 07:30:00 8.3 C 95 % 7.55 C
2684 01-03-2019 07:35:00 8.3 C 95 % 7.55 C
2685 01-03-2019 07:40:00 8.3 C 95 % 7.55 C
2686 01-03-2019 07:45:00 8.3 C 95 % 7.55 C
2687 01-03-2019 07:50:00 8.3 C 95 % 7.55 C
2688 01-03-2019 07:55:00 8.3 C 95 % 7.55 C
2689 01-03-2019 08:00:00 8.3 C 95 % 7.55 C
2690 01-03-2019 08:05:00 8.3 C 95 % 7.55 C
2691 01-03-2019 08:10:00 8.4 C 95 % 7.65 C
2692 01-03-2019 08:15:00 8.4 C 95 % 7.65 C
2693 01-03-2019 08:20:00 8.5 C 95 % 7.75 C
2694 01-03-2019 08:25:00 8.6 C 95 % 7.85 C
2695 01-03-2019 08:30:00 8.6 C 95 % 7.85 C
2696 01-03-2019 08:35:00 8.6 C 95 % 7.85 C
2697 01-03-2019 08:40:00 8.6 C 95 % 7.85 C
2698 01-03-2019 08:45:00 8.7 C 95 % 7.94 C
2699 01-03-2019 08:50:00 8.7 C 95 % 7.94 C
2700 01-03-2019 08:55:00 8.7 C 95 % 7.94 C
Sensor: Nr:Datum:Temp:Feuchte:Taupunkt:
Aussen-T/F 2701 01-03-2019 09:00:00 8.7 C 95 % 7.94 C
2702 01-03-2019 09:05:00 8.7 C 95 % 7.94 C
2703 01-03-2019 09:10:00 8.7 C 95 % 7.94 C
2704 01-03-2019 09:15:00 8.7 C 95 % 7.94 C
2705 01-03-2019 09:20:00 8.7 C 95 % 7.94 C
2706 01-03-2019 09:25:00 8.7 C 95 % 7.94 C
2707 01-03-2019 09:30:00 8.7 C 95 % 7.94 C
2708 01-03-2019 09:35:00 8.7 C 95 % 7.94 C
2709 01-03-2019 09:40:00 8.7 C 95 % 7.94 C
2710 01-03-2019 09:45:00 8.7 C 95 % 7.94 C
2711 01-03-2019 09:50:00 8.6 C 95 % 7.85 C
2712 01-03-2019 09:55:00 8.6 C 95 % 7.85 C
2713 01-03-2019 10:00:00 8.6 C 95 % 7.85 C
2714 01-03-2019 10:05:00 8.6 C 96 % 8 C
2715 01-03-2019 10:10:00 8.6 C 96 % 8 C
2716 01-03-2019 10:15:00 8.6 C 96 % 8 C
2717 01-03-2019 10:20:00 8.6 C 96 % 8 C
2718 01-03-2019 10:25:00 8.6 C 96 % 8 C
2719 01-03-2019 10:30:00 8.6 C 96 % 8 C
2720 01-03-2019 10:35:00 8.7 C 96 % 8.1 C
2721 01-03-2019 10:40:00 8.7 C 96 % 8.1 C
2722 01-03-2019 10:45:00 8.8 C 96 % 8.2 C
2723 01-03-2019 10:50:00 8.8 C 96 % 8.2 C
2724 01-03-2019 10:55:00 8.8 C 96 % 8.2 C
2725 01-03-2019 11:00:00 8.8 C 96 % 8.2 C
Sensor: Nr:Datum:Temp:Feuchte:Taupunkt:
Aussen-T/F 2726 01-03-2019 11:05:00 8.7 C 95 % 7.94 C
2727 01-03-2019 11:10:00 8.7 C 95 % 7.94 C
2728 01-03-2019 11:15:00 8.7 C 95 % 7.94 C
2729 01-03-2019 11:20:00 8.7 C 95 % 7.94 C
2730 01-03-2019 11:25:00 8.7 C 95 % 7.94 C
2731 01-03-2019 11:30:00 8.6 C 95 % 7.85 C
2732 01-03-2019 11:35:00 8.7 C 95 % 7.94 C
2733 01-03-2019 11:40:00 8.7 C 95 % 7.94 C
2734 01-03-2019 11:45:00 8.8 C 95 % 8.04 C
2735 01-03-2019 11:50:00 8.9 C 95 % 8.14 C
2736 01-03-2019 11:55:00 9.1 C 95 % 8.34 C
2737 01-03-2019 12:00:00 9.1 C 94 % 8.19 C
2738 01-03-2019 12:05:00 9.1 C 94 % 8.19 C
2739 01-03-2019 12:10:00 9.1 C 93 % 8.03 C
2740 01-03-2019 12:15:00 9.1 C 92 % 7.87 C
2741 01-03-2019 12:20:00 9.1 C 92 % 7.87 C
2742 01-03-2019 12:25:00 9.1 C 91 % 7.71 C
2743 01-03-2019 12:30:00 9 C 91 % 7.61 C
2744 01-03-2019 12:35:00 9.1 C 90 % 7.55 C
2745 01-03-2019 12:40:00 9 C 90 % 7.45 C
2746 01-03-2019 12:45:00 8.9 C 90 % 7.35 C
2747 01-03-2019 12:50:00 8.8 C 90 % 7.25 C
2748 01-03-2019 12:55:00 8.8 C 90 % 7.25 C
2749 01-03-2019 13:00:00 8.7 C 91 % 7.32 C
2750 01-03-2019 13:05:00 8.7 C 91 % 7.32 C
Sensor: Nr:Datum:Temp:Feuchte:Taupunkt:
Aussen-T/F 2751 01-03-2019 13:10:00 8.7 C 91 % 7.32 C
2752 01-03-2019 13:15:00 8.6 C 91 % 7.22 C
2753 01-03-2019 13:20:00 8.5 C 91 % 7.12 C
2754 01-03-2019 13:25:00 8.4 C 91 % 7.02 C
2755 01-03-2019 13:30:00 8.4 C 92 % 7.18 C
2756 01-03-2019 13:35:00 8.4 C 92 % 7.18 C
2757 01-03-2019 13:40:00 8.3 C 92 % 7.08 C
2758 01-03-2019 13:45:00 8.4 C 92 % 7.18 C
2759 01-03-2019 13:50:00 8.4 C 92 % 7.18 C
2760 01-03-2019 13:55:00 8.4 C 92 % 7.18 C
2761 01-03-2019 14:00:00 8.4 C 92 % 7.18 C
2762 01-03-2019 14:05:00 8.4 C 92 % 7.18 C
2763 01-03-2019 14:10:00 8.4 C 92 % 7.18 C
2764 01-03-2019 14:15:00 8.3 C 91 % 6.92 C
2765 01-03-2019 14:20:00 8.4 C 91 % 7.02 C
2766 01-03-2019 14:25:00 8.4 C 91 % 7.02 C
2767 01-03-2019 14:30:00 8.3 C 90 % 6.76 C
2768 01-03-2019 14:35:00 8.4 C 90 % 6.86 C
2769 01-03-2019 14:40:00 8.4 C 89 % 6.7 C
2770 01-03-2019 14:45:00 8.4 C 89 % 6.7 C
2771 01-03-2019 14:50:00 8.4 C 89 % 6.7 C
2772 01-03-2019 14:55:00 8.4 C 89 % 6.7 C
2773 01-03-2019 15:00:00 8.4 C 89 % 6.7 C
2774 01-03-2019 15:05:00 8.4 C 89 % 6.7 C
2775 01-03-2019 15:10:00 8.4 C 90 % 6.86 C
Sensor: Nr:Datum:Temp:Feuchte:Taupunkt:
Aussen-T/F 2776 01-03-2019 15:15:00 8.3 C 89 % 6.6 C
2777 01-03-2019 15:20:00 8.3 C 89 % 6.6 C
2778 01-03-2019 15:25:00 8.3 C 90 % 6.76 C
2779 01-03-2019 15:30:00 8.3 C 90 % 6.76 C
2780 01-03-2019 15:35:00 8.3 C 90 % 6.76 C
2781 01-03-2019 15:40:00 8.3 C 90 % 6.76 C
2782 01-03-2019 15:45:00 8.3 C 90 % 6.76 C
2783 01-03-2019 15:50:00 8.3 C 90 % 6.76 C
2784 01-03-2019 15:55:00 8.3 C 90 % 6.76 C
2785 01-03-2019 16:00:00 8.3 C 90 % 6.76 C
2786 01-03-2019 16:05:00 8.4 C 90 % 6.86 C
2787 01-03-2019 16:10:00 8.4 C 90 % 6.86 C
2788 01-03-2019 16:15:00 8.4 C 90 % 6.86 C
2789 01-03-2019 16:20:00 8.4 C 90 % 6.86 C
2790 01-03-2019 16:25:00 8.3 C 91 % 6.92 C
2791 01-03-2019 16:30:00 8.3 C 91 % 6.92 C
2792 01-03-2019 16:35:00 8.3 C 90 % 6.76 C
2793 01-03-2019 16:40:00 8.3 C 91 % 6.92 C
2794 01-03-2019 16:45:00 8.3 C 91 % 6.92 C
2795 01-03-2019 16:50:00 8.4 C 91 % 7.02 C
2796 01-03-2019 16:55:00 8.3 C 91 % 6.92 C
2797 01-03-2019 17:00:00 8.3 C 91 % 6.92 C
2798 01-03-2019 17:05:00 8.3 C 91 % 6.92 C
2799 01-03-2019 17:10:00 8.3 C 91 % 6.92 C
2800 01-03-2019 17:15:00 8.3 C 91 % 6.92 C
Sensor: Nr:Datum:Temp:Feuchte:Taupunkt:
Aussen-T/F 2801 01-03-2019 17:20:00 8.3 C 91 % 6.92 C
2802 01-03-2019 17:25:00 8.3 C 91 % 6.92 C
2803 01-03-2019 17:30:00 8.2 C 91 % 6.82 C
2804 01-03-2019 17:35:00 8.2 C 91 % 6.82 C
2805 01-03-2019 17:40:00 8.3 C 91 % 6.92 C
2806 01-03-2019 17:45:00 8.3 C 91 % 6.92 C
2807 01-03-2019 17:50:00 8.3 C 91 % 6.92 C
2808 01-03-2019 17:55:00 8.3 C 91 % 6.92 C
2809 01-03-2019 18:00:00 8.2 C 90 % 6.66 C
2810 01-03-2019 18:05:00 8 C 90 % 6.46 C
2811 01-03-2019 18:10:00 7.8 C 90 % 6.27 C
2812 01-03-2019 18:15:00 7.8 C 90 % 6.27 C
2813 01-03-2019 18:20:00 7.7 C 89 % 6 C
2814 01-03-2019 18:25:00 7.6 C 89 % 5.91 C
2815 01-03-2019 18:30:00 7.6 C 89 % 5.91 C
2816 01-03-2019 18:35:00 7.5 C 89 % 5.81 C
2817 01-03-2019 18:40:00 7.4 C 89 % 5.71 C
2818 01-03-2019 18:45:00 7.3 C 89 % 5.61 C
2819 01-03-2019 18:50:00 7.3 C 89 % 5.61 C
2820 01-03-2019 18:55:00 7.2 C 90 % 5.67 C
2821 01-03-2019 19:00:00 7.2 C 90 % 5.67 C
2822 01-03-2019 19:05:00 7.1 C 90 % 5.57 C
2823 01-03-2019 19:10:00 7.1 C 89 % 5.41 C
2824 01-03-2019 19:15:00 7 C 90 % 5.48 C
2825 01-03-2019 19:20:00 6.9 C 90 % 5.38 C
Sensor: Nr:Datum:Temp:Feuchte:Taupunkt:
Aussen-T/F 2826 01-03-2019 19:25:00 6.9 C 90 % 5.38 C
2827 01-03-2019 19:30:00 6.8 C 90 % 5.28 C
2828 01-03-2019 19:35:00 6.8 C 90 % 5.28 C
2829 01-03-2019 19:40:00 6.8 C 90 % 5.28 C
2830 01-03-2019 19:45:00 6.8 C 90 % 5.28 C
2831 01-03-2019 19:50:00 6.7 C 90 % 5.18 C
2832 01-03-2019 19:55:00 6.7 C 90 % 5.18 C
2833 01-03-2019 20:00:00 6.7 C 91 % 5.34 C
2834 01-03-2019 20:05:00 6.7 C 91 % 5.34 C
2835 01-03-2019 20:10:00 6.7 C 91 % 5.34 C
2836 01-03-2019 20:15:00 6.7 C 91 % 5.34 C
2837 01-03-2019 20:20:00 6.6 C 91 % 5.24 C
2838 01-03-2019 20:25:00 6.6 C 91 % 5.24 C
2839 01-03-2019 20:30:00 6.6 C 91 % 5.24 C
2840 01-03-2019 20:35:00 6.6 C 91 % 5.24 C
2841 01-03-2019 20:40:00 6.6 C 91 % 5.24 C
2842 01-03-2019 20:45:00 6.6 C 91 % 5.24 C
2843 01-03-2019 20:50:00 6.6 C 91 % 5.24 C
2844 01-03-2019 20:55:00 6.5 C 91 % 5.14 C
2845 01-03-2019 21:00:00 6.5 C 91 % 5.14 C
2846 01-03-2019 21:05:00 6.5 C 91 % 5.14 C
2847 01-03-2019 21:10:00 6.4 C 91 % 5.04 C
2848 01-03-2019 21:15:00 6.4 C 91 % 5.04 C
2849 01-03-2019 21:20:00 6.4 C 91 % 5.04 C
2850 01-03-2019 21:25:00 6.4 C 91 % 5.04 C
Sensor: Nr:Datum:Temp:Feuchte:Taupunkt:
Aussen-T/F 2851 01-03-2019 21:30:00 6.5 C 90 % 4.98 C
2852 01-03-2019 21:35:00 6.5 C 91 % 5.14 C
2853 01-03-2019 21:40:00 6.5 C 91 % 5.14 C
2854 01-03-2019 21:45:00 6.5 C 90 % 4.98 C
2855 01-03-2019 21:50:00 6.4 C 90 % 4.88 C
2856 01-03-2019 21:55:00 6.4 C 90 % 4.88 C
2857 01-03-2019 22:00:00 6.4 C 90 % 4.88 C
2858 01-03-2019 22:05:00 6.4 C 91 % 5.04 C
2859 01-03-2019 22:10:00 6.3 C 91 % 4.94 C
2860 01-03-2019 22:15:00 6.3 C 91 % 4.94 C
2861 01-03-2019 22:20:00 6.3 C 91 % 4.94 C
2862 01-03-2019 22:25:00 6.3 C 91 % 4.94 C
2863 01-03-2019 22:30:00 6.3 C 91 % 4.94 C
2864 01-03-2019 22:35:00 6.3 C 90 % 4.78 C
2865 01-03-2019 22:40:00 6.4 C 90 % 4.88 C
2866 01-03-2019 22:45:00 6.4 C 89 % 4.72 C
2867 01-03-2019 22:50:00 6.5 C 89 % 4.82 C
2868 01-03-2019 22:55:00 6.6 C 88 % 4.76 C
2869 01-03-2019 23:00:00 6.6 C 88 % 4.76 C
2870 01-03-2019 23:05:00 6.7 C 88 % 4.86 C
2871 01-03-2019 23:10:00 6.7 C 88 % 4.86 C
2872 01-03-2019 23:15:00 6.6 C 88 % 4.76 C
2873 01-03-2019 23:20:00 6.6 C 88 % 4.76 C
2874 01-03-2019 23:25:00 6.6 C 88 % 4.76 C
2875 01-03-2019 23:30:00 6.6 C 88 % 4.76 C
Sensor: Nr:Datum:Temp:Feuchte:Taupunkt:
Aussen-T/F 2876 01-03-2019 23:35:00 6.5 C 89 % 4.82 C
2877 01-03-2019 23:40:00 6.4 C 89 % 4.72 C
2878 01-03-2019 23:45:00 6.4 C 89 % 4.72 C
2879 01-03-2019 23:50:00 6.4 C 90 % 4.88 C
2880 01-03-2019 23:55:00 6.3 C 90 % 4.78 C
2881 02-03-2019 00:00:00 6.3 C 90 % 4.78 C
2882 02-03-2019 00:05:00 6.3 C 89 % 4.62 C
2883 02-03-2019 00:10:00 6.2 C 90 % 4.69 C
2884 02-03-2019 00:15:00 6.2 C 90 % 4.69 C
2885 02-03-2019 00:20:00 6.2 C 90 % 4.69 C
2886 02-03-2019 00:25:00 6.2 C 90 % 4.69 C
2887 02-03-2019 00:30:00 6.2 C 90 % 4.69 C
2888 02-03-2019 00:35:00 6.2 C 89 % 4.53 C
2889 02-03-2019 00:40:00 6.2 C 88 % 4.36 C
2890 02-03-2019 00:45:00 6.1 C 88 % 4.27 C
2891 02-03-2019 00:50:00 6.1 C 88 % 4.27 C
2892 02-03-2019 00:55:00 6.1 C 88 % 4.27 C
2893 02-03-2019 01:00:00 6.1 C 88 % 4.27 C
2894 02-03-2019 01:05:00 6 C 88 % 4.17 C
2895 02-03-2019 01:10:00 5.9 C 88 % 4.07 C
2896 02-03-2019 01:15:00 5.9 C 89 % 4.23 C
2897 02-03-2019 01:20:00 5.9 C 89 % 4.23 C
2898 02-03-2019 01:25:00 5.8 C 89 % 4.13 C
2899 02-03-2019 01:30:00 5.8 C 89 % 4.13 C
2900 02-03-2019 01:35:00 5.8 C 89 % 4.13 C
Sensor: Nr:Datum:Temp:Feuchte:Taupunkt:
Aussen-T/F 2901 02-03-2019 01:40:00 5.8 C 90 % 4.29 C
2902 02-03-2019 01:45:00 5.8 C 90 % 4.29 C
2903 02-03-2019 01:50:00 5.7 C 90 % 4.19 C
2904 02-03-2019 01:55:00 5.7 C 90 % 4.19 C
2905 02-03-2019 02:00:00 5.7 C 90 % 4.19 C
2906 02-03-2019 02:05:00 5.7 C 90 % 4.19 C
2907 02-03-2019 02:10:00 5.7 C 91 % 4.35 C
2908 02-03-2019 02:15:00 5.7 C 91 % 4.35 C
2909 02-03-2019 02:20:00 5.7 C 91 % 4.35 C
2910 02-03-2019 02:25:00 5.6 C 90 % 4.09 C
2911 02-03-2019 02:30:00 5.6 C 91 % 4.25 C
2912 02-03-2019 02:35:00 5.6 C 91 % 4.25 C
2913 02-03-2019 02:40:00 5.6 C 91 % 4.25 C
2914 02-03-2019 02:45:00 5.6 C 91 % 4.25 C
2915 02-03-2019 02:50:00 5.6 C 91 % 4.25 C
2916 02-03-2019 02:55:00 5.6 C 91 % 4.25 C
2917 02-03-2019 03:00:00 5.6 C 91 % 4.25 C
2918 02-03-2019 03:05:00 5.6 C 91 % 4.25 C
2919 02-03-2019 03:10:00 5.6 C 91 % 4.25 C
2920 02-03-2019 03:15:00 5.6 C 91 % 4.25 C
2921 02-03-2019 03:20:00 5.6 C 91 % 4.25 C
2922 02-03-2019 03:25:00 5.6 C 91 % 4.25 C
2923 02-03-2019 03:30:00 5.7 C 91 % 4.35 C
2924 02-03-2019 03:35:00 5.7 C 91 % 4.35 C
2925 02-03-2019 03:40:00 5.7 C 90 % 4.19 C
Sensor: Nr:Datum:Temp:Feuchte:Taupunkt:
Aussen-T/F 2926 02-03-2019 03:45:00 5.7 C 90 % 4.19 C
2927 02-03-2019 03:50:00 5.7 C 90 % 4.19 C
2928 02-03-2019 03:55:00 5.7 C 90 % 4.19 C
2929 02-03-2019 04:00:00 5.7 C 90 % 4.19 C
2930 02-03-2019 04:05:00 5.7 C 91 % 4.35 C
2931 02-03-2019 04:10:00 5.7 C 91 % 4.35 C
2932 02-03-2019 04:15:00 5.6 C 90 % 4.09 C
2933 02-03-2019 04:20:00 5.6 C 91 % 4.25 C
2934 02-03-2019 04:25:00 5.6 C 91 % 4.25 C
2935 02-03-2019 04:30:00 5.7 C 91 % 4.35 C
2936 02-03-2019 04:35:00 5.7 C 91 % 4.35 C
2937 02-03-2019 04:40:00 5.7 C 91 % 4.35 C
2938 02-03-2019 04:45:00 5.8 C 92 % 4.6 C
2939 02-03-2019 04:50:00 5.8 C 91 % 4.45 C
2940 02-03-2019 04:55:00 5.8 C 91 % 4.45 C
2941 02-03-2019 05:00:00 5.8 C 91 % 4.45 C
2942 02-03-2019 05:05:00 5.9 C 91 % 4.55 C
2943 02-03-2019 05:10:00 5.9 C 91 % 4.55 C
2944 02-03-2019 05:15:00 5.9 C 91 % 4.55 C
2945 02-03-2019 05:20:00 6 C 91 % 4.65 C
2946 02-03-2019 05:25:00 6.1 C 91 % 4.74 C
2947 02-03-2019 05:30:00 6.2 C 91 % 4.84 C
2948 02-03-2019 05:35:00 6.3 C 91 % 4.94 C
2949 02-03-2019 05:40:00 6.3 C 91 % 4.94 C
2950 02-03-2019 05:45:00 6.3 C 91 % 4.94 C
Sensor: Nr:Datum:Temp:Feuchte:Taupunkt:
Aussen-T/F 2951 02-03-2019 05:50:00 6.3 C 91 % 4.94 C
2952 02-03-2019 05:55:00 6.3 C 91 % 4.94 C
2953 02-03-2019 06:00:00 6.3 C 91 % 4.94 C
2954 02-03-2019 06:05:00 6.3 C 91 % 4.94 C
2955 02-03-2019 06:10:00 6.3 C 91 % 4.94 C
2956 02-03-2019 06:15:00 6.3 C 91 % 4.94 C
2957 02-03-2019 06:20:00 6.3 C 91 % 4.94 C
2958 02-03-2019 06:25:00 6.3 C 91 % 4.94 C
2959 02-03-2019 06:30:00 6.3 C 91 % 4.94 C
2960 02-03-2019 06:35:00 6.3 C 91 % 4.94 C
2961 02-03-2019 06:40:00 6.3 C 91 % 4.94 C
2962 02-03-2019 06:45:00 6.3 C 91 % 4.94 C
2963 02-03-2019 06:50:00 6.3 C 91 % 4.94 C
2964 02-03-2019 06:55:00 6.4 C 91 % 5.04 C
2965 02-03-2019 07:00:00 6.4 C 91 % 5.04 C
2966 02-03-2019 07:05:00 6.6 C 91 % 5.24 C
2967 02-03-2019 07:10:00 6.6 C 91 % 5.24 C
2968 02-03-2019 07:15:00 6.6 C 91 % 5.24 C
2969 02-03-2019 07:20:00 6.7 C 91 % 5.34 C
2970 02-03-2019 07:25:00 6.7 C 91 % 5.34 C
2971 02-03-2019 07:30:00 6.7 C 91 % 5.34 C
2972 02-03-2019 07:35:00 6.7 C 91 % 5.34 C
2973 02-03-2019 07:40:00 6.7 C 91 % 5.34 C
2974 02-03-2019 07:45:00 6.7 C 91 % 5.34 C
2975 02-03-2019 07:50:00 6.7 C 91 % 5.34 C
Sensor: Nr:Datum:Temp:Feuchte:Taupunkt:
Aussen-T/F 2976 02-03-2019 07:55:00 6.7 C 91 % 5.34 C
2977 02-03-2019 08:00:00 6.8 C 91 % 5.44 C
2978 02-03-2019 08:05:00 6.8 C 91 % 5.44 C
2979 02-03-2019 08:10:00 6.8 C 91 % 5.44 C
2980 02-03-2019 08:15:00 6.9 C 90 % 5.38 C
2981 02-03-2019 08:20:00 6.9 C 91 % 5.54 C
2982 02-03-2019 08:25:00 7 C 91 % 5.63 C
2983 02-03-2019 08:30:00 7.1 C 90 % 5.57 C
2984 02-03-2019 08:35:00 7.1 C 90 % 5.57 C
2985 02-03-2019 08:40:00 7.1 C 90 % 5.57 C
2986 02-03-2019 08:45:00 7.2 C 90 % 5.67 C
2987 02-03-2019 08:50:00 7.2 C 90 % 5.67 C
2988 02-03-2019 08:55:00 7.3 C 90 % 5.77 C
2989 02-03-2019 09:00:00 7.3 C 90 % 5.77 C
2990 02-03-2019 09:05:00 7.4 C 90 % 5.87 C
2991 02-03-2019 09:10:00 7.5 C 90 % 5.97 C
2992 02-03-2019 09:15:00 7.6 C 89 % 5.91 C
2993 02-03-2019 09:20:00 7.6 C 89 % 5.91 C
2994 02-03-2019 09:25:00 7.7 C 89 % 6 C
2995 02-03-2019 09:30:00 7.7 C 89 % 6 C
2996 02-03-2019 09:35:00 7.8 C 89 % 6.1 C
2997 02-03-2019 09:40:00 7.8 C 88 % 5.94 C
2998 02-03-2019 09:45:00 7.8 C 88 % 5.94 C
2999 02-03-2019 09:50:00 7.9 C 88 % 6.04 C
3000 02-03-2019 09:55:00 7.9 C 88 % 6.04 C
Sensor: Nr:Datum:Temp:Feuchte:Taupunkt:
Aussen-T/F 3001 02-03-2019 10:00:00 7.9 C 88 % 6.04 C
3002 02-03-2019 10:05:00 7.9 C 88 % 6.04 C
3003 02-03-2019 10:10:00 7.9 C 88 % 6.04 C
3004 02-03-2019 10:15:00 7.9 C 88 % 6.04 C
3005 02-03-2019 10:20:00 7.9 C 88 % 6.04 C
3006 02-03-2019 10:25:00 8 C 88 % 6.14 C
3007 02-03-2019 10:30:00 8.1 C 88 % 6.24 C
3008 02-03-2019 10:35:00 8.1 C 87 % 6.07 C
3009 02-03-2019 10:40:00 8.1 C 88 % 6.24 C
3010 02-03-2019 10:45:00 8.2 C 88 % 6.33 C
3011 02-03-2019 10:50:00 8.3 C 87 % 6.27 C
3012 02-03-2019 10:55:00 8.3 C 87 % 6.27 C
3013 02-03-2019 11:00:00 8.4 C 87 % 6.37 C
3014 02-03-2019 11:05:00 8.6 C 87 % 6.56 C
3015 02-03-2019 11:10:00 8.7 C 86 % 6.49 C
3016 02-03-2019 11:15:00 8.7 C 86 % 6.49 C
3017 02-03-2019 11:20:00 8.8 C 86 % 6.59 C
3018 02-03-2019 11:25:00 8.9 C 86 % 6.69 C
3019 02-03-2019 11:30:00 9.1 C 86 % 6.89 C
3020 02-03-2019 11:35:00 9.2 C 85 % 6.81 C
3021 02-03-2019 11:40:00 9.3 C 84 % 6.74 C
3022 02-03-2019 11:45:00 9.3 C 85 % 6.91 C
3023 02-03-2019 11:50:00 9.4 C 84 % 6.84 C
3024 02-03-2019 11:55:00 9.5 C 83 % 6.76 C
3025 02-03-2019 12:00:00 9.6 C 84 % 7.03 C
Sensor: Nr:Datum:Temp:Feuchte:Taupunkt:
Aussen-T/F 3026 02-03-2019 12:05:00 9.7 C 84 % 7.13 C
3027 02-03-2019 12:10:00 9.8 C 84 % 7.23 C
3028 02-03-2019 12:15:00 10 C 83 % 7.25 C
3029 02-03-2019 12:20:00 10.1 C 83 % 7.35 C
3030 02-03-2019 12:25:00 10.1 C 83 % 7.35 C
3031 02-03-2019 12:30:00 10.1 C 82 % 7.17 C
3032 02-03-2019 12:35:00 10.1 C 82 % 7.17 C
3033 02-03-2019 12:40:00 10 C 82 % 7.07 C
3034 02-03-2019 12:45:00 9.9 C 82 % 6.98 C
3035 02-03-2019 12:50:00 9.9 C 83 % 7.15 C
3036 02-03-2019 12:55:00 10 C 82 % 7.07 C
3037 02-03-2019 13:00:00 10 C 82 % 7.07 C
3038 02-03-2019 13:05:00 10.2 C 83 % 7.45 C
3039 02-03-2019 13:10:00 10.4 C 82 % 7.46 C
3040 02-03-2019 13:15:00 10.6 C 81 % 7.48 C
3041 02-03-2019 13:20:00 10.7 C 80 % 7.4 C
3042 02-03-2019 13:25:00 10.7 C 79 % 7.21 C
3043 02-03-2019 13:30:00 10.7 C 79 % 7.21 C
3044 02-03-2019 13:35:00 10.7 C 79 % 7.21 C
3045 02-03-2019 13:40:00 10.7 C 79 % 7.21 C
3046 02-03-2019 13:45:00 10.8 C 79 % 7.31 C
3047 02-03-2019 13:50:00 11 C 78 % 7.32 C
3048 02-03-2019 13:55:00 11.1 C 78 % 7.41 C
3049 02-03-2019 14:00:00 11.1 C 77 % 7.23 C
3050 02-03-2019 14:05:00 11.2 C 77 % 7.32 C
Sensor: Nr:Datum:Temp:Feuchte:Taupunkt:
Aussen-T/F 3051 02-03-2019 14:10:00 11.2 C 77 % 7.32 C
3052 02-03-2019 14:15:00 11.3 C 76 % 7.23 C
3053 02-03-2019 14:20:00 11.4 C 75 % 7.13 C
3054 02-03-2019 14:25:00 11.4 C 75 % 7.13 C
3055 02-03-2019 14:30:00 11.4 C 75 % 7.13 C
3056 02-03-2019 14:35:00 11.5 C 76 % 7.42 C
3057 02-03-2019 14:40:00 11.6 C 75 % 7.33 C
3058 02-03-2019 14:45:00 11.6 C 75 % 7.33 C
3059 02-03-2019 14:50:00 11.6 C 75 % 7.33 C
3060 02-03-2019 14:55:00 11.6 C 74 % 7.13 C
3061 02-03-2019 15:00:00 11.7 C 74 % 7.23 C
3062 02-03-2019 15:05:00 11.7 C 74 % 7.23 C
3063 02-03-2019 15:10:00 11.8 C 73 % 7.12 C
3064 02-03-2019 15:15:00 11.8 C 73 % 7.12 C
3065 02-03-2019 15:20:00 11.8 C 72 % 6.92 C
3066 02-03-2019 15:25:00 11.9 C 72 % 7.02 C
3067 02-03-2019 15:30:00 11.9 C 72 % 7.02 C
3068 02-03-2019 15:35:00 12 C 72 % 7.12 C
3069 02-03-2019 15:40:00 12 C 71 % 6.91 C
3070 02-03-2019 15:45:00 12.1 C 72 % 7.21 C
3071 02-03-2019 15:50:00 12.2 C 72 % 7.31 C
3072 02-03-2019 15:55:00 12.2 C 71 % 7.1 C
3073 02-03-2019 16:00:00 12.3 C 70 % 6.99 C
3074 02-03-2019 16:05:00 12.3 C 70 % 6.99 C
3075 02-03-2019 16:10:00 12.3 C 70 % 6.99 C
Sensor: Nr:Datum:Temp:Feuchte:Taupunkt:
Aussen-T/F 3076 02-03-2019 16:15:00 12.5 C 70 % 7.18 C
3077 02-03-2019 16:20:00 12.6 C 70 % 7.28 C
3078 02-03-2019 16:25:00 12.6 C 70 % 7.28 C
3079 02-03-2019 16:30:00 12.6 C 70 % 7.28 C
3080 02-03-2019 16:35:00 12.4 C 70 % 7.09 C
3081 02-03-2019 16:40:00 12.3 C 71 % 7.2 C
3082 02-03-2019 16:45:00 12.2 C 71 % 7.1 C
3083 02-03-2019 16:50:00 12.1 C 71 % 7.01 C
3084 02-03-2019 16:55:00 12 C 72 % 7.12 C
3085 02-03-2019 17:00:00 11.9 C 73 % 7.22 C
3086 02-03-2019 17:05:00 11.8 C 73 % 7.12 C
3087 02-03-2019 17:10:00 11.7 C 74 % 7.23 C
3088 02-03-2019 17:15:00 11.5 C 74 % 7.03 C
3089 02-03-2019 17:20:00 11.4 C 75 % 7.13 C
3090 02-03-2019 17:25:00 11.3 C 75 % 7.04 C
3091 02-03-2019 17:30:00 11.3 C 76 % 7.23 C
3092 02-03-2019 17:35:00 11.2 C 76 % 7.13 C
3093 02-03-2019 17:40:00 11.2 C 77 % 7.32 C
3094 02-03-2019 17:45:00 11.1 C 77 % 7.23 C
3095 02-03-2019 17:50:00 11 C 78 % 7.32 C
3096 02-03-2019 17:55:00 10.9 C 78 % 7.22 C
3097 02-03-2019 18:00:00 10.8 C 78 % 7.12 C
3098 02-03-2019 18:05:00 10.8 C 79 % 7.31 C
3099 02-03-2019 18:10:00 10.7 C 79 % 7.21 C
3100 02-03-2019 18:15:00 10.7 C 80 % 7.4 C
Sensor: Nr:Datum:Temp:Feuchte:Taupunkt:
Aussen-T/F 3101 02-03-2019 18:20:00 10.6 C 80 % 7.3 C
3102 02-03-2019 18:25:00 10.6 C 80 % 7.3 C
3103 02-03-2019 18:30:00 10.5 C 81 % 7.38 C
3104 02-03-2019 18:35:00 10.5 C 81 % 7.38 C
3105 02-03-2019 18:40:00 10.4 C 82 % 7.46 C
3106 02-03-2019 18:45:00 10.4 C 82 % 7.46 C
3107 02-03-2019 18:50:00 10.3 C 82 % 7.37 C
3108 02-03-2019 18:55:00 10.3 C 83 % 7.54 C
3109 02-03-2019 19:00:00 10.2 C 84 % 7.62 C
3110 02-03-2019 19:05:00 10.1 C 85 % 7.7 C
3111 02-03-2019 19:10:00 10.1 C 85 % 7.7 C
3112 02-03-2019 19:15:00 10 C 86 % 7.77 C
3113 02-03-2019 19:20:00 9.9 C 86 % 7.67 C
3114 02-03-2019 19:25:00 9.8 C 86 % 7.57 C
3115 02-03-2019 19:30:00 9.8 C 86 % 7.57 C
3116 02-03-2019 19:35:00 9.7 C 86 % 7.47 C
3117 02-03-2019 19:40:00 9.7 C 87 % 7.64 C
3118 02-03-2019 19:45:00 9.6 C 87 % 7.55 C
3119 02-03-2019 19:50:00 9.6 C 87 % 7.55 C
3120 02-03-2019 19:55:00 9.6 C 87 % 7.55 C
3121 02-03-2019 20:00:00 9.4 C 87 % 7.35 C
3122 02-03-2019 20:05:00 9.5 C 87 % 7.45 C
3123 02-03-2019 20:10:00 9.5 C 87 % 7.45 C
3124 02-03-2019 20:15:00 9.5 C 87 % 7.45 C
3125 02-03-2019 20:20:00 9.5 C 87 % 7.45 C
Sensor: Nr:Datum:Temp:Feuchte:Taupunkt:
Aussen-T/F 3126 02-03-2019 20:25:00 9.6 C 87 % 7.55 C
3127 02-03-2019 20:30:00 9.6 C 87 % 7.55 C
3128 02-03-2019 20:35:00 9.5 C 87 % 7.45 C
3129 02-03-2019 20:40:00 9.6 C 88 % 7.71 C
3130 02-03-2019 20:45:00 9.6 C 88 % 7.71 C
3131 02-03-2019 20:50:00 9.6 C 87 % 7.55 C
3132 02-03-2019 20:55:00 9.5 C 88 % 7.61 C
3133 02-03-2019 21:00:00 9.5 C 88 % 7.61 C
3134 02-03-2019 21:05:00 9.4 C 88 % 7.52 C
3135 02-03-2019 21:10:00 9.4 C 88 % 7.52 C
3136 02-03-2019 21:15:00 9.6 C 89 % 7.88 C
3137 02-03-2019 21:20:00 9.7 C 88 % 7.81 C
3138 02-03-2019 21:25:00 9.8 C 88 % 7.91 C
3139 02-03-2019 21:30:00 9.9 C 87 % 7.84 C
3140 02-03-2019 21:35:00 10.1 C 87 % 8.04 C
3141 02-03-2019 21:40:00 10.1 C 87 % 8.04 C
3142 02-03-2019 21:45:00 10.1 C 87 % 8.04 C
3143 02-03-2019 21:50:00 10.2 C 86 % 7.97 C
3144 02-03-2019 21:55:00 10.2 C 86 % 7.97 C
3145 02-03-2019 22:00:00 10.2 C 86 % 7.97 C
3146 02-03-2019 22:05:00 10.2 C 86 % 7.97 C
3147 02-03-2019 22:10:00 10.2 C 86 % 7.97 C
3148 02-03-2019 22:15:00 10.2 C 85 % 7.79 C
3149 02-03-2019 22:20:00 10.2 C 85 % 7.79 C
3150 02-03-2019 22:25:00 10.2 C 85 % 7.79 C
Sensor: Nr:Datum:Temp:Feuchte:Taupunkt:
Aussen-T/F 3151 02-03-2019 22:30:00 10.3 C 85 % 7.89 C
3152 02-03-2019 22:35:00 10.3 C 85 % 7.89 C
3153 02-03-2019 22:40:00 10.3 C 85 % 7.89 C
3154 02-03-2019 22:45:00 10.3 C 84 % 7.72 C
3155 02-03-2019 22:50:00 10.3 C 84 % 7.72 C
3156 02-03-2019 22:55:00 10.3 C 84 % 7.72 C
3157 02-03-2019 23:00:00 10.3 C 84 % 7.72 C
3158 02-03-2019 23:05:00 10.2 C 84 % 7.62 C
3159 02-03-2019 23:10:00 10.2 C 84 % 7.62 C
3160 02-03-2019 23:15:00 10.1 C 84 % 7.52 C
3161 02-03-2019 23:20:00 10.1 C 83 % 7.35 C
3162 02-03-2019 23:25:00 10.1 C 83 % 7.35 C
3163 02-03-2019 23:30:00 9.9 C 83 % 7.15 C
3164 02-03-2019 23:35:00 9.8 C 83 % 7.05 C
3165 02-03-2019 23:40:00 9.8 C 83 % 7.05 C
3166 02-03-2019 23:45:00 9.8 C 82 % 6.88 C
3167 02-03-2019 23:50:00 9.7 C 83 % 6.96 C
3168 02-03-2019 23:55:00 9.6 C 82 % 6.68 C
3169 03-03-2019 00:00:00 9.6 C 82 % 6.68 C
3170 03-03-2019 00:05:00 9.5 C 82 % 6.59 C
3171 03-03-2019 00:10:00 9.5 C 82 % 6.59 C
3172 03-03-2019 00:15:00 9.5 C 82 % 6.59 C
3173 03-03-2019 00:20:00 9.4 C 82 % 6.49 C
3174 03-03-2019 00:25:00 9.3 C 82 % 6.39 C
3175 03-03-2019 00:30:00 9.2 C 82 % 6.29 C
Sensor: Nr:Datum:Temp:Feuchte:Taupunkt:
Aussen-T/F 3176 03-03-2019 00:35:00 8.9 C 82 % 6 C
3177 03-03-2019 00:40:00 8.7 C 83 % 5.98 C
3178 03-03-2019 00:45:00 8.5 C 84 % 5.96 C
3179 03-03-2019 00:50:00 8.3 C 85 % 5.93 C
3180 03-03-2019 00:55:00 8.3 C 86 % 6.1 C
3181 03-03-2019 01:00:00 8.3 C 87 % 6.27 C
3182 03-03-2019 01:05:00 8.4 C 87 % 6.37 C
3183 03-03-2019 01:10:00 8.6 C 87 % 6.56 C
3184 03-03-2019 01:15:00 8.8 C 87 % 6.76 C
3185 03-03-2019 01:20:00 8.9 C 86 % 6.69 C
3186 03-03-2019 01:25:00 9.1 C 86 % 6.89 C
3187 03-03-2019 01:30:00 9.3 C 86 % 7.08 C
3188 03-03-2019 01:35:00 9.4 C 85 % 7.01 C
3189 03-03-2019 01:40:00 9.7 C 84 % 7.13 C
3190 03-03-2019 01:45:00 9.8 C 83 % 7.05 C
3191 03-03-2019 01:50:00 9.9 C 83 % 7.15 C
3192 03-03-2019 01:55:00 9.9 C 82 % 6.98 C
3193 03-03-2019 02:00:00 10 C 82 % 7.07 C
3194 03-03-2019 02:05:00 10 C 82 % 7.07 C
3195 03-03-2019 02:10:00 10.1 C 81 % 6.99 C
3196 03-03-2019 02:15:00 10.1 C 81 % 6.99 C
3197 03-03-2019 02:20:00 10.1 C 81 % 6.99 C
3198 03-03-2019 02:25:00 10.1 C 81 % 6.99 C
3199 03-03-2019 02:30:00 10.1 C 81 % 6.99 C
3200 03-03-2019 02:35:00 9.9 C 81 % 6.8 C
Sensor: Nr:Datum:Temp:Feuchte:Taupunkt:
Aussen-T/F 3201 03-03-2019 02:40:00 9.9 C 81 % 6.8 C
3202 03-03-2019 02:45:00 9.9 C 81 % 6.8 C
3203 03-03-2019 02:50:00 9.8 C 81 % 6.7 C
3204 03-03-2019 02:55:00 9.8 C 82 % 6.88 C
3205 03-03-2019 03:00:00 9.8 C 81 % 6.7 C
3206 03-03-2019 03:05:00 9.8 C 81 % 6.7 C
3207 03-03-2019 03:10:00 9.9 C 81 % 6.8 C
3208 03-03-2019 03:15:00 9.9 C 81 % 6.8 C
3209 03-03-2019 03:20:00 9.9 C 81 % 6.8 C
3210 03-03-2019 03:25:00 10 C 81 % 6.89 C
3211 03-03-2019 03:30:00 10 C 81 % 6.89 C
3212 03-03-2019 03:35:00 10.1 C 81 % 6.99 C
3213 03-03-2019 03:40:00 10.1 C 81 % 6.99 C
3214 03-03-2019 03:45:00 10.1 C 81 % 6.99 C
3215 03-03-2019 03:50:00 10.2 C 81 % 7.09 C
3216 03-03-2019 03:55:00 10.2 C 81 % 7.09 C
3217 03-03-2019 04:00:00 10.2 C 81 % 7.09 C
3218 03-03-2019 04:05:00 10.2 C 81 % 7.09 C
3219 03-03-2019 04:10:00 10.2 C 81 % 7.09 C
3220 03-03-2019 04:15:00 10.2 C 81 % 7.09 C
3221 03-03-2019 04:20:00 10.2 C 81 % 7.09 C
3222 03-03-2019 04:25:00 10.3 C 81 % 7.19 C
3223 03-03-2019 04:30:00 10.3 C 81 % 7.19 C
3224 03-03-2019 04:35:00 10.3 C 81 % 7.19 C
3225 03-03-2019 04:40:00 10.2 C 81 % 7.09 C
Sensor: Nr:Datum:Temp:Feuchte:Taupunkt:
Aussen-T/F 3226 03-03-2019 04:45:00 10.2 C 81 % 7.09 C
3227 03-03-2019 04:50:00 10.2 C 81 % 7.09 C
3228 03-03-2019 04:55:00 10.2 C 80 % 6.91 C
3229 03-03-2019 05:00:00 10.2 C 80 % 6.91 C
3230 03-03-2019 05:05:00 10.3 C 80 % 7.01 C
3231 03-03-2019 05:10:00 10.2 C 80 % 6.91 C
3232 03-03-2019 05:15:00 10.2 C 80 % 6.91 C
3233 03-03-2019 05:20:00 10.2 C 80 % 6.91 C
3234 03-03-2019 05:25:00 10.2 C 80 % 6.91 C
3235 03-03-2019 05:30:00 10.2 C 80 % 6.91 C
3236 03-03-2019 05:35:00 10.2 C 80 % 6.91 C
3237 03-03-2019 05:40:00 10.2 C 79 % 6.73 C
3238 03-03-2019 05:45:00 10.2 C 79 % 6.73 C
3239 03-03-2019 05:50:00 10.2 C 80 % 6.91 C
3240 03-03-2019 05:55:00 10.2 C 80 % 6.91 C
3241 03-03-2019 06:00:00 10.2 C 80 % 6.91 C
3242 03-03-2019 06:05:00 10.1 C 80 % 6.81 C
3243 03-03-2019 06:10:00 10.1 C 81 % 6.99 C
3244 03-03-2019 06:15:00 10.1 C 81 % 6.99 C
3245 03-03-2019 06:20:00 10.1 C 81 % 6.99 C
3246 03-03-2019 06:25:00 10.1 C 81 % 6.99 C
3247 03-03-2019 06:30:00 10.1 C 81 % 6.99 C
3248 03-03-2019 06:35:00 10.1 C 81 % 6.99 C
3249 03-03-2019 06:40:00 10.1 C 81 % 6.99 C
3250 03-03-2019 06:45:00 10.1 C 81 % 6.99 C
Sensor: Nr:Datum:Temp:Feuchte:Taupunkt:
Aussen-T/F 3251 03-03-2019 06:50:00 10.1 C 81 % 6.99 C
3252 03-03-2019 06:55:00 10.1 C 81 % 6.99 C
3253 03-03-2019 07:00:00 10.1 C 81 % 6.99 C
3254 03-03-2019 07:05:00 10.1 C 81 % 6.99 C
3255 03-03-2019 07:10:00 10.1 C 81 % 6.99 C
3256 03-03-2019 07:15:00 10.1 C 81 % 6.99 C
3257 03-03-2019 07:20:00 10.1 C 81 % 6.99 C
3258 03-03-2019 07:25:00 10.1 C 81 % 6.99 C
3259 03-03-2019 07:30:00 10.1 C 81 % 6.99 C
3260 03-03-2019 07:35:00 10.1 C 81 % 6.99 C
3261 03-03-2019 07:40:00 10.2 C 81 % 7.09 C
3262 03-03-2019 07:45:00 10.2 C 81 % 7.09 C
3263 03-03-2019 07:50:00 10.2 C 81 % 7.09 C
3264 03-03-2019 07:55:00 10.2 C 81 % 7.09 C
3265 03-03-2019 08:00:00 10.2 C 81 % 7.09 C
3266 03-03-2019 08:05:00 10.2 C 81 % 7.09 C
3267 03-03-2019 08:10:00 10.3 C 81 % 7.19 C
3268 03-03-2019 08:15:00 10.3 C 81 % 7.19 C
3269 03-03-2019 08:20:00 10.3 C 81 % 7.19 C
3270 03-03-2019 08:25:00 10.3 C 81 % 7.19 C
3271 03-03-2019 08:30:00 10.3 C 82 % 7.37 C
3272 03-03-2019 08:35:00 10.3 C 82 % 7.37 C
3273 03-03-2019 08:40:00 10.3 C 82 % 7.37 C
3274 03-03-2019 08:45:00 10.4 C 82 % 7.46 C
3275 03-03-2019 08:50:00 10.4 C 82 % 7.46 C
Sensor: Nr:Datum:Temp:Feuchte:Taupunkt:
Aussen-T/F 3276 03-03-2019 08:55:00 10.5 C 82 % 7.56 C
3277 03-03-2019 09:00:00 10.6 C 82 % 7.66 C
3278 03-03-2019 09:05:00 10.7 C 81 % 7.58 C
3279 03-03-2019 09:10:00 10.8 C 82 % 7.85 C
3280 03-03-2019 09:15:00 10.9 C 81 % 7.77 C
3281 03-03-2019 09:20:00 10.9 C 81 % 7.77 C
3282 03-03-2019 09:25:00 11 C 81 % 7.87 C
3283 03-03-2019 09:30:00 10.9 C 81 % 7.77 C
3284 03-03-2019 09:35:00 10.9 C 81 % 7.77 C
3285 03-03-2019 09:40:00 10.9 C 81 % 7.77 C
3286 03-03-2019 09:45:00 10.9 C 81 % 7.77 C
3287 03-03-2019 09:50:00 10.9 C 81 % 7.77 C
3288 03-03-2019 09:55:00 11.1 C 81 % 7.97 C
3289 03-03-2019 10:00:00 11.1 C 81 % 7.97 C
3290 03-03-2019 10:05:00 11.1 C 81 % 7.97 C
3291 03-03-2019 10:10:00 11.2 C 81 % 8.06 C
3292 03-03-2019 10:15:00 11.2 C 81 % 8.06 C
3293 03-03-2019 10:20:00 11.1 C 81 % 7.97 C
3294 03-03-2019 10:25:00 11.1 C 81 % 7.97 C
3295 03-03-2019 10:30:00 11.1 C 81 % 7.97 C
3296 03-03-2019 10:35:00 11.2 C 81 % 8.06 C
3297 03-03-2019 10:40:00 11.2 C 81 % 8.06 C
3298 03-03-2019 10:45:00 11.2 C 81 % 8.06 C
3299 03-03-2019 10:50:00 11.2 C 81 % 8.06 C
3300 03-03-2019 10:55:00 11.2 C 81 % 8.06 C
Sensor: Nr:Datum:Temp:Feuchte:Taupunkt:
Aussen-T/F 3301 03-03-2019 11:00:00 11.1 C 81 % 7.97 C
3302 03-03-2019 11:05:00 11.1 C 82 % 8.15 C
3303 03-03-2019 11:10:00 11 C 82 % 8.05 C
3304 03-03-2019 11:15:00 10.9 C 82 % 7.95 C
3305 03-03-2019 11:20:00 10.9 C 82 % 7.95 C
3306 03-03-2019 11:25:00 10.9 C 82 % 7.95 C
3307 03-03-2019 11:30:00 11 C 82 % 8.05 C
3308 03-03-2019 11:35:00 11 C 82 % 8.05 C
3309 03-03-2019 11:40:00 11 C 82 % 8.05 C
3310 03-03-2019 11:45:00 11 C 82 % 8.05 C
3311 03-03-2019 11:50:00 11.1 C 83 % 8.33 C
3312 03-03-2019 11:55:00 11.1 C 82 % 8.15 C
3313 03-03-2019 12:00:00 11.1 C 83 % 8.33 C
3314 03-03-2019 12:05:00 11.1 C 82 % 8.15 C
3315 03-03-2019 12:10:00 11.1 C 82 % 8.15 C
3316 03-03-2019 12:15:00 11.1 C 82 % 8.15 C
3317 03-03-2019 12:20:00 11.2 C 82 % 8.25 C
3318 03-03-2019 12:25:00 11.2 C 82 % 8.25 C
3319 03-03-2019 12:30:00 11.3 C 82 % 8.34 C
3320 03-03-2019 12:35:00 11.3 C 82 % 8.34 C
3321 03-03-2019 12:40:00 11.3 C 82 % 8.34 C
3322 03-03-2019 12:45:00 11.3 C 82 % 8.34 C
3323 03-03-2019 12:50:00 11.3 C 82 % 8.34 C
3324 03-03-2019 12:55:00 11.4 C 82 % 8.44 C
3325 03-03-2019 13:00:00 11.4 C 82 % 8.44 C
Sensor: Nr:Datum:Temp:Feuchte:Taupunkt:
Aussen-T/F 3326 03-03-2019 13:05:00 11.6 C 81 % 8.45 C
3327 03-03-2019 13:10:00 11.6 C 81 % 8.45 C
3328 03-03-2019 13:15:00 11.7 C 81 % 8.55 C
3329 03-03-2019 13:20:00 11.7 C 81 % 8.55 C
3330 03-03-2019 13:25:00 11.8 C 80 % 8.47 C
3331 03-03-2019 13:30:00 11.8 C 80 % 8.47 C
3332 03-03-2019 13:35:00 11.8 C 80 % 8.47 C
3333 03-03-2019 13:40:00 11.8 C 80 % 8.47 C
3334 03-03-2019 13:45:00 11.8 C 80 % 8.47 C
3335 03-03-2019 13:50:00 11.9 C 80 % 8.56 C
3336 03-03-2019 13:55:00 11.9 C 80 % 8.56 C
3337 03-03-2019 14:00:00 11.9 C 79 % 8.38 C
3338 03-03-2019 14:05:00 11.9 C 79 % 8.38 C
3339 03-03-2019 14:10:00 11.9 C 80 % 8.56 C
3340 03-03-2019 14:15:00 11.9 C 80 % 8.56 C
3341 03-03-2019 14:20:00 11.8 C 80 % 8.47 C
3342 03-03-2019 14:25:00 11.8 C 80 % 8.47 C
3343 03-03-2019 14:30:00 11.8 C 80 % 8.47 C
3344 03-03-2019 14:35:00 11.7 C 80 % 8.37 C
3345 03-03-2019 14:40:00 11.7 C 80 % 8.37 C
3346 03-03-2019 14:45:00 11.7 C 80 % 8.37 C
3347 03-03-2019 14:50:00 11.7 C 81 % 8.55 C
3348 03-03-2019 14:55:00 11.7 C 81 % 8.55 C
3349 03-03-2019 15:00:00 11.7 C 81 % 8.55 C
3350 03-03-2019 15:05:00 11.7 C 80 % 8.37 C
Sensor: Nr:Datum:Temp:Feuchte:Taupunkt:
Aussen-T/F 3351 03-03-2019 15:10:00 11.7 C 80 % 8.37 C
3352 03-03-2019 15:15:00 11.8 C 81 % 8.65 C
3353 03-03-2019 15:20:00 11.8 C 81 % 8.65 C
3354 03-03-2019 15:25:00 11.8 C 81 % 8.65 C
3355 03-03-2019 15:30:00 11.7 C 81 % 8.55 C
3356 03-03-2019 15:35:00 11.7 C 82 % 8.73 C
3357 03-03-2019 15:40:00 11.7 C 82 % 8.73 C
3358 03-03-2019 15:45:00 11.6 C 82 % 8.64 C
3359 03-03-2019 15:50:00 11.6 C 82 % 8.64 C
3360 03-03-2019 15:55:00 11.6 C 82 % 8.64 C
3361 03-03-2019 16:00:00 11.6 C 82 % 8.64 C
3362 03-03-2019 16:05:00 11.6 C 82 % 8.64 C
3363 03-03-2019 16:10:00 11.6 C 82 % 8.64 C
3364 03-03-2019 16:15:00 11.6 C 82 % 8.64 C
3365 03-03-2019 16:20:00 11.6 C 82 % 8.64 C
3366 03-03-2019 16:25:00 11.7 C 82 % 8.73 C
3367 03-03-2019 16:30:00 11.7 C 81 % 8.55 C
3368 03-03-2019 16:35:00 11.8 C 81 % 8.65 C
3369 03-03-2019 16:40:00 11.8 C 81 % 8.65 C
3370 03-03-2019 16:45:00 11.8 C 81 % 8.65 C
3371 03-03-2019 16:50:00 11.8 C 81 % 8.65 C
3372 03-03-2019 16:55:00 11.8 C 81 % 8.65 C
3373 03-03-2019 17:00:00 11.8 C 81 % 8.65 C
3374 03-03-2019 17:05:00 11.8 C 81 % 8.65 C
3375 03-03-2019 17:10:00 11.8 C 80 % 8.47 C
Sensor: Nr:Datum:Temp:Feuchte:Taupunkt:
Aussen-T/F 3376 03-03-2019 17:15:00 11.8 C 80 % 8.47 C
3377 03-03-2019 17:20:00 11.8 C 80 % 8.47 C
3378 03-03-2019 17:25:00 11.8 C 80 % 8.47 C
3379 03-03-2019 17:30:00 11.9 C 79 % 8.38 C
3380 03-03-2019 17:35:00 11.9 C 79 % 8.38 C
3381 03-03-2019 17:40:00 11.9 C 79 % 8.38 C
3382 03-03-2019 17:45:00 12 C 78 % 8.29 C
3383 03-03-2019 17:50:00 12.1 C 78 % 8.38 C
3384 03-03-2019 17:55:00 12.2 C 78 % 8.48 C
3385 03-03-2019 18:00:00 12.2 C 78 % 8.48 C
3386 03-03-2019 18:05:00 12.2 C 78 % 8.48 C
3387 03-03-2019 18:10:00 12.2 C 78 % 8.48 C
3388 03-03-2019 18:15:00 12.2 C 78 % 8.48 C
3389 03-03-2019 18:20:00 12.2 C 78 % 8.48 C
3390 03-03-2019 18:25:00 12.2 C 78 % 8.48 C
3391 03-03-2019 18:30:00 12.2 C 77 % 8.29 C
3392 03-03-2019 18:35:00 12.2 C 77 % 8.29 C
3393 03-03-2019 18:40:00 12.2 C 77 % 8.29 C
3394 03-03-2019 18:45:00 12.2 C 77 % 8.29 C
3395 03-03-2019 18:50:00 12.1 C 77 % 8.2 C
3396 03-03-2019 18:55:00 12.1 C 77 % 8.2 C
3397 03-03-2019 19:00:00 12.1 C 77 % 8.2 C
3398 03-03-2019 19:05:00 12.2 C 77 % 8.29 C
3399 03-03-2019 19:10:00 12.2 C 77 % 8.29 C
3400 03-03-2019 19:15:00 12.2 C 76 % 8.1 C
Sensor: Nr:Datum:Temp:Feuchte:Taupunkt:
Aussen-T/F 3401 03-03-2019 19:20:00 12.3 C 76 % 8.2 C
3402 03-03-2019 19:25:00 12.3 C 76 % 8.2 C
3403 03-03-2019 19:30:00 12.3 C 76 % 8.2 C
3404 03-03-2019 19:35:00 12.3 C 76 % 8.2 C
3405 03-03-2019 19:40:00 12.3 C 75 % 8 C
3406 03-03-2019 19:45:00 12.4 C 75 % 8.1 C
3407 03-03-2019 19:50:00 12.4 C 75 % 8.1 C
3408 03-03-2019 19:55:00 12.4 C 75 % 8.1 C
3409 03-03-2019 20:00:00 12.3 C 75 % 8 C
3410 03-03-2019 20:05:00 12.3 C 75 % 8 C
3411 03-03-2019 20:10:00 12.3 C 75 % 8 C
3412 03-03-2019 20:15:00 12.3 C 76 % 8.2 C
3413 03-03-2019 20:20:00 12.3 C 76 % 8.2 C
3414 03-03-2019 20:25:00 12.4 C 76 % 8.29 C
3415 03-03-2019 20:30:00 12.4 C 76 % 8.29 C
3416 03-03-2019 20:35:00 12.4 C 76 % 8.29 C
3417 03-03-2019 20:40:00 12.4 C 76 % 8.29 C
3418 03-03-2019 20:45:00 12.3 C 77 % 8.39 C
3419 03-03-2019 20:50:00 12.3 C 77 % 8.39 C
3420 03-03-2019 20:55:00 12.3 C 77 % 8.39 C
3421 03-03-2019 21:00:00 12.3 C 77 % 8.39 C
3422 03-03-2019 21:05:00 12.3 C 77 % 8.39 C
3423 03-03-2019 21:10:00 12.3 C 77 % 8.39 C
3424 03-03-2019 21:15:00 12.3 C 77 % 8.39 C
3425 03-03-2019 21:20:00 12.3 C 77 % 8.39 C
Sensor: Nr:Datum:Temp:Feuchte:Taupunkt:
Aussen-T/F 3426 03-03-2019 21:25:00 12.3 C 77 % 8.39 C
3427 03-03-2019 21:30:00 12.3 C 77 % 8.39 C
3428 03-03-2019 21:35:00 12.3 C 77 % 8.39 C
3429 03-03-2019 21:40:00 12.4 C 77 % 8.49 C
3430 03-03-2019 21:45:00 12.4 C 77 % 8.49 C
3431 03-03-2019 21:50:00 12.4 C 77 % 8.49 C
3432 03-03-2019 21:55:00 12.4 C 78 % 8.68 C
3433 03-03-2019 22:00:00 12.4 C 78 % 8.68 C
3434 03-03-2019 22:05:00 12.4 C 78 % 8.68 C
3435 03-03-2019 22:10:00 12.4 C 78 % 8.68 C
3436 03-03-2019 22:15:00 12.4 C 77 % 8.49 C
3437 03-03-2019 22:20:00 12.4 C 77 % 8.49 C
3438 03-03-2019 22:25:00 12.5 C 77 % 8.58 C
3439 03-03-2019 22:30:00 12.5 C 77 % 8.58 C
3440 03-03-2019 22:35:00 12.6 C 76 % 8.49 C
3441 03-03-2019 22:40:00 12.6 C 76 % 8.49 C
3442 03-03-2019 22:45:00 12.7 C 75 % 8.39 C
3443 03-03-2019 22:50:00 12.7 C 75 % 8.39 C
3444 03-03-2019 22:55:00 12.7 C 75 % 8.39 C
3445 03-03-2019 23:00:00 12.7 C 74 % 8.19 C
3446 03-03-2019 23:05:00 12.8 C 74 % 8.29 C
3447 03-03-2019 23:10:00 12.8 C 74 % 8.29 C
3448 03-03-2019 23:15:00 12.8 C 74 % 8.29 C
3449 03-03-2019 23:20:00 12.7 C 74 % 8.19 C
3450 03-03-2019 23:25:00 12.7 C 74 % 8.19 C
Sensor: Nr:Datum:Temp:Feuchte:Taupunkt:
Aussen-T/F 3451 03-03-2019 23:30:00 12.7 C 74 % 8.19 C
3452 03-03-2019 23:35:00 12.7 C 74 % 8.19 C
3453 03-03-2019 23:40:00 12.8 C 73 % 8.09 C
3454 03-03-2019 23:45:00 12.8 C 74 % 8.29 C
3455 03-03-2019 23:50:00 12.8 C 73 % 8.09 C
3456 03-03-2019 23:55:00 12.8 C 73 % 8.09 C
3457 04-03-2019 00:00:00 12.9 C 73 % 8.18 C
3458 04-03-2019 00:05:00 12.9 C 73 % 8.18 C
3459 04-03-2019 00:10:00 12.9 C 72 % 7.98 C
3460 04-03-2019 00:15:00 13 C 72 % 8.08 C
3461 04-03-2019 00:20:00 13.1 C 72 % 8.17 C
3462 04-03-2019 00:25:00 13.1 C 71 % 7.97 C
3463 04-03-2019 00:30:00 13.2 C 71 % 8.06 C
3464 04-03-2019 00:35:00 13.2 C 70 % 7.86 C
3465 04-03-2019 00:40:00 13.2 C 71 % 8.06 C
3466 04-03-2019 00:45:00 13.2 C 70 % 7.86 C
3467 04-03-2019 00:50:00 13.3 C 70 % 7.95 C
3468 04-03-2019 00:55:00 13.3 C 70 % 7.95 C
3469 04-03-2019 01:00:00 13.3 C 69 % 7.74 C
3470 04-03-2019 01:05:00 13.3 C 70 % 7.95 C
3471 04-03-2019 01:10:00 13.3 C 70 % 7.95 C
3472 04-03-2019 01:15:00 13.3 C 70 % 7.95 C
3473 04-03-2019 01:20:00 13.3 C 69 % 7.74 C
3474 04-03-2019 01:25:00 13.3 C 69 % 7.74 C
3475 04-03-2019 01:30:00 13.4 C 68 % 7.62 C
Sensor: Nr:Datum:Temp:Feuchte:Taupunkt:
Aussen-T/F 3476 04-03-2019 01:35:00 13.6 C 67 % 7.6 C
3477 04-03-2019 01:40:00 13.8 C 67 % 7.79 C
3478 04-03-2019 01:45:00 13.8 C 67 % 7.79 C
3479 04-03-2019 01:50:00 13.9 C 67 % 7.88 C
3480 04-03-2019 01:55:00 13.8 C 69 % 8.22 C
3481 04-03-2019 02:00:00 13.6 C 70 % 8.24 C
3482 04-03-2019 02:05:00 13.3 C 71 % 8.16 C
3483 04-03-2019 02:10:00 13.2 C 72 % 8.27 C
3484 04-03-2019 02:15:00 12.9 C 74 % 8.38 C
3485 04-03-2019 02:20:00 12.8 C 75 % 8.48 C
3486 04-03-2019 02:25:00 12.6 C 76 % 8.49 C
3487 04-03-2019 02:30:00 12.5 C 77 % 8.58 C
3488 04-03-2019 02:35:00 12.3 C 77 % 8.39 C
3489 04-03-2019 02:40:00 12.3 C 78 % 8.58 C
3490 04-03-2019 02:45:00 12.2 C 78 % 8.48 C
3491 04-03-2019 02:50:00 12.2 C 78 % 8.48 C
3492 04-03-2019 02:55:00 12.1 C 79 % 8.57 C
3493 04-03-2019 03:00:00 12.1 C 79 % 8.57 C
3494 04-03-2019 03:05:00 12 C 79 % 8.48 C
3495 04-03-2019 03:10:00 11.9 C 80 % 8.56 C
3496 04-03-2019 03:15:00 11.8 C 80 % 8.47 C
3497 04-03-2019 03:20:00 11.8 C 80 % 8.47 C
3498 04-03-2019 03:25:00 11.7 C 81 % 8.55 C
3499 04-03-2019 03:30:00 11.7 C 81 % 8.55 C
3500 04-03-2019 03:35:00 11.7 C 81 % 8.55 C
Sensor: Nr:Datum:Temp:Feuchte:Taupunkt:
Aussen-T/F 3501 04-03-2019 03:40:00 11.7 C 81 % 8.55 C
3502 04-03-2019 03:45:00 11.7 C 81 % 8.55 C
3503 04-03-2019 03:50:00 11.7 C 81 % 8.55 C
3504 04-03-2019 03:55:00 11.7 C 81 % 8.55 C
3505 04-03-2019 04:00:00 11.7 C 81 % 8.55 C
3506 04-03-2019 04:05:00 11.7 C 81 % 8.55 C
3507 04-03-2019 04:10:00 11.6 C 81 % 8.45 C
3508 04-03-2019 04:15:00 11.6 C 81 % 8.45 C
3509 04-03-2019 04:20:00 11.6 C 81 % 8.45 C
3510 04-03-2019 04:25:00 11.7 C 82 % 8.73 C
3511 04-03-2019 04:30:00 11.7 C 82 % 8.73 C
3512 04-03-2019 04:35:00 11.7 C 82 % 8.73 C
3513 04-03-2019 04:40:00 11.7 C 82 % 8.73 C
3514 04-03-2019 04:45:00 11.7 C 82 % 8.73 C
3515 04-03-2019 04:50:00 11.7 C 82 % 8.73 C
3516 04-03-2019 04:55:00 11.7 C 81 % 8.55 C
3517 04-03-2019 05:00:00 11.7 C 81 % 8.55 C
3518 04-03-2019 05:05:00 11.7 C 80 % 8.37 C
3519 04-03-2019 05:10:00 11.8 C 80 % 8.47 C
3520 04-03-2019 05:15:00 11.8 C 80 % 8.47 C
3521 04-03-2019 05:20:00 11.8 C 80 % 8.47 C
3522 04-03-2019 05:25:00 11.8 C 80 % 8.47 C
3523 04-03-2019 05:30:00 11.7 C 80 % 8.37 C
3524 04-03-2019 05:35:00 11.6 C 79 % 8.09 C
3525 04-03-2019 05:40:00 11.6 C 80 % 8.27 C
Sensor: Nr:Datum:Temp:Feuchte:Taupunkt:
Aussen-T/F 3526 04-03-2019 05:45:00 11.4 C 80 % 8.08 C
3527 04-03-2019 05:50:00 11.4 C 80 % 8.08 C
3528 04-03-2019 05:55:00 11.3 C 81 % 8.16 C
3529 04-03-2019 06:00:00 11.3 C 81 % 8.16 C
3530 04-03-2019 06:05:00 11.4 C 80 % 8.08 C
3531 04-03-2019 06:10:00 11.4 C 80 % 8.08 C
3532 04-03-2019 06:15:00 11.3 C 80 % 7.98 C
3533 04-03-2019 06:20:00 11.3 C 79 % 7.8 C
3534 04-03-2019 06:25:00 11.3 C 78 % 7.61 C
3535 04-03-2019 06:30:00 11.5 C 77 % 7.61 C
3536 04-03-2019 06:35:00 11.6 C 79 % 8.09 C
3537 04-03-2019 06:40:00 11.6 C 79 % 8.09 C
3538 04-03-2019 06:45:00 11.5 C 78 % 7.8 C
3539 04-03-2019 06:50:00 11.6 C 78 % 7.9 C
3540 04-03-2019 06:55:00 11.6 C 78 % 7.9 C
3541 04-03-2019 07:00:00 11.6 C 77 % 7.71 C
3542 04-03-2019 07:05:00 11.7 C 76 % 7.62 C
3543 04-03-2019 07:10:00 11.8 C 76 % 7.71 C
3544 04-03-2019 07:15:00 11.9 C 75 % 7.62 C
3545 04-03-2019 07:20:00 12 C 74 % 7.52 C
3546 04-03-2019 07:25:00 12 C 74 % 7.52 C
3547 04-03-2019 07:30:00 12.1 C 73 % 7.41 C
3548 04-03-2019 07:35:00 12.1 C 73 % 7.41 C
3549 04-03-2019 07:40:00 12.2 C 72 % 7.31 C
3550 04-03-2019 07:45:00 12.2 C 72 % 7.31 C
Sensor: Nr:Datum:Temp:Feuchte:Taupunkt:
Aussen-T/F 3551 04-03-2019 07:50:00 12.2 C 72 % 7.31 C
3552 04-03-2019 07:55:00 12.2 C 72 % 7.31 C
3553 04-03-2019 08:00:00 12.3 C 72 % 7.4 C
3554 04-03-2019 08:05:00 12.3 C 71 % 7.2 C
3555 04-03-2019 08:10:00 12.4 C 70 % 7.09 C
3556 04-03-2019 08:15:00 12.4 C 69 % 6.88 C
3557 04-03-2019 08:20:00 12.6 C 68 % 6.86 C
3558 04-03-2019 08:25:00 12.7 C 68 % 6.95 C
3559 04-03-2019 08:30:00 12.7 C 67 % 6.74 C
3560 04-03-2019 08:35:00 12 C 75 % 7.71 C
3561 04-03-2019 08:40:00 10.7 C 77 % 6.84 C
3562 04-03-2019 08:45:00 9.7 C 80 % 6.42 C
3563 04-03-2019 08:50:00 9.2 C 80 % 5.94 C
3564 04-03-2019 08:55:00 8.9 C 81 % 5.82 C
3565 04-03-2019 09:00:00 8.9 C 79 % 5.46 C
3566 04-03-2019 09:05:00 9 C 77 % 5.19 C
3567 04-03-2019 09:10:00 9.2 C 75 % 5.01 C
3568 04-03-2019 09:15:00 9.4 C 74 % 5.01 C
3569 04-03-2019 09:20:00 9.6 C 73 % 5.01 C
3570 04-03-2019 09:25:00 9.6 C 73 % 5.01 C
3571 04-03-2019 09:30:00 9.7 C 73 % 5.1 C
3572 04-03-2019 09:35:00 9.8 C 75 % 5.59 C
3573 04-03-2019 09:40:00 9.8 C 78 % 6.15 C
3574 04-03-2019 09:45:00 9.4 C 79 % 5.95 C
3575 04-03-2019 09:50:00 9.2 C 80 % 5.94 C
Sensor: Nr:Datum:Temp:Feuchte:Taupunkt:
Aussen-T/F 3576 04-03-2019 09:55:00 9.1 C 80 % 5.84 C
3577 04-03-2019 10:00:00 9.1 C 80 % 5.84 C
3578 04-03-2019 10:05:00 9.2 C 80 % 5.94 C
3579 04-03-2019 10:10:00 9.4 C 79 % 5.95 C
3580 04-03-2019 10:15:00 9.6 C 78 % 5.96 C
3581 04-03-2019 10:20:00 9.7 C 77 % 5.87 C
3582 04-03-2019 10:25:00 9.9 C 77 % 6.06 C
3583 04-03-2019 10:30:00 10 C 76 % 5.97 C
3584 04-03-2019 10:35:00 10.1 C 76 % 6.07 C
3585 04-03-2019 10:40:00 10.2 C 76 % 6.16 C
3586 04-03-2019 10:45:00 10.3 C 75 % 6.07 C
3587 04-03-2019 10:50:00 10.6 C 74 % 6.17 C
3588 04-03-2019 10:55:00 10.8 C 71 % 5.76 C
3589 04-03-2019 11:00:00 11.1 C 70 % 5.84 C
3590 04-03-2019 11:05:00 11.3 C 68 % 5.62 C
3591 04-03-2019 11:10:00 11.6 C 67 % 5.69 C
3592 04-03-2019 11:15:00 11.7 C 66 % 5.57 C
3593 04-03-2019 11:20:00 11.7 C 65 % 5.35 C
3594 04-03-2019 11:25:00 11.6 C 68 % 5.9 C
3595 04-03-2019 11:30:00 11.2 C 70 % 5.94 C
3596 04-03-2019 11:35:00 10.9 C 71 % 5.86 C
3597 04-03-2019 11:40:00 10.8 C 71 % 5.76 C
3598 04-03-2019 11:45:00 10.9 C 72 % 6.06 C
3599 04-03-2019 11:50:00 11 C 71 % 5.95 C
3600 04-03-2019 11:55:00 11 C 71 % 5.95 C
Sensor: Nr:Datum:Temp:Feuchte:Taupunkt:
Aussen-T/F 3601 04-03-2019 12:00:00 11.2 C 69 % 5.73 C
3602 04-03-2019 12:05:00 11.3 C 68 % 5.62 C
3603 04-03-2019 12:10:00 11.4 C 68 % 5.71 C
3604 04-03-2019 12:15:00 11.6 C 68 % 5.9 C
3605 04-03-2019 12:20:00 11.8 C 67 % 5.88 C
3606 04-03-2019 12:25:00 12 C 67 % 6.07 C
3607 04-03-2019 12:30:00 11.9 C 68 % 6.19 C
3608 04-03-2019 12:35:00 11.4 C 73 % 6.74 C
3609 04-03-2019 12:40:00 10.6 C 78 % 6.93 C
3610 04-03-2019 12:45:00 9.8 C 82 % 6.88 C
3611 04-03-2019 12:50:00 9.5 C 83 % 6.76 C
3612 04-03-2019 12:55:00 9.3 C 84 % 6.74 C
3613 04-03-2019 13:00:00 8.8 C 86 % 6.59 C
3614 04-03-2019 13:05:00 8.7 C 88 % 6.83 C
3615 04-03-2019 13:10:00 9.1 C 90 % 7.55 C
3616 04-03-2019 13:15:00 9.3 C 87 % 7.25 C
3617 04-03-2019 13:20:00 9.4 C 86 % 7.18 C
3618 04-03-2019 13:25:00 9.7 C 85 % 7.3 C
3619 04-03-2019 13:30:00 9.9 C 83 % 7.15 C
3620 04-03-2019 13:35:00 10.3 C 81 % 7.19 C
3621 04-03-2019 13:40:00 10.5 C 80 % 7.2 C
3622 04-03-2019 13:45:00 10.4 C 81 % 7.28 C
3623 04-03-2019 13:50:00 10.4 C 81 % 7.28 C
3624 04-03-2019 13:55:00 10.3 C 81 % 7.19 C
3625 04-03-2019 14:00:00 10.2 C 82 % 7.27 C
Sensor: Nr:Datum:Temp:Feuchte:Taupunkt:
Aussen-T/F 3626 04-03-2019 14:05:00 10.2 C 82 % 7.27 C
3627 04-03-2019 14:10:00 10.1 C 84 % 7.52 C
3628 04-03-2019 14:15:00 9.9 C 83 % 7.15 C
3629 04-03-2019 14:20:00 9.9 C 83 % 7.15 C
3630 04-03-2019 14:25:00 9.9 C 81 % 6.8 C
3631 04-03-2019 14:30:00 9.8 C 81 % 6.7 C
3632 04-03-2019 14:35:00 9.6 C 82 % 6.68 C
3633 04-03-2019 14:40:00 9.1 C 84 % 6.54 C
3634 04-03-2019 14:45:00 8.6 C 86 % 6.39 C
3635 04-03-2019 14:50:00 8.2 C 86 % 6 C
3636 04-03-2019 14:55:00 7.8 C 86 % 5.61 C
3637 04-03-2019 15:00:00 7.6 C 85 % 5.24 C
3638 04-03-2019 15:05:00 7.4 C 85 % 5.05 C
3639 04-03-2019 15:10:00 7.2 C 86 % 5.02 C
3640 04-03-2019 15:15:00 7.2 C 86 % 5.02 C
3641 04-03-2019 15:20:00 7.1 C 86 % 4.92 C
3642 04-03-2019 15:25:00 7.1 C 86 % 4.92 C
3643 04-03-2019 15:30:00 6.9 C 85 % 4.56 C
3644 04-03-2019 15:35:00 6.9 C 84 % 4.39 C
3645 04-03-2019 15:40:00 6.9 C 84 % 4.39 C
3646 04-03-2019 15:45:00 6.9 C 83 % 4.22 C
3647 04-03-2019 15:50:00 6.9 C 82 % 4.05 C
3648 04-03-2019 15:55:00 7.1 C 81 % 4.07 C
3649 04-03-2019 16:00:00 7.3 C 81 % 4.26 C
3650 04-03-2019 16:05:00 7.4 C 81 % 4.36 C
Sensor: Nr:Datum:Temp:Feuchte:Taupunkt:
Aussen-T/F 3651 04-03-2019 16:10:00 7.4 C 81 % 4.36 C
3652 04-03-2019 16:15:00 7.6 C 81 % 4.55 C
3653 04-03-2019 16:20:00 7.6 C 80 % 4.38 C
3654 04-03-2019 16:25:00 7.6 C 80 % 4.38 C
3655 04-03-2019 16:30:00 7.6 C 79 % 4.2 C
3656 04-03-2019 16:35:00 7.6 C 79 % 4.2 C
3657 04-03-2019 16:40:00 7.6 C 78 % 4.02 C
3658 04-03-2019 16:45:00 7.6 C 79 % 4.2 C
3659 04-03-2019 16:50:00 7.6 C 79 % 4.2 C
3660 04-03-2019 16:55:00 7.6 C 78 % 4.02 C
3661 04-03-2019 17:00:00 7.6 C 78 % 4.02 C
3662 04-03-2019 17:05:00 7.6 C 78 % 4.02 C
3663 04-03-2019 17:10:00 7.6 C 78 % 4.02 C
3664 04-03-2019 17:15:00 7.5 C 79 % 4.1 C
3665 04-03-2019 17:20:00 7.4 C 78 % 3.82 C
3666 04-03-2019 17:25:00 7.4 C 79 % 4 C
3667 04-03-2019 17:30:00 7.3 C 79 % 3.91 C
3668 04-03-2019 17:35:00 7.3 C 79 % 3.91 C
3669 04-03-2019 17:40:00 7.3 C 79 % 3.91 C
3670 04-03-2019 17:45:00 7.3 C 79 % 3.91 C
3671 04-03-2019 17:50:00 7.3 C 79 % 3.91 C
3672 04-03-2019 17:55:00 7.2 C 79 % 3.81 C
3673 04-03-2019 18:00:00 7.2 C 79 % 3.81 C
3674 04-03-2019 18:05:00 7.2 C 80 % 3.99 C
3675 04-03-2019 18:10:00 7.1 C 80 % 3.89 C
Sensor: Nr:Datum:Temp:Feuchte:Taupunkt:
Aussen-T/F 3676 04-03-2019 18:15:00 7 C 80 % 3.79 C
3677 04-03-2019 18:20:00 6.9 C 81 % 3.87 C
3678 04-03-2019 18:25:00 6.9 C 81 % 3.87 C
3679 04-03-2019 18:30:00 7 C 80 % 3.79 C
3680 04-03-2019 18:35:00 6.9 C 80 % 3.7 C
3681 04-03-2019 18:40:00 6.9 C 81 % 3.87 C
3682 04-03-2019 18:45:00 6.8 C 81 % 3.77 C
3683 04-03-2019 18:50:00 6.8 C 81 % 3.77 C
3684 04-03-2019 18:55:00 6.9 C 81 % 3.87 C
3685 04-03-2019 19:00:00 6.9 C 81 % 3.87 C
3686 04-03-2019 19:05:00 6.9 C 81 % 3.87 C
3687 04-03-2019 19:10:00 6.9 C 81 % 3.87 C
3688 04-03-2019 19:15:00 6.9 C 81 % 3.87 C
3689 04-03-2019 19:20:00 6.9 C 81 % 3.87 C
3690 04-03-2019 19:25:00 6.9 C 81 % 3.87 C
3691 04-03-2019 19:30:00 6.9 C 81 % 3.87 C
3692 04-03-2019 19:35:00 6.9 C 82 % 4.05 C
3693 04-03-2019 19:40:00 6.8 C 82 % 3.95 C
3694 04-03-2019 19:45:00 6.8 C 82 % 3.95 C
3695 04-03-2019 19:50:00 6.8 C 82 % 3.95 C
3696 04-03-2019 19:55:00 6.8 C 82 % 3.95 C
3697 04-03-2019 20:00:00 6.9 C 82 % 4.05 C
3698 04-03-2019 20:05:00 6.9 C 82 % 4.05 C
3699 04-03-2019 20:10:00 6.9 C 82 % 4.05 C
3700 04-03-2019 20:15:00 7 C 81 % 3.97 C
Sensor: Nr:Datum:Temp:Feuchte:Taupunkt:
Aussen-T/F 3701 04-03-2019 20:20:00 7.1 C 81 % 4.07 C
3702 04-03-2019 20:25:00 7.1 C 81 % 4.07 C
3703 04-03-2019 20:30:00 7.1 C 81 % 4.07 C
3704 04-03-2019 20:35:00 7.1 C 81 % 4.07 C
3705 04-03-2019 20:40:00 6.9 C 81 % 3.87 C
3706 04-03-2019 20:45:00 6.9 C 82 % 4.05 C
3707 04-03-2019 20:50:00 6.8 C 82 % 3.95 C
3708 04-03-2019 20:55:00 6.7 C 82 % 3.85 C
3709 04-03-2019 21:00:00 6.6 C 83 % 3.92 C
3710 04-03-2019 21:05:00 6.6 C 82 % 3.75 C
3711 04-03-2019 21:10:00 6.6 C 83 % 3.92 C
3712 04-03-2019 21:15:00 6.6 C 83 % 3.92 C
3713 04-03-2019 21:20:00 6.6 C 83 % 3.92 C
3714 04-03-2019 21:25:00 6.6 C 83 % 3.92 C
3715 04-03-2019 21:30:00 6.6 C 83 % 3.92 C
3716 04-03-2019 21:35:00 6.6 C 83 % 3.92 C
3717 04-03-2019 21:40:00 6.6 C 84 % 4.1 C
3718 04-03-2019 21:45:00 6.6 C 84 % 4.1 C
3719 04-03-2019 21:50:00 6.7 C 84 % 4.19 C
3720 04-03-2019 21:55:00 6.7 C 84 % 4.19 C
3721 04-03-2019 22:00:00 6.9 C 85 % 4.56 C
3722 04-03-2019 22:05:00 7 C 85 % 4.66 C
3723 04-03-2019 22:10:00 7.1 C 84 % 4.58 C
3724 04-03-2019 22:15:00 7.1 C 83 % 4.41 C
3725 04-03-2019 22:20:00 7.2 C 82 % 4.34 C
Sensor: Nr:Datum:Temp:Feuchte:Taupunkt:
Aussen-T/F 3726 04-03-2019 22:25:00 7.1 C 82 % 4.24 C
3727 04-03-2019 22:30:00 7.1 C 82 % 4.24 C
3728 04-03-2019 22:35:00 7.1 C 82 % 4.24 C
3729 04-03-2019 22:40:00 7.1 C 82 % 4.24 C
3730 04-03-2019 22:45:00 7.2 C 82 % 4.34 C
3731 04-03-2019 22:50:00 7.1 C 82 % 4.24 C
3732 04-03-2019 22:55:00 7.1 C 82 % 4.24 C
3733 04-03-2019 23:00:00 7.1 C 82 % 4.24 C
3734 04-03-2019 23:05:00 7.1 C 82 % 4.24 C
3735 04-03-2019 23:10:00 6.9 C 82 % 4.05 C
3736 04-03-2019 23:15:00 6.8 C 83 % 4.12 C
3737 04-03-2019 23:20:00 6.7 C 83 % 4.02 C
3738 04-03-2019 23:25:00 6.6 C 84 % 4.1 C
3739 04-03-2019 23:30:00 6.6 C 84 % 4.1 C
3740 04-03-2019 23:35:00 6.5 C 85 % 4.17 C
3741 04-03-2019 23:40:00 6.5 C 85 % 4.17 C
3742 04-03-2019 23:45:00 6.5 C 85 % 4.17 C
3743 04-03-2019 23:50:00 6.5 C 85 % 4.17 C
3744 04-03-2019 23:55:00 6.6 C 84 % 4.1 C
3745 05-03-2019 00:00:00 6.6 C 84 % 4.1 C
3746 05-03-2019 00:05:00 6.6 C 84 % 4.1 C
3747 05-03-2019 00:10:00 6.7 C 83 % 4.02 C
3748 05-03-2019 00:15:00 6.8 C 83 % 4.12 C
3749 05-03-2019 00:20:00 6.9 C 82 % 4.05 C
3750 05-03-2019 00:25:00 6.9 C 81 % 3.87 C
Sensor: Nr:Datum:Temp:Feuchte:Taupunkt:
Aussen-T/F 3751 05-03-2019 00:30:00 7 C 81 % 3.97 C
3752 05-03-2019 00:35:00 7 C 80 % 3.79 C
3753 05-03-2019 00:40:00 7 C 80 % 3.79 C
3754 05-03-2019 00:45:00 7 C 80 % 3.79 C
3755 05-03-2019 00:50:00 7 C 80 % 3.79 C
3756 05-03-2019 00:55:00 7 C 80 % 3.79 C
3757 05-03-2019 01:00:00 6.9 C 80 % 3.7 C
3758 05-03-2019 01:05:00 6.9 C 80 % 3.7 C
3759 05-03-2019 01:10:00 6.9 C 80 % 3.7 C
3760 05-03-2019 01:15:00 6.9 C 81 % 3.87 C
3761 05-03-2019 01:20:00 6.9 C 80 % 3.7 C
3762 05-03-2019 01:25:00 6.9 C 81 % 3.87 C
3763 05-03-2019 01:30:00 6.8 C 81 % 3.77 C
3764 05-03-2019 01:35:00 6.8 C 81 % 3.77 C
3765 05-03-2019 01:40:00 6.9 C 81 % 3.87 C
3766 05-03-2019 01:45:00 6.9 C 81 % 3.87 C
3767 05-03-2019 01:50:00 6.9 C 80 % 3.7 C
3768 05-03-2019 01:55:00 6.8 C 80 % 3.6 C
3769 05-03-2019 02:00:00 6.8 C 80 % 3.6 C
3770 05-03-2019 02:05:00 6.8 C 80 % 3.6 C
3771 05-03-2019 02:10:00 6.8 C 80 % 3.6 C
3772 05-03-2019 02:15:00 6.8 C 80 % 3.6 C
3773 05-03-2019 02:20:00 6.7 C 80 % 3.5 C
3774 05-03-2019 02:25:00 6.8 C 80 % 3.6 C
3775 05-03-2019 02:30:00 6.8 C 80 % 3.6 C
Sensor: Nr:Datum:Temp:Feuchte:Taupunkt:
Aussen-T/F 3776 05-03-2019 02:35:00 6.8 C 79 % 3.42 C
3777 05-03-2019 02:40:00 6.8 C 80 % 3.6 C
3778 05-03-2019 02:45:00 6.8 C 80 % 3.6 C
3779 05-03-2019 02:50:00 6.8 C 80 % 3.6 C
3780 05-03-2019 02:55:00 6.8 C 80 % 3.6 C
3781 05-03-2019 03:00:00 6.8 C 80 % 3.6 C
3782 05-03-2019 03:05:00 6.8 C 80 % 3.6 C
3783 05-03-2019 03:10:00 6.8 C 80 % 3.6 C
3784 05-03-2019 03:15:00 6.8 C 80 % 3.6 C
3785 05-03-2019 03:20:00 6.8 C 80 % 3.6 C
3786 05-03-2019 03:25:00 6.8 C 80 % 3.6 C
3787 05-03-2019 03:30:00 6.8 C 81 % 3.77 C
3788 05-03-2019 03:35:00 6.8 C 81 % 3.77 C
3789 05-03-2019 03:40:00 6.7 C 81 % 3.68 C
3790 05-03-2019 03:45:00 6.6 C 81 % 3.58 C
3791 05-03-2019 03:50:00 6.6 C 81 % 3.58 C
3792 05-03-2019 03:55:00 6.6 C 81 % 3.58 C
3793 05-03-2019 04:00:00 6.6 C 81 % 3.58 C
3794 05-03-2019 04:05:00 6.4 C 81 % 3.38 C
3795 05-03-2019 04:10:00 6.4 C 81 % 3.38 C
3796 05-03-2019 04:15:00 6.4 C 81 % 3.38 C
3797 05-03-2019 04:20:00 6.4 C 81 % 3.38 C
3798 05-03-2019 04:25:00 6.4 C 81 % 3.38 C
3799 05-03-2019 04:30:00 6.4 C 81 % 3.38 C
3800 05-03-2019 04:35:00 6.4 C 81 % 3.38 C
Sensor: Nr:Datum:Temp:Feuchte:Taupunkt:
Aussen-T/F 3801 05-03-2019 04:40:00 6.4 C 81 % 3.38 C
3802 05-03-2019 04:45:00 6.4 C 81 % 3.38 C
3803 05-03-2019 04:50:00 6.4 C 81 % 3.38 C
3804 05-03-2019 04:55:00 6.5 C 80 % 3.31 C
3805 05-03-2019 05:00:00 6.5 C 81 % 3.48 C
3806 05-03-2019 05:05:00 6.5 C 80 % 3.31 C
3807 05-03-2019 05:10:00 6.4 C 81 % 3.38 C
3808 05-03-2019 05:15:00 6.4 C 81 % 3.38 C
3809 05-03-2019 05:20:00 6.3 C 81 % 3.29 C
3810 05-03-2019 05:25:00 6.3 C 81 % 3.29 C
3811 05-03-2019 05:30:00 6.3 C 81 % 3.29 C
3812 05-03-2019 05:35:00 6.3 C 81 % 3.29 C
3813 05-03-2019 05:40:00 6.3 C 81 % 3.29 C
3814 05-03-2019 05:45:00 6.3 C 81 % 3.29 C
3815 05-03-2019 05:50:00 6.3 C 81 % 3.29 C
3816 05-03-2019 05:55:00 6.3 C 81 % 3.29 C
3817 05-03-2019 06:00:00 6.3 C 80 % 3.11 C
3818 05-03-2019 06:05:00 6.3 C 80 % 3.11 C
3819 05-03-2019 06:10:00 6.3 C 80 % 3.11 C
3820 05-03-2019 06:15:00 6.3 C 79 % 2.93 C
3821 05-03-2019 06:20:00 6.2 C 80 % 3.01 C
3822 05-03-2019 06:25:00 6.2 C 80 % 3.01 C
3823 05-03-2019 06:30:00 6.1 C 80 % 2.92 C
3824 05-03-2019 06:35:00 6.2 C 80 % 3.01 C
3825 05-03-2019 06:40:00 6.2 C 80 % 3.01 C
Sensor: Nr:Datum:Temp:Feuchte:Taupunkt:
Aussen-T/F 3826 05-03-2019 06:45:00 6.2 C 80 % 3.01 C
3827 05-03-2019 06:50:00 6.3 C 79 % 2.93 C
3828 05-03-2019 06:55:00 6.3 C 79 % 2.93 C
3829 05-03-2019 07:00:00 6.3 C 79 % 2.93 C
3830 05-03-2019 07:05:00 6.3 C 79 % 2.93 C
3831 05-03-2019 07:10:00 6.3 C 80 % 3.11 C
3832 05-03-2019 07:15:00 6.3 C 80 % 3.11 C
3833 05-03-2019 07:20:00 6.4 C 80 % 3.21 C
3834 05-03-2019 07:25:00 6.4 C 79 % 3.03 C
3835 05-03-2019 07:30:00 6.5 C 79 % 3.13 C
3836 05-03-2019 07:35:00 6.6 C 79 % 3.23 C
3837 05-03-2019 07:40:00 6.6 C 79 % 3.23 C
3838 05-03-2019 07:45:00 6.6 C 79 % 3.23 C
3839 05-03-2019 07:50:00 6.7 C 79 % 3.32 C
3840 05-03-2019 07:55:00 6.7 C 79 % 3.32 C
3841 05-03-2019 08:00:00 6.7 C 80 % 3.5 C
3842 05-03-2019 08:05:00 6.6 C 80 % 3.4 C
3843 05-03-2019 08:10:00 6.6 C 80 % 3.4 C
3844 05-03-2019 08:15:00 6.6 C 80 % 3.4 C
3845 05-03-2019 08:20:00 6.6 C 80 % 3.4 C
3846 05-03-2019 08:25:00 6.6 C 80 % 3.4 C
3847 05-03-2019 08:30:00 6.6 C 80 % 3.4 C
3848 05-03-2019 08:35:00 6.7 C 81 % 3.68 C
3849 05-03-2019 08:40:00 6.7 C 80 % 3.5 C
3850 05-03-2019 08:45:00 6.7 C 80 % 3.5 C
Sensor: Nr:Datum:Temp:Feuchte:Taupunkt:
Aussen-T/F 3851 05-03-2019 08:50:00 6.7 C 80 % 3.5 C
3852 05-03-2019 08:55:00 6.6 C 82 % 3.75 C
3853 05-03-2019 09:00:00 6.6 C 83 % 3.92 C
3854 05-03-2019 09:05:00 6.5 C 83 % 3.83 C
3855 05-03-2019 09:10:00 6.5 C 82 % 3.66 C
3856 05-03-2019 09:15:00 6.6 C 82 % 3.75 C
3857 05-03-2019 09:20:00 6.6 C 82 % 3.75 C
3858 05-03-2019 09:25:00 6.6 C 83 % 3.92 C
3859 05-03-2019 09:30:00 6.6 C 83 % 3.92 C
3860 05-03-2019 09:35:00 6.5 C 84 % 4 C
3861 05-03-2019 09:40:00 6.4 C 84 % 3.9 C
3862 05-03-2019 09:45:00 6.4 C 84 % 3.9 C
3863 05-03-2019 09:50:00 6.4 C 85 % 4.07 C
3864 05-03-2019 09:55:00 6.4 C 85 % 4.07 C
3865 05-03-2019 10:00:00 6.4 C 85 % 4.07 C
3866 05-03-2019 10:05:00 6.5 C 85 % 4.17 C
3867 05-03-2019 10:10:00 6.5 C 86 % 4.33 C
3868 05-03-2019 10:15:00 6.6 C 86 % 4.43 C
3869 05-03-2019 10:20:00 6.6 C 85 % 4.26 C
3870 05-03-2019 10:25:00 6.6 C 85 % 4.26 C
3871 05-03-2019 10:30:00 6.7 C 85 % 4.36 C
3872 05-03-2019 10:35:00 6.7 C 85 % 4.36 C
3873 05-03-2019 10:40:00 6.7 C 85 % 4.36 C
3874 05-03-2019 10:45:00 6.7 C 85 % 4.36 C
3875 05-03-2019 10:50:00 6.7 C 85 % 4.36 C
Sensor: Nr:Datum:Temp:Feuchte:Taupunkt:
Aussen-T/F 3876 05-03-2019 10:55:00 6.8 C 85 % 4.46 C
3877 05-03-2019 11:00:00 6.8 C 85 % 4.46 C
3878 05-03-2019 11:05:00 6.9 C 85 % 4.56 C
3879 05-03-2019 11:10:00 6.9 C 85 % 4.56 C
3880 05-03-2019 11:15:00 6.9 C 85 % 4.56 C
3881 05-03-2019 11:20:00 6.9 C 84 % 4.39 C
3882 05-03-2019 11:25:00 7 C 85 % 4.66 C
3883 05-03-2019 11:30:00 7 C 85 % 4.66 C
3884 05-03-2019 11:35:00 7 C 84 % 4.49 C
3885 05-03-2019 11:40:00 7.1 C 84 % 4.58 C
3886 05-03-2019 11:45:00 7.1 C 84 % 4.58 C
3887 05-03-2019 11:50:00 7.1 C 83 % 4.41 C
3888 05-03-2019 11:55:00 7.2 C 83 % 4.51 C
3889 05-03-2019 12:00:00 7.2 C 83 % 4.51 C
3890 05-03-2019 12:05:00 7.2 C 83 %